GFSGBSN_500_spd_003.txt.gz
Wind_Speed
10 5 9 11 12 9 7 13 17 22 38 39 38 37 37 33 31 30 29 28 26 24 21 19 19 19 18 19 20 20 20 19 18 19 17 18 19 20 18 14 15 14 10 8 10 8 7
9 9 10 11 9 8 10 17 20 36 41 39 38 38 34 32 31 30 29 27 26 24 20 17 15 13 13 17 13 14 15 14 14 16 16 16 17 16 14 13 13 10 8 6 6 6 6
5 13 14 13 11 12 17 20 30 43 40 38 37 36 33 32 30 29 27 25 23 22 20 17 14 12 13 17 12 12 12 13 14 15 14 15 16 10 13 9 9 6 3 3 3 3 6
11 10 16 14 13 17 22 25 40 41 38 36 35 33 29 27 27 26 25 23 22 21 18 16 15 12 11 10 10 10 10 11 11 10 10 10 10 8 8 6 6 2 2 11 9 8 8
15 13 13 15 19 23 23 31 38 39 36 34 34 30 26 23 21 18 17 18 18 16 16 15 13 12 9 8 8 6 7 6 7 7 5 6 3 1 1 4 2 7 9 9 10 9 9
14 11 12 17 21 22 27 35 39 39 35 32 31 28 24 19 14 11 10 10 10 11 10 11 11 11 11 10 7 6 5 6 5 6 7 6 5 2 6 10 8 9 9 10 11 12 14
11 13 17 20 22 22 29 37 37 36 32 30 28 25 19 13 8 7 6 5 3 3 5 5 7 9 11 11 9 8 9 6 6 8 7 7 7 8 8 8 10 10 9 10 11 13 11
16 20 21 22 23 22 24 31 32 33 31 27 24 21 19 15 11 8 6 5 5 4 4 4 6 8 12 15 13 11 9 8 7 7 8 9 7 8 9 8 10 10 11 11 12 12 11
20 21 22 21 22 22 22 25 28 29 28 25 23 20 18 16 15 13 13 11 10 10 9 7 9 11 15 17 17 12 10 9 8 7 8 10 11 12 12 11 13 17 13 16 14 13 18
21 22 22 21 21 20 20 19 20 22 23 22 20 19 19 18 17 17 17 16 15 13 13 13 12 15 18 18 13 11 10 9 8 9 9 11 11 15 16 17 15 16 16 15 17 18 18
21 22 22 22 21 20 18 16 15 15 16 17 19 21 20 19 20 20 19 18 18 17 17 17 18 18 18 14 12 11 12 12 10 12 13 11 13 15 17 16 18 20 19 20 17 18 19
22 22 22 20 17 16 14 12 10 9 11 14 15 17 18 19 20 20 20 20 18 18 19 19 18 17 13 13 15 17 18 18 15 15 17 16 15 18 19 19 19 17 18 20 23 23 25
23 22 21 18 16 14 11 9 8 7 7 9 8 7 8 12 16 17 18 18 17 18 19 16 14 14 13 16 16 20 21 19 20 19 19 21 19 14 19 17 19 17 19 21 22 22 23
24 23 21 18 16 13 11 9 7 7 7 10 11 8 7 7 9 13 14 14 13 15 13 15 14 16 17 20 21 24 26 21 20 22 22 21 25 20 17 16 16 20 23 24 26 28 27
26 24 23 19 15 12 11 9 8 7 7 9 12 8 7 8 8 10 12 13 14 16 17 19 20 23 25 21 23 23 21 23 20 20 19 18 22 20 15 18 19 23 24 28 31 32 34
29 26 24 22 18 15 13 10 10 10 9 9 12 11 7 8 8 8 10 10 12 16 18 20 20 20 20 14 17 17 18 16 16 16 17 17 15 15 18 20 21 21 27 30 33 36 40
30 28 26 24 21 18 16 14 12 11 10 9 12 11 10 8 7 8 8 8 9 10 12 12 12 12 12 12 14 16 15 13 15 15 15 16 14 19 21 23 26 29 31 35 36 36 41
31 29 28 25 23 21 19 18 14 12 11 11 13 12 11 10 10 10 11 10 10 10 10 9 9 9 10 11 14 16 17 15 14 14 15 18 19 20 26 31 31 30 28 30 38 39 39
33 31 29 27 26 24 23 21 17 15 14 13 14 15 13 11 10 11 11 13 12 11 11 12 13 14 15 16 17 19 18 17 20 19 22 23 25 24 24 32 33 29 25 28 35 41 41
36 34 33 31 28 27 26 23 20 17 16 14 14 14 14 13 12 11 11 12 14 15 15 16 17 18 19 21 20 22 23 22 23 25 26 28 28 31 31 33 40 40 33 29 34 42 48
37 36 34 33 30 28 27 25 23 20 17 14 13 14 14 13 12 11 13 13 14 16 19 20 22 21 22 23 26 27 28 27 29 31 32 32 30 34 30 35 39 42 39 38 41 44 46
38 36 36 35 34 32 29 28 26 23 20 16 14 14 12 13 12 12 14 15 16 13 18 18 21 23 22 24 25 26 26 28 29 29 33 38 37 40 37 36 41 46 40 44 45 43 42
41 39 37 36 35 34 33 31 29 27 24 21 19 17 17 16 17 17 18 19 20 23 23 24 24 23 24 25 26 29 29 30 31 33 34 37 43 47 48 45 49 45 36 39 42 40 41
42 41 40 39 38 37 35 34 33 32 29 25 26 22 20 20 20 22 23 20 25 28 32 31 32 28 30 31 28 29 32 32 35 36 39 40 43 46 50 49 52 43 38 41 45 45 47
43 42 40 39 39 39 39 37 36 35 33 31 31 29 26 25 26 28 28 27 27 31 35 31 36 34 38 35 35 35 34 38 37 38 38 43 45 46 46 48 51 41 48 52 52 50 48
45 43 42 42 41 40 40 40 39 38 38 36 35 35 32 31 30 33 34 34 33 36 37 40 43 41 39 41 41 42 38 40 43 43 42 42 41 44 43 48 51 46 50 52 49 46 51
47 44 43 42 41 40 41 40 40 40 39 38 38 39 37 36 37 37 38 38 41 46 44 47 48 41 41 41 39 40 43 43 45 41 42 41 44 41 43 47 52 49 51 46 51 57 55
50 50 47 44 44 43 43 43 43 44 44 45 44 43 44 43 41 43 40 42 46 48 52 50 47 38 36 36 39 39 42 42 45 45 43 45 47 49 52 54 55 50 54 51 54 58 60
60 56 55 57 56 55 51 48 47 54 49 48 49 49 51 50 46 46 49 51 53 53 49 47 45 41 41 40 39 43 46 49 48 52 46 50 46 49 51 58 50 51 56 57 59 62 64

GFSGBSN_500_spd_006.txt.gz
Wind_Speed
10 8 11 13 16 7 7 16 15 18 25 37 39 39 39 38 35 33 31 28 26 23 22 20 19 19 17 20 18 20 20 17 19 17 17 17 18 17 17 16 14 10 10 9 9 9 7
6 9 12 18 14 9 8 18 20 25 40 40 40 40 38 36 34 32 29 27 24 21 19 18 17 15 13 16 13 14 16 15 12 12 13 16 15 13 14 14 13 11 8 7 5 4 5
12 10 19 12 11 11 17 21 26 39 40 40 39 37 36 36 34 31 29 26 25 21 16 15 13 11 13 15 14 13 13 10 12 10 10 11 13 10 9 9 11 11 7 4 3 2 1
13 15 14 13 12 15 22 27 39 41 40 39 37 36 36 35 33 30 27 24 23 21 18 16 13 10 9 10 10 9 8 7 8 7 7 7 8 8 7 4 5 4 2 4 4 2 2
15 17 14 15 16 22 26 36 41 40 40 37 37 35 34 33 31 29 27 25 22 19 17 14 14 11 8 7 7 5 5 6 6 7 5 5 7 5 7 7 1 2 3 6 4 5 3
16 17 16 17 21 24 34 41 40 38 38 37 34 32 30 27 25 24 22 19 18 16 15 14 11 11 10 8 8 5 6 6 7 9 10 9 3 3 5 6 7 9 8 9 9 6 8
15 16 20 23 24 28 40 41 39 36 36 35 30 26 26 23 19 15 13 14 10 11 9 9 7 7 9 10 8 8 6 7 6 6 5 6 4 5 6 10 10 10 11 11 12 11 9
15 19 22 25 25 33 40 40 38 35 33 32 29 25 21 16 12 9 8 7 4 3 3 2 3 5 8 12 11 9 6 6 5 6 5 6 9 10 11 10 12 10 12 14 16 17 13
20 24 25 26 27 33 38 40 38 36 33 30 27 24 20 17 14 12 9 8 6 7 6 4 5 7 10 13 14 9 7 6 6 8 7 8 9 10 10 11 12 14 13 14 13 15 22
22 26 26 27 27 29 35 37 36 34 31 28 25 22 20 18 16 14 13 12 11 10 11 9 10 11 11 13 14 9 7 8 8 9 8 9 11 13 15 14 12 14 16 16 14 13 17
24 25 27 28 28 28 30 30 32 31 29 26 25 23 21 20 18 18 17 17 16 14 15 15 15 14 15 13 12 10 9 11 12 12 12 12 13 15 18 17 14 14 15 16 16 19 18
25 26 26 27 27 28 27 27 27 28 27 27 25 23 21 21 21 20 19 19 17 17 18 18 17 16 15 14 12 11 12 12 14 16 17 15 14 16 19 21 17 15 13 17 19 20 19
26 28 28 28 26 26 24 23 23 22 22 22 20 18 17 17 18 19 18 18 18 18 17 16 17 16 14 12 15 14 15 18 19 18 17 18 16 18 18 20 17 15 15 18 22 21 23
26 27 27 26 24 23 22 21 18 17 16 17 16 14 11 9 9 12 13 14 14 12 11 13 13 14 14 15 18 21 21 19 19 19 18 19 17 17 18 16 14 16 17 18 22 24 21
28 29 28 25 23 20 19 17 14 14 14 14 16 14 10 10 9 8 9 10 10 11 13 14 16 17 18 21 23 19 16 17 18 16 14 14 17 16 17 14 15 18 20 24 26 30 28
30 29 27 25 23 20 17 15 14 12 12 12 15 15 11 9 10 8 7 7 10 11 12 11 14 15 10 12 10 11 11 13 10 10 10 11 12 14 14 16 18 22 24 31 32 33 34
32 31 30 27 24 21 18 15 13 12 11 11 13 14 13 10 10 8 7 8 6 7 8 9 11 12 11 10 10 9 10 12 10 9 10 10 12 17 19 21 23 24 27 31 34 34 36
33 33 30 29 27 23 20 17 15 12 11 11 13 13 13 13 12 10 8 9 8 8 8 8 9 9 9 11 12 13 12 13 13 14 14 15 16 21 23 26 27 24 25 30 37 38 37
34 34 33 31 28 25 22 20 18 15 13 12 13 14 14 14 13 11 10 9 10 10 10 11 11 12 13 15 17 18 18 18 17 20 22 22 21 21 28 31 32 26 24 32 39 42 43
36 34 33 32 30 27 25 23 22 18 15 14 14 15 15 14 12 10 9 7 8 8 10 12 13 14 17 17 18 20 21 20 21 22 23 25 25 26 26 31 36 29 26 31 40 42 48
38 37 35 33 31 28 27 25 24 21 18 15 14 13 14 13 11 11 10 10 8 7 8 10 11 12 15 17 19 20 23 25 25 25 26 27 27 27 26 31 36 32 35 37 39 36 41
40 39 37 36 35 33 30 28 26 25 22 18 16 14 13 11 12 13 12 10 9 10 11 14 14 17 18 20 20 22 24 25 25 27 29 31 32 37 30 37 41 36 35 37 36 35 39
40 39 38 37 36 35 33 32 31 29 26 23 20 17 16 14 13 14 13 13 13 14 15 17 19 23 24 24 24 25 28 28 29 29 29 32 37 40 39 38 39 29 32 34 36 36 41
41 40 38 37 36 35 35 34 33 30 28 27 23 20 19 18 17 18 18 19 20 20 25 27 25 28 25 27 31 30 30 32 33 33 33 35 38 40 42 40 43 26 37 39 44 42 42
43 42 40 39 38 37 37 36 35 33 31 31 29 26 24 24 23 24 24 25 26 26 29 33 31 31 36 37 37 33 32 34 36 33 31 36 37 37 39 45 48 35 43 47 52 51 49
45 43 41 40 39 38 37 36 36 35 34 34 33 31 30 28 28 29 29 29 31 33 34 37 39 39 43 40 44 38 32 31 30 31 31 32 35 36 39 46 50 41 48 51 55 55 55
44 44 43 42 40 39 38 38 37 36 37 37 37 35 34 32 31 33 34 35 36 38 38 42 42 44 48 45 44 39 36 34 35 32 32 33 35 35 40 44 48 44 48 50 55 61 62
45 45 45 44 42 42 41 39 39 39 37 36 37 38 37 36 37 38 38 38 42 45 46 48 50 50 50 47 45 41 39 38 37 37 36 37 40 42 46 52 51 51 52 52 57 61 62
48 44 45 45 45 44 42 41 40 40 41 40 40 42 44 44 43 42 43 44 48 47 49 53 51 49 49 46 40 41 41 42 42 43 38 43 41 47 47 52 47 50 56 58 59 63 64

GFSGBSN_500_spd_009.txt.gz
Wind_Speed
9 11 10 8 21 9 6 8 11 17 16 19 22 25 33 38 38 36 33 31 30 29 25 22 22 21 20 19 17 18 18 18 19 20 18 16 17 17 16 17 14 13 12 11 8 7 7
12 10 12 11 12 8 8 9 12 16 19 24 29 32 35 38 37 34 31 28 25 23 21 19 17 16 16 17 13 13 14 15 13 12 11 12 11 10 10 10 10 11 8 10 6 3 4
10 13 15 19 11 10 9 14 15 22 29 33 35 38 39 39 36 32 29 25 21 19 17 15 14 13 13 14 13 12 12 12 11 9 7 5 8 9 7 7 8 5 4 3 3 4 4
14 12 22 17 11 11 14 18 24 32 34 37 39 39 38 36 32 29 28 25 21 17 15 14 12 10 8 9 9 10 10 8 7 7 5 4 3 5 6 4 5 3 1 1 3 4 5
14 18 16 12 12 15 20 25 34 37 38 37 35 34 34 32 30 28 26 23 21 20 18 15 13 11 9 7 7 6 6 5 5 6 5 5 5 4 6 7 4 4 2 5 6 5 4
20 17 14 14 14 20 27 34 37 39 37 35 34 33 32 30 28 26 24 22 21 19 17 16 14 12 10 8 5 4 5 5 4 5 5 5 6 6 8 8 5 5 8 7 4 3 6
18 19 18 18 20 24 36 40 40 38 36 35 36 34 31 30 28 25 23 22 20 18 16 13 12 9 8 8 6 3 4 5 3 4 4 5 4 4 4 8 7 7 7 10 12 8 9
18 17 18 23 24 31 39 39 40 37 36 35 34 33 30 26 23 20 19 13 12 10 8 6 5 3 3 5 5 4 2 3 3 3 2 4 6 6 7 8 9 8 9 9 14 14 11
19 20 22 25 27 36 40 39 38 37 35 32 30 27 24 21 19 16 14 12 10 8 6 4 3 3 5 6 8 6 3 2 4 4 5 7 8 8 9 10 12 10 11 11 10 14 13
21 21 23 26 32 40 41 40 37 36 34 30 25 23 22 20 18 15 14 11 9 9 10 9 9 9 8 9 10 7 5 5 5 6 7 9 11 13 12 12 11 13 14 14 13 12 12
24 26 27 28 34 39 39 40 38 36 34 31 27 25 24 22 19 18 16 15 14 14 15 15 15 13 13 13 12 10 7 9 10 12 13 13 14 15 17 16 12 13 16 15 13 14 17
27 28 28 29 33 36 38 39 37 35 33 31 28 26 25 23 21 21 20 19 18 18 20 18 17 18 18 16 13 10 10 11 13 15 15 16 17 18 21 22 16 15 14 13 14 16 19
28 29 31 31 33 35 34 36 36 34 32 29 28 27 25 24 23 22 22 22 21 21 19 19 18 18 17 16 11 10 12 16 19 20 20 18 18 19 22 23 22 19 15 15 17 17 20
30 30 31 32 32 33 34 33 33 33 32 31 29 28 25 23 22 21 20 19 19 17 18 18 17 14 13 12 13 15 17 21 19 19 19 20 19 20 22 20 20 17 15 16 20 22 22
31 31 32 33 33 32 31 32 30 30 30 30 28 25 21 18 16 13 12 12 12 14 14 14 14 14 14 18 17 20 18 13 14 16 16 16 15 16 17 18 19 18 19 22 26 28 28
32 33 34 33 32 31 30 28 27 26 25 24 24 22 18 15 13 12 11 10 9 9 10 13 14 13 14 14 9 7 10 9 9 11 10 11 12 13 13 15 18 20 24 27 31 33 35
33 34 33 33 30 28 27 25 22 20 19 19 20 20 18 13 13 12 11 9 7 7 8 9 9 9 11 11 9 8 10 10 10 11 11 12 14 17 17 18 20 23 27 31 34 35 37
35 35 35 33 31 27 25 23 20 18 17 16 14 16 16 16 14 13 11 10 9 7 7 8 7 8 9 9 10 11 13 14 15 16 15 15 18 20 21 22 21 25 28 32 37 38 37
36 35 35 33 31 29 26 23 20 17 16 14 12 12 14 16 16 15 13 11 9 9 9 8 7 8 10 12 14 15 17 19 20 22 21 21 21 23 25 25 22 23 29 35 40 42 41
38 37 36 34 33 31 27 24 22 20 17 15 13 12 13 15 14 13 12 10 9 9 9 8 8 9 11 13 15 17 19 20 21 22 23 23 23 24 27 29 26 22 27 34 40 40 42
38 37 37 35 34 32 29 26 25 23 20 18 14 12 13 14 14 13 12 11 10 10 8 6 6 9 12 14 16 17 19 20 22 24 26 26 24 25 26 30 32 26 30 31 33 32 37
39 39 38 36 34 32 31 29 27 25 23 21 17 13 12 13 14 13 13 11 10 10 9 9 10 11 15 18 21 24 25 26 26 28 30 29 31 31 26 36 36 28 29 35 33 32 37
43 40 38 37 36 35 34 32 29 27 27 25 21 18 15 15 15 14 13 13 12 13 13 14 16 19 21 23 22 21 26 29 32 32 30 31 36 39 33 33 34 24 30 34 35 36 40
45 43 40 38 38 37 36 35 32 30 29 28 25 22 20 18 18 17 16 17 17 17 16 18 21 25 27 29 30 32 35 34 36 37 35 36 38 39 39 38 35 19 35 38 41 42 43
47 45 43 40 39 38 38 37 35 32 31 30 29 27 25 24 22 22 22 21 22 23 23 23 26 29 32 33 37 39 39 43 39 35 33 34 35 39 38 41 42 26 38 41 44 47 46
46 45 44 42 40 37 36 36 35 34 33 32 32 31 30 28 27 27 28 27 27 28 30 30 30 32 35 39 44 44 46 45 42 36 30 34 36 36 36 42 44 37 45 48 52 54 55
46 45 44 43 40 39 38 37 36 34 33 33 33 33 32 32 32 32 31 32 33 34 35 36 37 39 43 44 46 47 48 48 45 38 33 33 37 36 38 42 44 44 49 50 53 57 60
46 45 45 43 40 39 39 39 38 37 36 36 36 36 36 36 35 34 35 35 37 39 40 41 43 44 47 48 49 50 52 48 43 38 34 35 36 34 39 43 42 47 53 56 59 62 61
48 45 46 43 43 40 39 40 41 40 38 38 38 38 38 37 37 37 35 38 42 45 47 47 50 52 56 51 50 50 49 43 39 37 31 37 35 38 42 45 44 51 58 60 63 62 63

GFSGBSN_500_spd_012.txt.gz
Wind_Speed
13 13 12 10 8 6 3 4 8 7 11 17 12 17 15 18 23 31 33 34 33 30 27 25 23 21 19 19 18 20 20 20 20 18 19 19 18 18 19 19 17 15 15 13 12 10 7
13 13 10 7 10 7 4 7 6 9 12 10 17 15 17 25 35 37 36 33 30 27 25 23 20 19 19 18 16 17 15 15 15 13 14 12 12 10 9 8 7 7 7 6 6 6 5
14 14 13 10 13 8 7 4 10 12 14 15 18 22 30 36 38 35 32 29 25 23 20 18 15 15 16 16 15 14 14 13 12 11 10 8 6 6 6 6 8 6 5 3 2 4 4
13 12 13 14 13 6 7 9 11 14 17 23 29 33 36 38 36 32 28 25 21 18 16 15 14 12 12 12 12 12 12 11 10 8 7 5 4 4 4 3 2 1 1 1 2 4 6
14 12 15 16 9 8 12 12 15 22 26 31 35 37 38 36 33 30 27 24 20 18 16 14 12 11 11 10 10 10 9 9 8 6 5 5 5 5 4 6 4 4 5 4 7 8 7
14 17 17 14 10 13 16 18 25 29 31 33 37 38 34 31 28 26 24 22 20 19 17 15 13 11 10 9 8 7 7 7 6 3 2 4 5 5 5 6 5 5 6 7 7 6 6
18 18 15 12 13 19 21 29 32 34 35 36 35 32 30 29 28 26 23 21 19 18 16 14 13 11 9 8 6 3 3 3 3 1 2 1 4 2 4 5 5 6 7 6 5 4 7
22 19 16 16 19 23 29 36 37 37 35 34 33 31 29 27 26 24 22 19 17 15 13 11 9 6 4 4 4 2 2 2 1 2 4 3 3 3 4 5 7 7 8 8 10 8 6
21 19 18 19 23 29 35 38 37 35 33 31 30 29 28 27 25 23 18 16 14 10 8 5 5 3 2 2 4 5 3 4 3 4 5 6 7 6 7 8 11 9 10 10 10 14 11
21 18 20 21 25 35 38 39 36 35 33 32 31 29 27 24 21 18 16 14 14 12 9 7 8 8 8 6 7 6 5 6 5 5 7 8 10 11 12 12 12 15 15 14 15 13 12
22 21 23 25 29 38 39 40 37 34 32 30 29 28 25 22 19 18 16 15 14 14 12 14 14 13 13 12 12 11 8 8 9 8 10 12 14 17 17 15 15 16 18 18 16 14 14
24 24 25 28 34 40 41 40 37 34 32 29 27 25 24 21 20 19 18 17 17 17 19 16 16 16 15 16 15 13 12 11 13 12 14 16 17 19 21 20 18 18 18 17 16 16 16
24 25 26 29 37 41 42 41 39 37 34 31 28 25 23 22 23 22 22 21 21 22 20 19 19 18 16 15 14 13 12 13 16 19 20 19 19 21 22 22 21 19 19 17 16 17 19
26 27 27 31 37 40 41 41 39 37 35 32 29 28 26 25 24 23 23 23 23 22 21 21 20 18 14 13 12 13 15 17 20 21 19 18 19 20 20 20 19 18 16 17 20 21 23
28 28 28 31 36 39 40 40 38 38 35 32 31 28 27 26 25 24 23 20 20 19 19 19 16 14 13 13 14 16 18 18 13 14 14 13 13 14 15 15 17 17 18 20 23 26 26
30 30 30 32 36 39 38 38 37 35 33 32 30 29 28 25 22 20 17 15 13 12 12 13 13 13 13 12 10 9 8 10 11 12 12 13 13 12 12 15 16 19 22 25 27 31 32
32 31 32 33 34 37 39 37 35 33 32 31 29 27 23 20 18 17 15 13 9 9 9 8 7 7 9 9 8 9 9 11 14 13 14 16 17 16 17 20 22 23 26 28 29 31 33
34 32 33 34 34 35 34 33 31 29 28 25 24 23 22 21 18 17 14 11 8 8 5 5 7 6 6 7 8 10 13 15 17 17 19 19 21 22 22 23 24 24 27 30 33 35 33
35 34 34 34 34 33 32 30 28 27 25 22 20 19 20 20 18 16 13 11 10 9 8 7 8 9 8 9 10 13 14 16 18 21 22 21 22 23 23 24 26 27 27 30 35 37 37
36 35 35 35 34 32 31 29 27 24 22 20 18 15 15 15 15 14 13 13 11 10 10 10 9 9 8 8 11 13 15 17 19 20 22 23 24 26 27 27 26 26 29 34 39 40 42
37 36 36 36 35 34 31 28 27 24 21 19 17 16 15 14 14 13 12 12 12 11 11 10 9 8 7 9 12 16 19 21 22 24 27 28 28 31 31 31 30 27 30 34 39 39 41
39 38 36 36 35 34 32 30 28 25 23 20 17 16 14 13 13 12 13 13 12 12 11 10 10 10 10 14 16 18 20 22 26 30 33 34 34 33 32 35 36 30 33 37 35 35 38
40 38 37 36 36 35 35 33 30 27 26 23 20 18 15 14 13 13 14 14 13 12 12 12 14 16 17 19 21 23 26 29 32 35 39 41 40 39 32 35 34 28 30 36 36 36 38
42 40 39 38 37 36 35 34 33 29 27 26 25 23 20 17 16 16 16 15 15 16 16 16 18 20 22 24 27 28 30 31 36 38 42 43 43 43 41 36 35 23 32 38 40 40 40
45 43 40 38 37 38 38 36 34 32 30 28 27 26 24 22 21 19 19 20 20 21 21 22 23 25 28 29 31 32 34 39 40 40 43 46 44 44 43 45 43 24 34 40 43 42 46
46 44 42 39 37 38 37 36 35 34 31 30 28 27 27 26 25 24 24 24 24 25 26 26 29 31 32 33 36 39 41 44 46 47 45 46 44 41 40 42 46 35 41 44 47 50 54
47 45 45 42 40 38 37 36 35 34 34 33 31 30 30 30 29 29 29 28 29 30 30 31 33 33 36 39 42 45 48 49 49 47 44 38 37 34 36 39 40 39 43 47 50 55 57
47 46 45 46 44 41 40 38 36 35 35 35 35 34 33 32 32 32 32 32 32 33 34 35 35 37 43 46 50 49 53 52 49 42 40 38 37 33 36 39 37 40 46 49 53 58 60
48 47 45 46 44 44 42 41 39 37 35 35 35 35 34 34 33 34 35 35 35 36 37 36 40 45 51 51 53 57 59 52 43 37 33 34 31 36 40 42 42 48 53 56 59 61 63

GFSGBSN_500_spd_015.txt.gz
Wind_Speed
16 16 13 13 13 8 6 1 7 5 8 11 13 12 12 12 14 16 18 27 31 33 31 29 29 25 24 23 21 20 22 22 21 19 19 21 22 20 17 16 14 14 14 14 12 10 8
16 15 11 12 10 9 8 6 2 5 7 15 13 12 10 14 16 25 33 36 36 33 30 27 24 22 23 24 21 21 20 20 19 17 16 14 12 9 10 10 11 11 12 11 10 11 9
16 15 12 10 6 7 5 6 4 8 10 11 12 10 12 18 32 39 40 37 34 30 27 24 22 22 21 21 18 19 17 16 16 15 13 12 10 9 8 6 7 7 6 9 10 10 6
16 14 14 12 12 8 3 3 7 11 8 9 12 15 24 39 42 40 36 32 29 26 23 22 21 20 19 19 17 16 15 14 13 12 11 9 7 7 6 4 3 3 2 2 1 3 4
14 12 13 13 15 7 5 7 10 9 14 18 22 30 41 41 38 35 33 30 27 24 22 20 19 19 18 16 15 14 13 12 11 11 9 9 7 6 5 4 2 0 3 5 5 5 7
15 12 14 18 11 7 9 10 13 20 25 30 34 38 40 38 35 32 30 28 26 24 22 19 17 16 15 14 12 11 11 9 8 7 6 6 6 6 5 4 2 2 3 5 6 8 7
13 13 18 15 8 11 12 18 23 26 30 33 38 39 38 35 32 29 28 26 23 21 19 17 17 14 12 11 9 8 7 6 5 3 2 2 2 2 3 3 2 4 4 5 4 6 10
12 18 16 14 15 15 18 25 29 31 34 37 36 35 32 31 31 29 27 24 22 19 18 15 13 10 9 8 6 3 2 3 3 2 1 1 1 1 2 4 4 6 6 7 7 6 8
14 19 16 14 17 20 27 30 32 34 36 37 34 33 32 31 29 26 24 22 19 15 12 9 6 4 2 2 3 3 2 3 4 4 3 2 3 5 7 8 9 8 9 9 10 11 10
18 20 18 16 20 25 32 35 35 36 36 35 34 33 32 29 26 23 20 18 15 11 8 6 4 3 3 4 5 5 5 5 6 7 7 6 8 9 10 11 12 13 14 13 12 14 14
21 22 22 20 23 31 37 38 37 36 35 34 33 31 29 26 23 19 15 13 11 10 9 9 8 8 10 11 10 11 9 9 9 10 10 11 12 13 13 14 15 17 17 17 15 15 16
21 23 23 23 25 36 39 39 36 35 33 32 30 29 26 23 19 16 13 12 12 13 14 10 11 12 13 13 14 14 13 12 12 12 13 14 16 17 17 16 16 18 19 19 18 16 16
21 23 23 24 28 39 41 39 37 35 33 31 29 27 25 22 19 17 16 16 16 18 16 16 15 16 15 14 14 14 14 13 13 15 17 19 19 19 18 18 18 18 17 19 19 18 17
23 22 23 25 31 41 42 40 38 36 34 31 28 26 25 23 19 17 18 18 20 21 21 20 18 17 16 15 13 12 12 13 15 17 18 14 15 15 16 17 17 16 15 16 18 19 20
25 23 23 27 33 40 42 42 39 37 35 32 29 26 23 22 20 20 20 20 21 21 19 18 18 17 14 12 12 11 13 14 12 9 11 11 11 12 13 13 14 14 15 17 20 21 23
28 25 27 28 34 40 42 43 41 38 35 33 30 28 26 24 22 21 20 21 18 15 13 12 12 11 11 11 10 7 8 9 9 10 11 12 12 13 14 15 17 19 20 22 24 25 27
29 27 28 29 35 38 42 43 41 39 36 34 32 29 26 24 23 21 20 16 12 10 8 8 8 8 7 7 7 7 8 9 10 12 13 14 16 18 19 20 20 21 23 25 26 28 31
30 29 28 29 33 38 39 41 41 39 37 34 32 29 26 24 20 18 15 14 12 9 7 5 6 6 5 5 5 5 8 11 12 14 16 17 18 19 21 21 23 24 26 28 30 31 32
31 30 30 30 32 35 38 39 39 39 36 33 31 27 23 20 18 17 14 14 14 10 10 9 8 7 6 6 6 6 7 9 12 15 16 18 19 21 23 24 25 26 27 29 31 35 33
32 31 30 29 31 32 34 36 37 36 35 31 27 22 19 19 19 18 15 15 14 12 12 11 9 8 6 3 3 5 8 11 12 14 17 20 23 25 26 28 30 30 32 34 37 39 41
34 32 31 30 31 32 32 33 33 33 31 27 24 22 19 17 17 16 15 14 13 12 11 10 9 7 5 4 6 10 13 15 17 21 25 28 29 30 32 32 32 31 33 37 39 41 42
34 34 33 31 31 33 34 33 33 31 29 27 24 22 18 15 13 14 14 14 13 13 12 11 8 7 8 9 12 15 19 20 22 25 31 35 37 38 35 37 34 28 31 35 37 38 38
35 34 34 33 33 34 34 33 32 31 28 25 23 21 18 15 15 15 15 15 14 13 12 11 11 11 12 14 17 20 23 25 25 27 35 39 44 46 39 37 34 30 31 35 36 36 38
38 35 35 34 33 34 34 33 31 30 28 26 23 21 19 18 16 16 15 15 15 14 14 14 15 16 17 18 21 23 26 28 30 32 37 43 47 47 45 41 35 24 32 36 38 35 38
38 38 35 34 35 35 34 34 32 30 29 27 25 23 21 19 17 17 17 17 17 17 17 18 19 20 22 24 25 27 30 32 34 36 41 45 47 47 46 45 38 19 28 32 35 34 38
40 40 38 36 35 35 35 34 33 32 31 29 28 26 24 23 22 20 20 20 20 21 21 22 23 24 27 28 29 31 32 34 40 41 42 47 46 42 41 42 37 29 34 35 37 39 44
42 41 41 39 37 35 33 34 34 34 33 32 31 30 27 27 26 25 25 26 26 26 26 27 27 28 30 31 32 34 36 40 44 47 47 43 41 35 36 36 31 34 37 39 44 49 53
44 43 42 43 41 38 35 33 34 35 34 34 33 32 31 30 29 29 30 30 30 30 31 30 31 31 32 34 37 40 43 47 49 47 40 36 38 34 34 32 34 38 41 45 49 53 56
44 44 42 43 44 42 39 36 35 33 33 33 34 33 33 32 32 32 32 32 32 33 33 32 32 33 36 38 42 47 50 52 49 45 38 30 32 34 36 36 38 43 46 49 52 56 61

GFSGBSN_500_spd_018.txt.gz
Wind_Speed
20 18 17 16 14 13 10 7 8 12 10 10 15 17 19 17 17 17 20 22 19 25 28 30 29 27 27 24 22 22 22 21 20 19 20 19 18 16 15 16 17 16 14 14 13 12 9
18 18 16 14 13 13 12 8 9 4 10 14 17 17 20 20 20 21 20 26 33 37 37 34 32 29 28 27 25 24 24 22 21 21 20 19 17 15 14 14 14 15 15 13 11 12 10
17 18 16 13 10 11 12 8 5 8 15 19 15 14 17 20 20 25 33 38 40 37 34 34 32 30 28 27 23 21 21 19 19 19 17 15 14 13 13 12 11 11 9 8 9 9 8
18 18 16 15 15 11 9 5 7 11 18 16 14 16 18 24 33 40 41 40 37 36 34 32 29 27 26 24 22 20 18 17 16 16 15 13 11 10 8 7 6 7 6 5 9 10 7
17 17 14 17 13 14 7 5 15 12 12 15 16 21 31 40 43 42 40 37 36 33 30 29 27 25 23 21 20 18 15 14 14 12 11 10 9 8 5 4 3 3 3 4 4 5 5
17 14 14 15 16 12 7 8 11 14 15 21 28 37 44 44 43 40 37 35 32 29 28 26 23 22 20 18 18 16 15 15 14 12 9 9 8 7 6 6 6 4 4 5 6 8 9
18 15 17 17 18 11 8 11 15 19 26 33 40 43 43 42 39 36 34 32 29 28 26 23 22 19 17 15 14 12 10 9 10 10 9 9 7 7 7 7 5 3 3 4 7 9 11
18 16 17 17 14 10 12 16 24 28 33 39 42 42 41 38 35 33 32 30 28 25 25 23 19 16 13 12 9 7 6 6 6 6 5 5 6 7 6 4 3 4 5 7 7 8 11
18 17 20 17 12 13 16 25 30 36 37 41 40 38 37 35 33 32 30 28 25 23 19 17 14 11 8 7 6 4 1 4 4 4 5 6 7 7 6 6 8 8 8 9 11 11 13
19 22 20 14 15 20 25 30 34 37 39 40 38 36 34 33 31 30 28 24 21 18 15 10 8 5 3 1 1 1 2 4 6 6 7 8 8 8 9 10 11 12 12 12 12 14 15
21 23 22 15 18 25 31 35 37 39 39 38 35 35 34 33 30 28 25 20 16 13 10 5 4 3 4 6 7 8 8 7 8 9 10 10 11 11 13 14 15 16 16 16 15 15 16
22 22 21 17 22 29 36 37 40 40 38 36 36 35 34 31 27 24 20 16 11 9 6 3 5 7 8 10 11 12 12 11 11 12 13 13 15 16 18 18 18 18 18 18 19 18 17
23 23 22 20 26 34 38 39 40 40 37 37 37 34 32 28 23 18 15 12 11 10 7 9 11 12 13 14 13 13 13 13 12 13 13 15 18 18 18 19 20 19 17 18 18 18 18
25 25 23 23 28 37 40 39 39 39 38 37 34 32 29 26 22 18 16 13 13 12 14 15 17 17 15 14 13 11 10 10 11 12 14 13 11 11 11 13 14 14 13 14 16 18 20
25 25 24 25 29 37 42 41 39 38 37 34 32 30 27 24 21 19 16 14 14 16 17 18 16 14 14 12 10 10 10 9 8 4 5 6 8 8 9 10 11 12 14 15 17 19 21
27 26 25 25 29 37 43 43 40 38 36 34 32 29 26 23 21 19 17 16 17 17 15 13 12 11 10 10 9 7 5 4 4 4 6 7 9 11 12 13 15 16 17 19 20 22 22
28 26 26 27 30 37 41 43 41 39 37 35 32 29 26 24 22 20 18 17 16 12 9 9 9 9 8 6 4 4 2 2 4 7 9 11 13 14 16 17 18 19 21 22 24 25 27
30 28 28 27 29 35 40 43 42 40 38 35 33 30 27 24 22 21 18 16 12 11 10 8 6 7 6 4 2 1 2 4 5 7 9 12 14 17 19 21 22 23 24 27 29 31 31
31 29 27 28 28 33 38 40 43 42 39 37 34 31 28 26 23 20 16 14 13 14 12 10 8 7 5 4 3 1 0 3 6 7 9 13 17 20 22 23 25 27 28 29 31 33 31
32 29 27 26 27 31 36 39 41 42 40 37 35 32 30 26 22 17 16 14 14 15 14 12 10 8 5 5 5 3 2 4 6 8 12 17 22 23 27 29 30 29 29 30 32 34 36
34 31 28 28 29 31 35 38 40 40 40 37 35 32 28 24 20 18 19 18 17 17 15 13 10 9 8 8 7 6 6 9 12 15 18 21 24 27 31 32 31 28 30 32 32 33 36
37 34 32 29 29 31 32 36 37 37 37 36 34 31 26 23 20 19 19 19 18 17 15 13 12 10 10 10 10 11 12 13 16 19 23 26 30 33 33 35 34 29 31 31 33 35 35
37 35 33 31 29 30 31 32 33 35 35 35 33 29 26 23 20 18 18 18 17 16 16 14 13 13 13 12 13 14 15 17 19 22 27 30 36 39 39 41 34 30 28 28 28 31 32
37 35 34 32 30 30 31 32 32 33 34 33 32 30 27 25 22 20 19 18 17 17 16 15 15 14 15 15 17 18 18 21 23 25 28 34 40 46 48 46 33 30 29 26 23 23 28
39 36 34 34 32 31 32 32 32 33 33 33 32 30 28 24 22 21 19 19 18 18 18 17 17 17 18 19 21 21 22 24 26 25 31 37 45 49 48 43 30 26 29 26 26 23 28
40 37 35 33 33 32 32 32 32 32 33 33 32 30 28 26 24 22 21 20 20 20 19 20 21 21 22 23 24 24 24 27 29 31 35 41 48 47 45 42 37 31 29 30 31 34 36
40 38 37 35 33 33 34 33 32 33 33 32 31 30 28 27 26 25 24 23 23 23 23 23 24 24 26 27 27 27 28 30 31 34 40 46 48 43 42 40 33 34 35 38 39 43 46
42 39 37 37 35 34 34 34 34 34 34 32 31 30 30 29 28 28 28 28 28 28 28 27 28 29 31 30 30 31 31 32 35 39 44 47 44 40 40 36 35 36 40 43 46 48 51
42 40 39 37 38 36 35 34 35 35 35 34 33 32 32 32 31 31 30 30 31 31 32 32 32 32 32 32 34 34 35 36 40 43 45 40 38 37 37 30 37 41 46 46 50 53 56

GFSGBSN_500_spd_021.txt.gz
Wind_Speed
25 25 22 23 22 18 16 14 11 10 15 16 15 16 18 18 18 17 16 16 17 16 17 19 23 22 22 19 21 25 25 25 23 20 22 19 14 12 9 12 14 16 17 15 14 11 10
23 24 21 20 19 18 14 13 13 14 14 15 14 16 16 18 19 17 18 19 19 19 23 25 25 23 23 27 23 22 19 18 18 20 17 18 20 20 18 16 13 12 12 11 10 10 9
25 22 20 18 19 15 14 15 14 11 11 15 16 16 22 21 21 22 21 21 25 30 33 33 32 31 29 29 24 24 23 23 22 22 24 20 19 19 15 12 10 10 8 4 4 6 6
24 20 18 19 17 12 11 11 10 11 12 16 19 13 20 24 24 23 26 35 40 39 37 35 33 32 31 27 25 23 22 20 19 18 16 15 15 15 14 11 10 8 5 3 6 10 8
21 19 18 19 18 16 13 9 10 14 16 19 17 16 23 25 27 34 42 42 41 39 36 34 33 30 28 25 23 20 19 18 16 15 13 13 12 11 10 7 5 2 2 7 7 9 11
20 18 17 18 20 15 14 9 19 14 13 19 19 21 28 35 41 44 42 40 38 36 34 31 29 28 23 23 22 20 18 17 15 13 12 11 10 8 6 4 3 11 7 8 9 9 9
20 17 16 18 19 16 13 12 17 18 15 22 27 34 41 43 42 41 40 38 35 32 29 27 25 22 21 18 16 14 13 13 12 11 10 9 9 9 8 7 7 9 9 9 10 11 11
19 17 18 20 16 15 13 16 19 20 25 33 38 43 44 42 41 40 38 34 33 29 26 25 22 20 18 15 14 11 10 10 9 9 8 7 8 9 9 9 9 9 9 10 10 10 12
19 18 19 19 18 14 15 20 24 29 37 41 43 43 41 39 38 36 33 30 28 25 24 22 19 17 14 12 9 7 6 7 8 8 9 10 8 8 8 9 10 11 11 11 12 12 13
20 20 19 20 18 14 19 25 31 39 42 44 43 42 39 37 35 33 32 29 28 26 21 17 15 12 9 7 5 4 3 2 5 6 7 8 8 9 10 11 12 15 14 14 14 13 10
21 20 23 21 17 17 23 31 37 43 44 43 41 39 36 35 34 32 29 26 23 21 18 12 9 6 3 1 1 3 3 3 5 7 9 9 10 11 13 14 15 17 17 17 17 17 16
22 21 24 19 19 22 28 36 41 44 43 40 40 37 36 34 32 30 27 22 18 15 10 7 4 1 3 5 7 7 7 8 8 9 12 13 14 15 17 19 21 21 20 19 19 18 18
23 21 25 20 21 27 33 41 43 43 42 40 38 35 34 32 31 27 22 18 14 9 4 3 3 6 8 10 10 10 10 9 9 11 12 13 14 17 16 15 16 17 17 17 16 16 11
25 23 25 22 26 32 37 43 45 44 41 38 37 35 35 32 29 24 19 14 9 5 6 7 10 12 13 12 11 10 9 8 8 9 11 13 10 10 9 9 9 9 10 11 13 15 14
26 23 25 24 28 35 39 43 46 43 40 38 37 37 35 31 26 21 17 15 10 10 11 13 14 13 11 11 10 8 8 8 7 6 6 6 7 8 9 10 11 12 13 14 16 17 19
27 24 25 26 31 38 41 44 45 42 40 39 38 36 33 28 25 21 17 14 13 13 14 14 12 10 10 7 7 7 6 5 5 4 4 5 7 10 12 13 13 16 17 18 19 22 22
28 25 25 26 31 40 44 45 45 42 39 38 37 34 31 28 24 21 18 16 15 14 13 9 8 8 7 7 5 5 5 5 4 3 4 5 8 10 12 12 16 17 17 20 22 23 26
30 26 26 27 32 41 46 46 45 42 40 38 36 32 30 27 24 21 20 17 15 14 10 8 6 6 6 6 5 6 5 3 1 1 3 5 8 11 13 15 17 18 21 23 24 27 28
32 28 27 27 31 38 42 46 45 43 40 39 36 33 30 27 24 22 20 18 17 13 11 9 8 5 5 6 7 6 5 4 2 1 2 7 10 13 19 20 22 23 26 27 28 28 25
33 30 28 27 29 35 39 43 46 44 41 39 37 34 31 27 24 23 21 19 16 14 13 12 10 8 8 9 8 8 6 4 4 5 7 11 15 18 22 26 30 34 35 35 32 30 30
35 32 30 28 29 33 38 41 44 44 42 40 38 35 31 28 26 24 21 18 18 15 14 14 13 12 11 11 11 10 9 8 7 9 12 15 18 21 25 30 35 37 37 36 34 33 34
37 34 31 30 29 32 36 39 41 42 42 41 38 34 33 29 27 24 22 20 20 18 17 17 16 15 15 15 14 13 12 11 11 14 17 19 21 24 26 34 38 38 36 33 32 30 28
39 36 34 32 30 30 32 36 38 40 41 40 38 36 34 30 27 24 22 21 20 19 19 19 18 18 17 17 16 15 14 13 15 18 21 24 26 30 32 38 41 40 33 32 28 30 27
40 38 36 34 30 29 30 33 36 37 39 39 38 36 33 30 27 25 24 23 22 21 21 20 20 18 19 18 18 18 17 17 18 21 24 28 31 35 39 44 42 40 35 30 28 27 27
41 37 35 34 32 29 29 30 33 36 37 36 37 36 34 31 30 28 26 23 22 22 22 20 20 20 21 21 20 20 20 21 22 24 28 31 34 38 43 46 41 35 32 30 26 23 29
42 38 36 34 32 30 29 31 31 33 35 35 36 35 34 33 33 31 28 26 24 23 22 21 21 22 23 23 22 22 23 25 27 27 29 34 36 39 45 47 41 36 37 29 32 32 34
43 39 35 34 34 33 32 32 32 33 33 33 34 35 35 35 34 33 30 27 25 24 23 24 23 24 24 25 25 26 27 29 31 32 33 36 39 40 45 44 37 35 33 33 33 37 43
45 41 38 36 35 34 34 34 33 33 32 33 34 35 35 36 35 33 31 29 28 27 27 26 27 26 28 29 29 30 32 32 33 35 36 38 40 42 46 43 42 39 37 38 39 42 47
44 42 40 38 35 35 34 33 33 34 34 34 35 36 36 35 35 35 34 33 31 31 30 30 30 31 32 33 34 35 35 35 36 37 39 37 41 45 48 41 40 42 43 44 45 48 52

GFSGBSN_500_spd_024.txt.gz
Wind_Speed
32 31 33 24 27 24 23 19 21 19 15 15 17 17 21 23 19 24 19 16 15 13 15 15 15 14 18 18 16 21 23 26 24 25 23 22 10 8 6 7 8 14 14 14 16 15 11
30 26 27 25 25 22 19 19 19 18 19 21 22 20 19 18 19 19 17 15 15 15 17 17 17 20 21 19 24 24 26 26 28 21 19 23 16 17 8 9 4 11 14 15 13 10 9
33 29 24 25 22 20 18 18 20 18 19 18 14 14 14 14 19 21 18 17 17 20 19 20 23 23 20 23 25 21 22 16 15 16 22 14 19 20 17 12 11 10 8 4 2 2 2
31 28 25 23 20 18 16 16 16 19 18 14 14 16 18 19 21 21 19 19 21 22 20 22 23 24 22 18 18 20 21 22 21 20 17 18 15 14 14 11 9 7 4 3 0 4 5
28 21 26 21 20 17 15 13 13 16 14 12 16 19 21 24 21 21 20 21 23 27 30 30 29 28 28 24 24 22 21 23 20 17 17 16 15 14 12 12 10 8 2 4 13 9 6
23 25 23 20 19 18 18 16 12 13 17 14 16 12 23 24 21 22 28 35 38 36 35 31 29 30 27 25 24 22 21 19 19 18 16 15 16 13 11 9 8 7 2 14 14 7 8
23 25 23 20 19 19 18 18 11 11 17 14 13 15 24 24 26 35 39 38 35 35 33 33 28 26 24 21 19 18 17 16 14 15 17 12 14 4 15 5 8 15 13 8 11 9 9
23 25 22 19 19 20 18 15 14 21 16 19 20 24 30 33 38 40 40 37 37 32 27 25 24 21 21 16 17 15 14 14 13 14 11 8 5 6 10 9 9 17 14 12 13 9 10
24 24 20 21 19 19 19 15 17 22 19 25 29 35 38 41 41 38 34 32 32 28 26 22 21 19 17 14 12 11 10 10 11 10 8 7 6 6 7 8 9 12 12 12 13 11 10
27 24 21 22 20 19 17 17 22 24 26 36 39 42 42 41 39 37 35 30 29 26 25 22 20 17 15 14 12 9 7 6 5 5 6 4 5 7 8 9 9 15 8 14 14 15 12
28 24 24 22 21 21 17 22 28 30 38 42 44 42 41 40 38 35 33 29 28 26 24 18 14 11 10 7 5 3 2 2 4 6 8 7 8 10 12 12 13 17 16 17 17 17 17
28 25 26 25 23 20 22 29 34 41 44 45 44 41 39 37 33 32 30 27 25 21 15 14 10 7 5 3 1 1 3 4 6 9 10 10 12 13 14 15 17 19 20 20 20 19 18
28 26 27 27 22 23 27 34 42 45 46 45 42 39 38 35 34 31 28 25 21 15 12 9 6 2 1 3 4 5 5 6 7 8 10 10 10 11 13 13 11 12 12 12 10 10 11
29 28 30 26 25 27 32 40 46 47 47 44 41 38 36 33 32 30 27 22 17 13 9 4 1 5 7 7 6 6 6 5 5 6 6 7 3 6 6 8 9 9 9 8 9 10 13
30 30 34 25 26 31 37 44 47 47 46 44 40 37 35 34 32 28 24 19 15 10 5 4 7 10 9 7 7 6 5 4 4 5 6 5 5 6 7 9 11 11 12 13 15 16 17
30 31 33 27 28 33 40 45 47 47 44 42 39 37 35 33 30 27 22 17 11 7 7 8 11 9 6 5 4 4 5 5 5 5 4 3 4 6 7 7 8 12 13 15 18 21 19
32 32 31 27 31 37 41 45 48 47 44 41 38 36 35 33 31 26 20 14 11 10 10 11 9 7 5 4 4 4 4 6 6 5 4 2 1 3 5 7 12 16 18 18 20 24 25
34 33 32 29 33 40 42 46 48 46 43 41 39 38 37 34 29 24 20 14 11 11 12 11 7 5 5 5 4 5 6 6 6 5 4 3 2 5 8 11 13 16 20 23 24 24 27
35 33 31 30 34 40 42 45 48 46 43 41 39 38 37 32 28 24 18 15 14 14 13 10 7 5 5 6 6 7 8 8 7 6 4 2 5 10 14 15 19 27 29 32 31 25 22
36 33 31 30 34 40 44 46 47 46 44 42 41 37 35 30 27 23 21 18 17 16 13 12 9 7 7 8 9 9 10 9 8 6 6 7 9 12 15 19 24 29 33 34 34 33 26
37 34 32 31 34 40 44 47 47 46 44 41 38 37 34 29 25 24 22 20 18 16 14 14 12 10 10 11 11 12 13 11 10 8 8 11 13 15 18 22 27 32 36 36 32 30 30
39 35 33 31 32 37 42 45 47 47 45 43 41 37 33 30 29 27 23 20 19 17 16 16 15 15 15 16 15 15 15 13 12 13 13 15 16 18 20 23 29 35 38 36 33 30 26
40 36 33 31 31 35 39 43 46 46 46 44 41 38 36 33 31 28 24 22 21 17 19 20 19 19 18 15 16 16 17 17 15 15 17 19 22 24 24 27 29 37 38 37 34 33 31
40 37 35 32 31 32 36 40 42 44 45 42 41 40 37 34 32 28 25 22 23 22 23 22 21 19 20 21 18 18 19 19 18 19 20 22 26 28 30 32 32 37 39 39 33 31 29
41 39 36 33 31 31 32 37 40 41 43 43 42 41 37 36 34 31 26 26 23 23 24 21 21 21 22 21 20 21 21 21 22 22 24 27 30 33 35 37 37 37 42 34 36 28 31
42 40 37 34 31 30 31 33 37 40 41 41 41 39 38 37 35 32 31 28 28 26 24 25 23 23 23 22 23 22 23 24 25 25 27 31 33 35 37 41 42 44 47 44 41 36 35
43 40 38 35 33 31 31 32 34 36 38 38 38 38 38 37 36 36 34 31 31 29 28 26 26 25 24 24 25 25 26 27 29 29 30 34 36 38 40 42 43 46 48 47 45 40 40
44 41 38 36 34 32 31 32 33 33 34 35 36 37 38 38 37 37 35 35 33 33 30 29 29 27 26 27 27 27 29 30 32 34 35 38 39 40 42 43 45 49 49 50 45 40 41
45 42 40 37 35 34 32 32 31 31 32 33 34 35 37 38 37 37 37 38 37 35 33 30 32 29 31 30 30 32 33 33 35 37 39 42 40 43 44 43 46 51 51 51 46 44 47

GFSGBSN_500_spd_027.txt.gz
Wind_Speed
39 39 36 38 36 31 28 27 26 23 22 21 18 16 18 15 19 19 22 18 16 14 10 13 13 16 16 14 14 21 24 28 30 30 29 27 24 17 25 21 19 24 18 16 22 19 7
39 39 37 39 32 28 25 26 25 21 20 20 19 21 21 18 20 20 21 18 15 16 17 15 17 18 13 13 20 25 30 33 36 36 35 32 21 12 11 14 11 11 7 9 9 10 6
39 36 35 35 35 25 24 24 21 19 20 19 20 24 20 17 16 16 20 18 18 17 18 18 14 15 13 18 24 29 30 31 23 31 28 22 26 23 18 12 12 12 13 12 10 6 1
37 33 34 33 25 23 21 20 18 18 17 18 19 11 11 12 14 18 21 21 19 17 17 17 15 15 16 19 20 23 23 19 11 8 13 14 21 15 19 16 12 10 7 9 7 5 1
37 35 34 28 24 23 20 17 15 12 15 18 14 12 12 14 18 22 21 18 19 20 19 20 20 21 21 23 18 18 19 20 23 20 20 19 15 16 18 18 18 13 9 4 7 6 1
30 31 28 22 24 21 19 16 15 14 15 13 10 15 19 17 19 20 20 21 23 20 20 23 22 22 21 22 21 21 21 21 21 21 19 19 18 19 13 14 8 12 4 3 14 4 3
29 29 25 26 22 21 19 18 16 14 11 13 15 21 24 20 22 21 21 23 23 25 25 29 30 23 25 24 23 22 21 20 18 21 20 20 20 18 14 5 3 17 16 16 13 3 5
29 25 26 26 23 21 20 18 17 11 11 14 13 9 20 25 21 25 29 33 35 31 28 24 26 24 21 19 19 17 17 16 14 17 19 18 12 10 8 6 5 14 18 16 13 6 8
29 26 26 25 22 21 21 19 18 19 17 10 14 15 21 26 29 32 33 32 32 29 25 24 23 22 19 16 16 16 14 11 14 15 16 10 11 7 5 5 8 12 14 14 15 8 8
23 30 26 24 22 22 22 21 18 20 23 18 19 22 29 30 33 34 33 32 30 27 26 23 22 20 18 16 14 13 11 12 11 14 9 8 7 7 8 5 11 11 8 12 12 12 13
27 30 27 24 24 24 23 21 19 22 22 21 25 33 35 37 38 36 35 32 30 27 26 22 20 18 17 14 13 12 11 11 9 9 7 5 5 5 5 7 11 11 13 14 15 15 17
30 33 29 26 27 26 24 22 24 25 22 28 36 40 42 40 38 37 33 30 28 25 23 22 18 15 13 11 9 8 8 8 9 9 4 8 7 10 11 11 14 16 17 17 19 20 17
33 36 31 27 29 27 27 25 28 27 30 38 42 43 41 39 36 33 31 29 26 21 20 17 14 11 9 7 6 7 7 8 8 8 9 8 9 10 9 9 10 10 10 10 10 9 10
41 38 32 30 30 30 28 28 30 32 41 44 43 42 41 39 36 33 31 28 23 19 17 15 11 7 5 4 6 7 7 7 7 8 8 8 9 6 4 4 4 7 7 8 8 10 9
42 36 32 33 32 32 30 32 35 42 46 45 44 42 41 38 35 32 29 26 23 17 15 10 7 5 4 5 6 6 4 9 8 7 5 2 3 2 2 6 7 7 9 11 11 12 11
40 36 33 34 34 32 32 36 41 47 48 46 43 42 39 37 35 32 28 24 20 13 9 5 5 6 6 6 7 7 6 8 9 7 6 2 1 2 3 4 6 9 10 12 13 14 10
40 36 35 35 34 34 36 41 47 50 49 46 43 41 39 36 34 31 27 22 15 10 6 6 7 6 5 7 8 7 8 9 9 7 5 4 2 1 3 4 4 10 16 19 19 21 20
40 38 37 37 34 36 39 44 50 50 48 45 42 41 38 37 34 30 26 21 15 12 8 8 7 8 6 8 7 7 8 8 8 7 6 6 3 2 2 5 7 11 16 19 20 22 22
41 39 39 36 35 38 41 46 51 51 48 45 41 41 40 38 34 30 26 17 14 12 9 9 7 7 7 8 8 9 8 9 9 9 10 5 3 3 5 7 8 15 23 27 30 28 19
41 40 40 35 37 40 43 47 52 50 48 46 43 42 41 38 34 30 24 16 15 14 11 9 9 10 8 9 9 9 9 10 11 11 9 6 7 9 11 13 15 19 22 28 33 33 30
43 40 39 35 39 41 45 48 51 50 49 47 44 41 38 36 34 28 23 20 16 14 13 10 13 13 11 10 10 10 11 13 12 11 9 8 9 12 14 17 18 21 24 27 30 33 35
43 39 38 36 39 42 45 48 50 50 49 46 44 42 38 36 31 27 25 21 17 16 13 13 15 17 15 14 10 8 12 13 13 13 12 12 13 14 17 19 21 23 26 29 29 32 32
43 40 38 36 38 42 45 48 50 50 49 47 44 42 40 35 32 30 25 21 21 17 16 17 20 20 13 11 14 14 15 17 19 16 14 16 17 19 19 22 25 27 28 31 34 35 37
43 40 38 36 37 39 43 46 49 49 49 45 41 39 37 35 34 30 24 25 24 18 20 19 19 16 16 20 19 16 17 20 19 19 17 20 22 23 23 26 28 31 33 33 36 39 38
43 39 38 36 35 38 37 42 46 49 47 45 45 41 39 38 36 33 29 29 25 19 20 17 19 22 23 19 19 20 20 22 21 21 21 23 26 27 28 30 31 34 36 34 36 39 38
43 40 38 35 34 35 38 38 38 42 46 47 45 42 41 39 38 34 34 31 28 23 22 22 23 24 23 22 23 22 23 24 24 23 25 27 29 29 32 35 38 41 41 42 43 41 41
44 41 38 35 33 33 35 38 38 39 42 44 45 44 42 41 38 37 36 33 30 28 26 25 26 25 24 25 26 26 25 27 27 26 28 30 32 33 35 38 39 40 44 44 43 45 44
45 41 38 37 34 32 32 33 35 38 39 41 41 42 41 40 40 39 37 36 33 32 29 28 30 28 28 29 28 27 27 28 29 30 30 34 35 36 38 40 43 45 47 44 46 47 48
46 43 39 37 36 34 30 30 31 33 37 38 39 40 40 40 40 41 39 39 37 35 33 34 34 31 33 31 30 30 31 31 31 33 35 38 38 40 40 41 44 48 48 46 48 50 50

GFSGBSN_500_spd_030.txt.gz
Wind_Speed
51 37 44 35 37 39 36 37 34 32 28 25 24 23 21 15 15 17 20 21 18 14 13 10 14 11 12 12 15 18 21 24 30 38 42 37 36 33 24 14 9 16 18 17 15 17 13
50 37 38 34 38 37 36 35 29 26 27 23 22 21 20 17 16 14 18 18 18 15 16 14 13 10 11 14 18 27 32 33 36 39 41 37 35 33 27 21 20 14 19 13 17 15 8
51 33 33 35 38 34 33 34 29 27 23 21 20 20 18 22 23 20 20 18 18 15 17 18 14 15 15 14 23 27 31 36 38 37 38 38 40 37 34 23 23 20 15 14 12 10 7
37 33 34 35 36 30 30 24 22 23 20 19 19 14 20 13 15 18 17 20 18 17 18 20 15 14 15 19 23 28 30 34 21 31 25 28 27 29 20 22 20 18 18 18 12 7 6
28 32 33 34 36 30 29 25 22 20 17 14 14 17 12 11 13 15 18 21 20 19 17 17 14 15 15 21 25 18 23 20 13 27 20 15 14 15 17 19 15 16 19 17 12 8 1
31 32 32 34 32 27 26 23 21 17 12 14 13 12 12 12 11 15 19 19 18 16 17 15 16 16 19 19 20 20 17 16 19 20 18 21 20 23 23 20 15 12 12 15 9 4 3
33 32 29 34 30 24 24 22 21 17 14 15 14 11 13 12 10 15 18 19 20 19 18 18 19 21 24 22 21 22 23 23 24 24 26 28 27 26 23 12 12 8 7 6 3 4 1
35 30 30 30 27 24 26 22 21 17 14 13 12 16 17 20 20 20 19 19 20 23 21 20 21 23 22 24 23 24 24 24 23 27 27 24 21 18 18 12 12 12 11 9 3 7 7
35 31 31 31 28 27 27 22 20 18 12 12 10 13 19 26 19 20 19 20 22 23 24 22 24 23 23 22 22 20 19 19 21 20 18 20 15 14 12 9 10 16 16 12 12 9 12
34 34 32 32 28 30 27 24 22 20 17 16 17 11 16 30 23 22 26 27 27 27 27 24 22 22 22 18 17 17 16 15 17 17 16 14 15 12 9 7 7 7 10 14 15 13 15
40 37 34 29 31 30 25 25 24 22 21 19 16 14 16 23 29 31 31 30 29 29 28 26 24 22 22 19 18 19 17 15 13 10 14 10 11 10 8 9 10 9 12 13 15 18 16
42 39 31 30 33 30 27 27 26 23 22 23 19 17 26 33 35 33 31 31 29 29 25 25 23 21 18 17 14 14 16 15 13 13 13 14 12 9 9 11 12 14 15 17 18 19 19
44 39 32 34 33 29 29 27 28 25 25 24 22 27 37 38 35 34 32 30 29 26 26 23 20 18 16 15 13 14 14 13 10 11 13 12 12 11 10 10 10 8 7 7 9 9 12
42 41 38 37 33 30 31 30 28 28 27 25 29 40 42 40 38 37 32 29 27 27 24 22 18 16 14 12 13 13 14 14 14 13 12 11 12 9 7 5 4 4 5 6 8 9 11
44 42 42 40 37 34 33 33 30 30 28 30 40 45 43 40 39 36 33 30 26 25 21 18 16 14 11 12 13 12 11 14 15 12 9 9 8 7 4 2 1 1 2 2 4 6 11
47 43 43 42 37 37 36 35 32 33 32 38 46 46 43 41 40 36 34 30 22 21 19 15 12 11 13 13 12 13 14 12 11 9 9 10 8 6 4 5 4 2 6 9 10 10 14
45 47 45 44 39 39 39 35 36 37 38 45 49 47 44 42 39 37 34 28 22 18 15 12 7 7 9 11 12 12 12 12 12 11 10 9 8 7 7 4 2 2 6 10 14 15 17
51 48 46 43 41 40 39 37 40 41 45 50 50 47 45 42 39 36 32 28 22 19 13 8 4 5 7 10 9 10 12 12 13 13 12 10 9 8 6 2 4 4 7 11 13 17 21
45 50 46 42 41 41 39 40 43 45 49 51 49 47 44 42 38 34 31 28 23 17 11 7 4 7 9 10 10 13 14 15 17 15 14 12 9 7 4 5 8 11 12 16 18 20 23
50 49 45 41 41 40 40 42 45 48 52 52 50 48 45 41 37 35 32 26 20 17 11 9 7 10 10 11 12 14 15 16 15 14 15 12 10 9 9 9 11 14 17 19 21 22 22
51 48 42 40 39 38 41 44 47 50 54 53 49 46 43 40 37 35 31 25 20 17 13 11 11 12 12 13 13 13 14 14 15 15 15 13 11 12 12 12 13 16 18 21 23 25 26
49 45 42 41 37 38 42 46 49 52 54 52 48 46 43 40 39 36 30 24 20 17 14 12 13 13 13 10 9 12 12 13 15 16 16 16 15 15 15 16 17 19 21 23 25 26 29
49 43 41 41 37 40 43 47 50 54 54 52 48 45 43 41 37 34 29 26 22 19 16 13 12 14 14 14 14 16 18 19 21 21 20 19 18 19 19 21 22 23 24 26 29 30 29
47 43 40 38 37 40 43 47 51 53 53 51 48 45 42 39 36 33 30 27 24 21 18 15 13 14 14 20 20 17 17 17 20 21 22 22 22 22 23 25 26 28 27 29 32 31 33
46 43 40 37 34 39 43 46 49 53 53 52 48 45 41 39 37 36 32 33 27 22 18 18 16 17 20 22 21 20 19 19 19 22 24 25 26 26 27 28 29 30 31 33 33 34 37
47 44 40 37 38 34 41 45 47 50 51 50 48 45 43 41 40 38 35 33 28 24 22 21 18 20 22 23 24 22 22 23 23 23 23 26 28 29 29 31 33 33 34 33 36 36 38
46 43 41 38 40 36 33 41 45 48 50 50 48 45 42 41 40 38 36 34 30 26 26 24 22 21 23 24 25 25 26 27 27 25 24 29 31 31 32 34 34 37 38 38 38 41 45
47 44 41 38 38 40 37 36 37 45 47 49 47 44 43 41 40 39 37 36 33 31 29 28 27 25 27 28 29 29 29 29 29 29 29 32 33 32 35 36 38 40 40 39 40 44 47
46 43 41 38 36 37 38 39 39 40 45 46 45 43 43 41 41 40 39 38 36 35 34 34 32 31 32 31 32 33 32 32 32 33 32 34 35 36 36 38 39 42 42 43 45 51 49

GFSGBSN_500_spd_033.txt.gz
Wind_Speed
53 49 48 47 46 47 39 41 42 37 30 28 27 25 25 24 22 21 17 24 23 18 14 12 9 15 14 15 16 16 19 21 22 26 37 35 36 34 29 19 19 10 14 16 13 8 9
54 52 52 50 47 43 40 40 41 35 30 26 21 23 24 22 21 19 17 17 20 18 17 13 9 13 14 15 15 19 22 26 30 32 39 35 36 28 21 20 16 9 11 12 7 10 12
54 54 51 49 46 39 41 39 39 32 29 23 23 21 22 21 23 23 22 15 15 18 18 17 14 13 11 14 17 21 26 26 31 38 36 34 33 26 15 13 15 8 11 9 8 8 8
53 51 52 49 44 40 41 39 38 28 21 21 20 21 21 19 24 23 22 17 18 19 17 17 17 16 12 15 19 26 27 34 40 41 33 28 29 22 18 9 11 11 11 14 11 12 12
53 50 50 44 43 38 41 39 36 26 22 20 20 19 17 19 15 14 15 18 19 19 17 15 15 13 13 17 22 24 30 34 41 41 36 33 31 23 18 11 14 16 20 16 13 8 11
53 49 48 41 39 35 38 35 29 22 22 18 14 17 15 13 10 12 14 17 22 19 14 13 14 13 18 21 26 29 26 21 37 33 28 30 27 25 21 20 20 19 20 17 15 8 9
55 49 44 41 35 32 34 32 23 20 20 18 15 15 12 12 13 11 16 18 16 14 13 12 16 17 19 22 23 30 23 21 28 31 18 24 24 27 26 21 19 21 25 18 10 5 4
56 49 41 37 33 32 33 29 21 21 21 18 19 14 13 14 11 9 14 15 15 15 17 17 17 19 20 19 23 24 26 23 24 26 27 28 28 28 23 18 18 15 10 14 3 3 8
54 43 41 32 32 30 32 26 23 22 22 18 17 14 15 16 16 14 16 17 19 17 18 19 20 20 20 20 24 26 26 29 29 31 29 27 26 26 20 14 15 15 13 10 8 10 11
49 41 38 34 32 28 33 25 25 23 22 18 12 10 19 19 17 18 16 17 18 19 20 19 22 22 21 23 23 24 25 26 25 21 20 21 18 15 16 14 12 14 13 13 13 14 18
51 43 40 37 32 30 34 26 27 25 24 21 15 14 16 22 15 16 19 23 25 25 25 25 24 24 24 23 23 23 21 21 18 17 17 16 13 14 16 15 12 10 11 12 14 16 18
56 52 50 38 35 33 34 29 29 28 27 23 18 12 13 22 22 23 27 28 28 28 25 26 25 24 23 22 20 20 20 19 17 15 14 18 15 14 14 11 10 10 11 14 18 20 24
65 60 52 42 41 38 35 32 32 31 29 25 25 16 17 26 29 32 31 29 28 28 26 25 24 22 20 19 18 17 15 15 15 15 17 19 16 15 14 12 12 13 15 15 15 15 18
66 59 55 48 45 38 38 35 32 34 30 26 29 20 27 35 36 34 31 30 29 27 26 25 23 20 18 16 15 16 16 15 14 15 16 17 15 13 12 10 8 8 8 9 10 10 12
65 60 53 46 41 40 39 37 35 36 32 30 27 26 38 40 38 35 32 31 31 28 26 23 21 18 16 15 14 13 14 15 16 15 15 14 13 12 9 8 7 5 4 2 5 8 10
65 56 49 44 41 44 39 38 38 37 33 34 30 36 44 43 40 38 34 32 29 28 24 22 17 15 14 13 13 14 16 16 16 14 14 13 12 10 10 9 9 7 2 1 4 7 10
63 56 50 44 47 42 39 40 39 37 36 35 38 46 47 44 41 38 36 33 28 26 22 20 16 14 14 15 16 17 17 14 15 15 15 16 13 12 12 11 8 5 2 2 5 8 13
61 54 48 49 45 43 40 42 40 37 39 40 44 50 47 44 43 39 36 31 25 25 21 16 12 11 12 13 13 14 17 17 18 17 17 16 13 14 13 9 8 7 6 7 10 13 16
60 53 48 49 46 42 41 43 40 39 40 44 51 52 48 45 42 39 37 32 26 22 18 13 9 8 12 13 13 16 17 18 20 20 19 17 16 15 12 10 9 10 12 13 14 15 16
58 53 47 45 45 44 43 43 41 41 44 48 54 53 50 45 42 39 36 32 27 22 17 12 8 9 11 14 15 17 17 18 20 19 18 18 17 14 14 12 12 14 14 15 17 18 19
53 46 44 48 46 44 44 43 41 44 48 53 56 52 48 45 42 39 37 31 25 22 17 13 10 9 11 12 14 14 15 17 19 18 18 19 18 16 15 14 15 17 18 19 20 21 23
49 46 52 47 45 45 45 43 42 47 52 55 55 52 48 43 41 39 36 31 26 23 17 13 11 8 12 11 13 16 16 17 18 19 19 21 20 19 18 18 19 19 21 24 24 24 27
45 43 44 47 45 45 44 42 44 49 55 57 55 51 48 46 43 42 35 29 26 23 17 14 13 10 13 15 16 16 18 20 20 22 23 23 24 24 22 23 24 21 24 27 27 27 30
47 32 45 43 46 43 42 43 46 50 55 56 54 51 49 45 43 39 35 31 28 24 20 17 14 12 15 17 20 18 17 17 19 21 24 25 26 27 27 28 29 26 27 30 31 30 31
37 40 41 45 42 39 41 43 46 52 56 56 54 50 48 45 41 40 36 32 29 26 20 18 17 14 17 21 21 20 20 19 20 21 24 26 29 31 32 31 34 29 30 33 35 33 35
37 44 43 38 41 36 39 42 47 53 54 53 53 50 47 45 44 41 37 35 31 27 22 21 20 17 17 21 21 22 23 22 23 23 24 26 29 32 33 36 37 31 34 36 37 36 37
45 43 41 37 35 35 38 42 47 52 50 51 51 50 46 44 44 39 36 36 32 28 24 24 23 21 20 18 20 23 25 25 24 24 23 28 31 34 35 38 38 34 38 39 40 42 40
45 43 39 38 30 31 36 40 45 46 47 50 49 48 47 45 41 39 38 36 32 31 29 27 26 25 25 24 23 24 27 27 27 27 28 31 34 33 36 38 39 37 40 40 43 43 43
46 42 39 40 34 28 31 36 41 44 44 46 48 48 46 44 42 40 38 37 36 34 33 32 30 29 30 29 29 29 30 30 32 33 33 34 35 36 36 37 39 41 43 44 46 46 46

GFSGBSN_500_spd_036.txt.gz
Wind_Speed
54 52 52 49 46 46 47 44 44 43 43 40 42 39 31 22 21 22 21 20 20 22 21 16 12 11 12 16 16 15 14 13 13 16 21 25 27 27 27 26 26 26 9 5 5 2 1
54 52 48 49 48 45 45 46 44 43 42 40 42 37 27 22 20 21 21 18 17 20 22 17 12 9 16 17 15 15 13 14 12 15 24 28 28 29 29 28 28 16 10 6 5 2 2
53 53 49 47 47 46 45 43 44 44 42 40 40 32 22 20 20 21 20 20 19 16 18 18 14 9 13 13 14 12 12 15 16 29 30 32 27 24 25 12 11 8 9 12 7 7 10
55 53 50 47 45 43 44 42 42 42 40 38 37 26 20 21 20 22 20 23 21 17 17 18 18 14 13 13 13 14 17 20 23 37 28 26 22 19 9 10 10 5 7 7 4 8 11
55 52 49 47 43 41 40 40 40 39 35 36 33 23 20 20 19 20 20 19 20 18 18 18 17 17 13 15 15 16 22 25 31 35 24 24 21 16 13 8 9 7 11 6 8 13 14
59 56 52 47 43 39 37 37 37 34 33 34 27 19 16 20 19 17 17 16 19 19 20 15 15 18 16 18 18 21 25 31 35 31 23 21 21 20 17 9 8 9 14 14 15 16 17
64 61 57 51 44 38 35 34 35 32 33 30 22 18 18 17 15 14 12 13 15 17 14 12 12 15 16 18 20 28 31 34 34 29 24 19 19 17 13 12 10 15 18 16 17 15 14
69 64 59 53 47 39 35 31 31 31 32 27 21 18 20 15 14 11 12 13 14 14 15 13 16 16 16 17 24 30 34 35 33 30 21 16 19 18 18 19 18 20 23 20 14 10 10
74 69 61 54 49 41 36 31 30 31 31 25 20 20 21 17 13 7 5 11 15 14 15 16 17 16 16 16 18 25 32 31 28 31 29 23 26 28 28 24 23 22 23 22 18 13 11
81 75 61 55 49 42 36 30 31 31 28 24 21 21 16 17 14 10 13 12 14 13 16 19 20 19 17 18 20 22 27 28 25 31 29 24 28 28 23 17 11 17 18 18 13 12 14
71 65 61 56 49 44 38 33 32 32 27 25 23 21 15 17 16 15 14 17 15 17 19 19 20 21 20 20 24 26 27 29 28 25 22 21 20 20 19 17 14 13 13 12 13 14 16
59 58 58 55 51 45 40 36 34 33 28 27 26 23 15 20 20 13 19 18 21 20 20 22 24 24 23 23 23 25 24 24 21 21 19 18 17 15 15 15 14 14 14 14 15 17 20
55 61 58 59 55 50 44 40 36 36 30 29 29 21 16 20 25 17 23 26 26 24 22 22 22 23 23 22 22 22 21 19 18 17 15 15 17 14 16 15 15 14 15 16 17 17 16
65 56 69 69 67 60 53 47 38 37 34 33 30 21 17 23 25 26 30 30 28 25 25 25 23 22 22 22 20 19 17 16 15 16 16 16 16 16 16 15 15 15 14 12 11 11 11
65 61 70 72 67 61 55 51 44 38 37 37 31 28 23 28 31 35 33 31 29 26 26 24 23 21 19 19 16 15 14 15 16 16 17 16 17 15 14 13 12 11 9 7 6 6 6
61 65 65 71 61 55 50 45 43 41 41 39 33 33 30 33 39 38 35 32 29 26 26 24 21 18 16 15 14 13 14 14 15 16 15 15 16 15 15 13 12 10 8 5 4 3 3
80 59 65 68 60 50 45 42 42 43 43 40 37 39 35 41 43 39 35 30 30 27 26 24 20 18 15 14 14 14 14 14 15 15 15 16 14 14 15 13 12 11 8 6 5 6 10
68 58 60 63 58 49 44 43 41 44 43 41 42 40 41 48 45 40 35 32 30 28 26 22 19 15 14 15 15 15 15 16 16 16 16 17 17 17 16 15 14 12 10 8 10 13 14
60 61 59 59 52 46 44 42 42 44 42 41 44 42 48 50 46 41 36 33 30 26 23 21 17 13 13 13 12 15 17 18 18 18 18 18 19 18 17 16 14 12 11 12 15 16 17
59 69 60 56 49 45 42 41 42 43 42 43 46 47 52 50 45 42 36 33 28 25 23 18 12 10 10 10 13 16 17 18 19 20 20 21 19 18 18 18 16 14 14 15 17 19 19
68 64 62 54 50 45 43 41 41 41 42 45 49 52 53 50 47 42 38 35 28 25 22 15 12 10 9 13 14 15 16 16 18 19 20 20 20 21 20 19 18 18 18 18 20 22 24
63 62 58 51 48 44 42 41 40 42 41 46 51 54 54 49 46 41 38 36 31 25 19 15 13 9 8 12 14 16 16 16 18 19 21 21 22 23 23 22 23 22 20 22 24 26 27
58 58 54 49 44 43 43 41 40 40 41 48 53 56 54 49 46 43 37 34 29 24 21 17 13 10 10 13 14 15 16 17 18 20 21 22 23 26 26 26 28 25 22 28 29 30 32
56 51 46 45 41 39 46 39 39 40 42 47 54 57 54 50 47 41 37 33 29 26 22 19 16 12 11 14 17 17 15 15 16 18 21 23 25 27 28 30 34 26 28 32 35 35 35
48 47 40 41 47 39 44 39 39 39 44 50 55 55 53 50 46 42 38 34 31 28 25 22 18 15 13 13 18 18 18 18 16 17 20 23 26 30 32 32 35 33 33 37 38 38 38
45 46 38 38 41 39 39 37 38 41 45 50 53 52 52 49 46 43 38 34 32 29 25 23 20 18 17 16 17 19 19 20 21 20 22 25 27 29 30 34 35 33 35 38 42 41 41
40 36 34 32 42 39 34 37 40 43 45 49 51 50 51 49 46 43 40 35 33 30 29 27 24 20 18 17 16 15 18 21 23 23 25 28 30 31 32 36 37 35 37 40 42 43 45
36 28 34 39 33 33 37 39 40 43 45 48 47 49 48 50 45 42 40 36 34 32 30 29 27 25 23 21 20 19 18 18 19 21 24 28 32 31 34 37 39 38 39 41 44 45 46
31 37 37 33 33 36 38 37 39 40 39 42 47 47 47 47 45 42 39 37 36 35 34 33 30 28 26 25 25 25 26 25 25 27 27 31 33 37 38 38 39 42 44 45 45 47 48

GFSGBSN_500_spd_039.txt.gz
Wind_Speed
50 51 52 50 48 45 43 41 41 38 40 38 41 41 42 40 38 27 21 21 19 17 17 18 17 15 12 13 12 13 12 9 11 11 10 15 17 25 23 22 18 15 16 15 14 13 19
53 52 50 50 46 44 41 39 38 38 38 38 40 39 41 40 32 23 21 20 17 17 17 19 18 14 13 11 11 11 11 9 9 8 19 23 26 26 21 19 16 15 15 1 8 10 8
54 54 51 50 48 45 42 40 37 37 37 37 39 38 37 37 26 21 22 19 18 21 18 17 17 16 11 14 12 11 9 10 8 19 28 26 25 25 22 15 14 13 13 11 8 6 6
55 53 52 50 47 43 41 40 38 36 34 33 37 35 36 31 22 23 21 20 18 21 19 16 17 17 13 9 11 11 11 10 19 26 28 23 25 20 14 13 7 6 7 9 6 8 8
54 53 50 47 45 42 40 36 34 33 32 32 35 33 33 25 20 21 18 19 20 21 18 15 18 17 13 11 13 12 12 16 26 24 27 26 20 17 14 13 10 8 8 5 8 11 10
55 54 51 50 46 43 39 33 29 28 30 30 32 33 29 21 20 20 17 15 18 16 18 16 17 16 15 14 16 12 13 21 27 24 21 19 17 17 13 9 7 10 7 8 13 13 13
62 57 54 52 49 45 41 37 31 28 28 29 29 32 27 20 18 17 15 16 15 14 17 16 15 16 15 16 17 16 18 26 29 24 19 21 21 19 14 10 7 13 16 13 16 14 12
69 64 60 56 53 49 45 40 33 30 27 27 28 30 25 20 17 14 14 13 12 10 14 15 14 13 15 17 16 19 23 25 29 23 19 18 17 16 17 9 12 14 19 15 12 8 9
67 62 63 62 58 52 47 42 37 32 28 26 27 28 24 18 16 12 10 9 12 13 15 15 15 15 16 17 20 26 28 29 29 25 18 16 11 11 12 14 15 15 19 18 15 13 13
70 67 63 62 61 57 53 45 40 34 29 26 27 27 21 18 16 13 11 11 12 12 14 15 16 16 16 16 17 22 26 29 29 27 20 19 14 17 18 18 19 15 17 19 20 20 16
77 72 70 66 64 58 55 49 42 37 30 29 28 27 21 17 12 16 17 13 11 13 15 18 18 19 18 17 18 22 25 30 29 28 26 23 23 23 23 22 18 12 16 16 17 19 19
85 78 71 71 67 64 59 52 44 41 34 32 30 26 22 17 15 19 19 11 18 16 17 17 20 19 18 18 19 21 24 26 29 30 25 25 20 19 20 19 17 14 13 14 14 15 16
89 82 76 65 68 68 56 52 48 45 41 37 33 27 24 20 18 23 20 20 20 17 17 20 20 21 21 19 20 21 23 23 23 22 20 19 18 16 17 17 16 16 15 16 17 17 14
85 77 68 61 60 63 59 56 55 51 46 41 36 31 26 24 22 25 23 24 22 22 21 21 22 22 21 20 20 20 20 18 18 17 16 16 18 17 15 14 17 16 17 17 15 10 7
89 81 67 55 56 62 62 64 62 60 53 47 39 35 31 27 26 30 26 27 26 27 26 24 23 21 21 21 20 18 18 17 17 17 19 19 18 16 16 16 17 17 16 11 9 5 2
89 76 56 57 60 59 69 72 70 62 52 47 43 38 32 29 30 33 30 31 31 29 27 25 22 20 18 17 17 16 17 18 17 18 18 17 17 17 17 18 17 15 12 9 7 4 3
70 62 61 61 67 65 74 72 66 57 50 50 48 45 40 34 36 37 36 35 34 30 27 24 21 19 17 17 16 15 15 14 16 18 18 17 18 17 18 17 15 13 11 10 8 6 6
66 73 79 76 68 64 72 63 59 53 51 49 50 48 43 37 40 42 40 39 35 29 27 25 24 21 19 16 15 15 14 16 17 18 18 17 17 15 15 16 16 15 14 12 12 11 11
91 82 75 72 70 60 65 60 52 49 47 48 50 47 45 40 42 46 43 39 34 30 28 25 21 17 15 16 16 18 18 18 18 17 16 17 16 16 16 16 16 16 16 16 16 15 13
100 85 81 71 69 68 55 51 49 46 48 49 50 47 47 42 46 46 43 39 33 29 27 23 19 17 15 14 16 17 18 18 16 17 17 17 17 17 17 18 20 19 19 17 17 17 18
88 88 65 67 73 67 56 50 48 48 49 49 51 49 46 44 52 49 44 38 33 29 27 21 19 14 11 11 11 12 14 16 16 18 18 19 18 19 20 21 22 20 19 19 19 21 23
79 72 73 68 64 58 53 49 47 49 48 49 49 49 45 46 51 50 46 40 33 29 27 23 17 12 7 9 14 14 15 14 14 15 16 18 19 22 22 23 24 23 22 21 23 26 28
70 73 58 67 60 56 50 48 48 47 46 46 45 48 45 51 53 51 44 38 34 29 27 21 15 9 8 10 13 14 14 14 12 13 15 17 20 22 24 26 28 27 23 27 29 30 33
61 55 66 58 56 53 49 47 44 42 43 44 40 46 47 54 54 49 43 38 35 30 24 21 16 11 10 11 12 14 13 11 12 13 15 17 21 24 25 28 31 25 27 31 35 36 38
56 68 60 57 54 48 45 45 40 41 40 42 41 44 49 54 53 50 44 41 36 30 26 22 18 14 12 11 11 14 13 13 12 13 14 17 20 23 27 28 29 28 30 33 37 38 41
65 61 57 55 49 44 43 42 38 39 39 38 43 42 50 53 53 49 45 40 35 30 27 23 20 17 14 14 12 10 14 14 16 16 18 20 22 24 26 28 29 27 29 33 36 37 39
62 57 53 48 45 42 39 41 38 38 39 37 41 41 44 52 52 49 45 39 33 31 29 25 23 20 18 15 13 12 11 12 16 17 20 23 26 27 27 30 30 31 32 35 38 42 44
54 50 46 43 42 40 35 43 37 37 36 35 36 39 44 50 50 47 43 39 34 32 29 27 26 23 22 19 17 16 15 15 14 15 17 21 24 25 27 30 35 36 37 40 42 44 45
47 42 39 39 38 33 30 39 36 36 34 32 36 39 43 49 48 45 43 39 35 34 31 28 28 27 25 22 21 21 21 20 20 22 23 25 27 29 29 31 36 40 42 44 44 45 46

GFSGBSN_500_spd_042.txt.gz
Wind_Speed
48 46 47 46 46 44 46 44 40 36 33 30 29 31 35 35 37 36 39 33 22 23 19 17 16 17 15 14 15 11 10 9 10 11 13 11 18 15 17 20 15 12 18 16 14 18 17
49 47 46 47 46 47 46 42 39 36 33 30 30 32 32 34 35 34 38 25 23 20 20 18 15 18 15 15 12 8 9 11 11 9 11 15 20 22 22 19 18 18 11 10 17 19 18
50 48 47 47 47 45 43 41 39 37 33 32 30 31 29 32 32 34 33 22 23 21 22 21 16 14 17 14 11 9 11 11 8 12 18 24 23 24 23 18 13 11 5 5 11 15 11
52 51 49 49 48 46 42 40 38 34 31 30 28 27 29 32 31 35 27 21 21 19 20 19 15 14 16 11 12 10 10 7 12 21 26 23 23 20 15 12 10 11 9 7 10 6 6
55 54 52 50 48 43 40 38 36 32 30 27 24 23 27 29 31 31 21 21 20 18 17 16 15 14 13 11 10 11 9 10 18 28 26 22 21 19 23 13 8 3 8 7 7 10 11
59 55 54 51 47 43 40 37 34 30 26 24 22 23 26 26 30 24 19 20 16 17 15 12 14 14 12 12 11 11 10 15 19 26 28 19 16 16 14 13 7 7 12 10 12 13 11
62 61 55 52 48 46 44 41 37 33 29 26 23 22 25 26 27 18 19 17 17 14 12 15 14 13 13 14 13 14 14 20 22 18 13 21 20 15 15 11 10 13 12 10 12 10 8
62 60 59 54 50 50 46 43 41 35 31 29 25 24 23 26 23 16 18 17 14 13 11 13 12 11 15 17 15 17 17 22 20 22 22 15 17 17 18 12 9 7 16 14 13 7 4
66 63 61 59 55 52 50 46 42 38 33 31 29 24 25 24 19 16 19 15 12 11 10 11 13 14 15 15 17 21 21 22 16 20 19 19 18 18 16 15 9 11 16 16 12 8 7
71 68 65 63 59 57 51 48 45 42 37 35 31 28 26 24 18 16 17 13 8 10 12 15 14 15 17 17 19 23 26 28 24 22 22 19 13 12 11 11 13 11 11 15 13 11 10
75 73 69 65 61 57 52 50 47 45 41 36 34 31 25 24 17 16 18 13 9 10 14 16 17 17 16 19 19 23 24 28 24 25 16 15 15 10 11 14 14 14 11 13 13 14 15
79 75 72 68 62 58 55 51 50 49 47 45 40 36 30 23 20 18 18 14 14 14 16 14 14 16 17 18 19 21 24 24 27 26 23 22 17 17 17 18 17 15 11 11 15 15 17
80 78 73 72 68 62 56 53 50 49 48 47 43 39 33 26 25 21 20 19 19 16 15 14 14 17 18 18 19 21 23 25 25 26 26 24 23 20 16 15 16 16 16 14 15 17 16
82 79 76 73 68 65 62 58 54 49 51 48 47 43 38 31 29 26 23 24 22 17 17 15 18 21 20 20 18 19 23 23 24 23 20 19 19 17 15 17 18 18 15 16 17 17 17
92 87 83 78 74 69 65 62 57 55 52 52 54 52 42 37 32 30 25 27 19 23 19 18 22 23 22 21 19 19 19 18 17 16 19 17 19 19 20 19 18 16 17 17 18 13 11
98 93 89 85 78 72 66 62 62 60 57 62 59 55 45 42 36 33 27 24 24 26 23 22 22 23 22 20 18 18 17 16 16 17 18 19 20 20 20 21 20 19 17 15 12 11 8
99 98 94 88 79 69 61 57 63 63 61 67 63 57 51 47 42 38 30 28 28 29 28 27 25 21 18 17 16 16 16 15 17 18 19 20 20 20 21 21 20 19 15 13 13 11 10
99 97 94 89 78 67 61 59 61 65 69 70 66 60 56 54 48 38 36 34 33 35 33 29 25 24 21 18 17 16 15 18 20 21 22 21 21 21 21 20 21 19 16 16 15 14 13
77 87 92 87 76 67 60 65 65 68 72 73 64 61 58 55 45 40 40 38 39 40 36 31 27 25 21 20 19 18 18 18 20 21 22 21 21 19 19 17 15 15 17 18 17 17 15
67 72 74 77 77 62 70 77 74 74 74 65 59 59 57 53 46 39 41 43 43 40 36 32 28 24 21 20 19 20 20 21 21 20 20 20 19 17 16 17 17 17 20 21 21 19 20
62 68 75 78 75 76 78 68 71 69 65 60 60 59 57 55 49 43 42 45 45 40 36 31 28 24 20 18 17 19 19 19 19 19 19 19 18 18 17 18 19 19 21 22 22 22 23
61 71 90 94 98 81 87 73 65 68 60 60 58 58 59 50 46 45 48 49 45 39 33 30 25 22 18 15 15 16 16 15 14 15 17 18 18 20 20 19 20 22 23 24 24 25 26
64 80 91 97 85 84 83 77 66 71 58 54 55 57 57 49 49 49 52 49 45 38 34 31 26 22 16 12 12 14 14 14 14 14 15 15 16 19 19 21 24 23 21 26 28 29 32
71 85 78 74 77 74 81 70 79 55 51 54 54 54 56 51 48 50 52 49 43 38 34 32 27 21 15 11 11 13 15 14 14 14 13 13 15 18 18 23 26 21 24 28 32 33 36
84 88 72 74 63 65 68 59 62 57 53 51 50 52 52 49 47 52 53 50 44 39 37 33 27 21 15 11 9 10 14 14 13 14 13 14 15 18 20 22 25 25 25 29 34 34 37
60 54 54 54 71 63 60 57 56 52 50 49 49 46 47 48 47 53 54 50 45 41 38 31 26 21 17 12 9 9 9 14 16 15 15 16 18 19 19 22 24 24 26 29 32 34 35
63 64 60 66 63 59 58 55 52 49 48 46 47 44 47 47 48 53 54 50 46 42 36 30 26 23 19 14 11 10 10 9 13 15 17 19 21 21 23 25 24 26 27 28 31 35 38
70 75 65 65 62 59 55 50 47 45 46 45 44 43 46 46 49 54 54 50 46 41 36 31 28 23 20 18 16 13 12 11 11 12 14 16 17 18 21 24 28 29 32 34 36 38 40
67 67 65 61 57 53 49 45 43 43 43 40 43 41 43 44 47 51 51 49 44 41 34 32 29 27 24 23 19 18 17 16 15 16 18 20 22 24 26 28 33 36 38 39 41 42 43

GFSGBSN_500_spd_045.txt.gz
Wind_Speed
51 48 46 45 44 43 42 42 41 40 39 36 33 30 28 27 29 28 32 32 35 32 28 25 21 19 19 19 18 14 13 10 11 12 13 13 15 16 18 15 15 18 17 21 23 15 16
52 50 48 46 45 45 43 42 41 40 38 35 32 30 28 25 28 28 29 31 35 28 27 23 23 20 18 18 15 13 8 12 14 12 12 14 16 18 17 18 16 17 21 20 19 17 18
52 50 48 47 46 46 45 44 41 39 37 34 31 28 25 25 26 27 29 29 31 26 24 21 21 20 20 16 13 10 11 13 11 10 11 11 13 15 14 18 19 21 16 13 21 25 18
53 50 49 49 46 46 45 44 41 38 36 33 30 25 23 22 25 26 27 29 27 25 22 20 18 18 16 11 12 13 12 10 8 8 10 22 22 22 21 19 23 21 8 9 11 12 14
55 53 51 50 50 47 46 44 42 39 35 32 28 23 20 22 23 25 25 28 24 23 20 19 17 16 11 10 11 10 11 8 10 16 25 25 25 26 21 9 6 5 3 5 11 9 10
60 57 55 52 52 50 48 45 42 38 33 31 26 22 20 21 23 23 24 26 23 23 22 19 17 15 13 10 8 11 10 10 14 22 25 19 15 11 15 14 6 7 8 9 4 7 10
64 62 59 57 55 54 50 46 42 39 36 30 26 24 22 22 22 23 23 23 21 21 23 16 15 15 12 11 10 10 11 13 16 24 24 20 24 15 14 13 1 3 8 9 9 8 8
69 66 61 58 56 55 52 48 44 42 38 34 30 28 24 23 23 24 22 21 21 23 20 12 10 13 12 10 11 12 15 17 16 15 32 14 14 9 13 10 4 6 7 14 9 6 6
71 69 65 61 58 55 57 52 48 47 43 38 33 30 28 27 25 25 21 18 21 18 14 7 6 6 8 12 14 14 18 21 21 16 20 16 15 17 18 11 7 10 8 16 7 7 5
73 71 68 63 61 59 55 51 48 47 44 40 35 32 32 29 28 25 21 17 19 16 12 9 7 9 10 14 14 19 22 23 22 11 15 8 18 16 20 8 6 7 6 11 12 8 8
78 75 71 66 63 61 57 52 49 47 44 41 38 34 36 33 33 25 21 17 17 14 13 10 11 11 15 15 18 17 23 24 18 14 17 4 12 12 7 11 6 13 4 8 7 8 14
80 76 75 71 66 63 59 55 51 47 43 41 40 39 38 38 36 29 24 18 16 17 16 10 11 12 15 16 16 21 22 28 26 23 15 21 16 15 14 13 11 10 11 7 10 9 14
82 80 77 74 70 66 61 58 53 50 48 43 43 42 44 42 39 32 27 19 20 21 16 13 10 8 11 13 15 19 24 23 25 19 17 16 13 18 18 15 12 13 12 9 9 11 11
85 83 80 78 74 68 63 60 56 53 51 49 47 48 49 46 42 36 29 22 24 19 17 12 11 11 12 13 16 20 24 22 27 21 14 15 16 20 16 12 8 10 12 12 13 10 8
86 82 81 80 76 72 66 62 60 57 56 56 53 53 52 50 45 40 33 25 23 20 21 14 16 14 15 17 18 20 19 21 21 21 23 12 19 19 13 14 14 16 16 18 17 17 18
93 87 81 79 77 73 70 67 64 62 59 56 53 53 55 53 49 43 37 31 24 27 25 19 17 16 17 18 20 20 18 20 23 19 19 17 17 21 16 18 19 20 19 17 18 18 12
98 94 88 82 78 76 72 70 69 66 63 59 56 55 57 56 54 48 41 35 28 28 27 22 19 19 19 21 21 19 17 18 17 17 17 17 17 19 19 19 17 20 20 19 20 17 14
102 99 94 89 84 80 77 74 72 68 66 60 60 61 60 60 57 48 45 39 33 31 30 26 23 22 21 21 20 18 17 16 17 16 16 20 20 23 18 23 21 23 21 20 20 18 17
101 99 99 95 88 86 81 78 73 70 65 62 63 65 61 61 56 54 50 41 38 37 35 30 27 26 25 23 21 20 20 19 18 19 22 19 22 23 25 22 21 20 19 19 21 21 19
81 92 95 96 96 90 85 79 76 71 67 65 69 66 62 59 56 56 53 47 42 40 40 35 32 31 27 24 23 21 20 18 18 20 21 23 24 24 24 17 19 17 19 20 23 24 19
67 73 84 95 94 93 86 78 73 70 70 75 73 66 60 60 60 58 54 43 43 42 42 38 36 32 27 25 22 21 20 20 22 23 24 24 24 24 23 23 21 20 20 21 23 21 25
63 69 78 83 89 93 88 79 70 75 79 72 65 68 68 54 61 60 57 45 47 43 43 39 37 31 28 24 21 22 22 22 23 23 23 22 24 23 23 22 22 22 21 20 22 23 25
55 58 59 71 83 86 81 74 83 83 83 76 70 66 68 65 63 61 54 46 49 42 44 41 35 33 30 27 22 21 21 20 19 18 19 21 22 23 24 22 24 21 18 21 24 25 29
51 52 57 68 85 88 78 79 83 79 71 69 69 64 61 66 59 57 54 48 50 50 43 40 37 34 28 25 22 20 19 19 18 18 19 19 20 21 20 21 23 18 21 23 26 28 32
45 51 61 75 90 94 88 86 73 71 74 76 70 69 58 55 53 57 54 48 48 39 46 42 37 31 30 26 21 17 15 17 18 18 19 19 18 19 19 20 21 20 23 25 28 29 36
38 44 64 83 102 97 90 80 84 82 71 67 61 52 54 60 59 57 53 51 52 54 47 43 39 35 31 25 19 15 13 14 19 18 18 18 18 19 18 20 22 21 23 26 29 32 33
36 48 71 92 93 82 88 85 83 77 65 62 61 61 60 56 52 52 52 50 52 53 47 44 41 37 31 25 20 16 14 13 14 17 18 19 20 20 20 22 23 24 25 25 26 30 31
42 56 77 83 73 79 82 68 64 69 58 53 54 54 53 54 55 47 53 51 55 52 47 45 42 37 31 26 22 17 14 13 12 13 15 17 18 17 19 21 23 22 25 27 30 33 36
71 72 89 75 58 72 64 62 61 66 65 59 51 49 49 49 47 45 49 53 54 52 46 44 40 34 30 30 24 21 17 15 15 16 15 17 17 19 20 25 26 29 31 33 36 38 41

GFSGBSN_500_spd_048.txt.gz
Wind_Speed
53 54 53 50 47 45 43 41 40 38 37 37 37 36 33 29 25 24 25 26 28 29 33 33 32 28 26 20 23 17 17 17 12 8 9 12 10 9 14 8 9 14 21 26 18 20 15
54 54 54 52 48 46 44 41 40 38 38 38 37 35 32 27 25 23 24 25 28 29 32 32 30 26 24 21 20 15 14 13 11 12 10 11 12 14 16 11 8 14 24 25 29 25 16
57 55 54 53 51 47 47 43 40 40 40 39 37 34 29 28 23 21 22 24 27 29 31 32 27 25 20 20 17 9 11 11 12 11 11 11 12 12 13 18 21 24 21 19 23 21 16
59 58 56 54 52 48 48 45 43 42 41 38 35 33 29 26 22 21 21 23 25 28 29 30 26 24 21 18 13 10 9 10 10 10 9 8 10 13 17 17 17 24 18 11 19 21 18
60 58 56 55 53 50 49 46 44 42 40 37 35 32 29 25 21 21 22 22 23 27 29 28 27 23 21 16 8 9 8 7 7 9 7 10 16 17 18 15 16 14 7 16 13 19 3
63 60 59 57 55 53 51 48 46 43 40 38 34 32 29 24 22 21 21 19 22 25 27 26 25 22 19 14 9 9 6 6 7 8 16 20 19 19 20 14 9 5 3 4 4 4 8
68 64 63 59 58 55 53 52 48 45 42 38 35 31 28 25 24 23 22 18 20 25 25 24 21 19 15 8 7 10 6 8 8 13 23 23 13 12 10 13 5 3 5 3 6 4 5
70 69 65 63 61 58 55 52 51 47 44 40 35 33 30 28 26 25 23 20 19 23 23 21 14 8 9 4 6 9 7 10 5 11 16 14 16 11 11 6 2 3 9 7 10 8 5
72 71 68 65 63 62 58 56 53 50 47 42 38 36 34 31 29 28 25 22 20 24 21 18 12 8 2 5 5 10 11 12 7 14 18 25 11 15 9 3 4 3 12 24 22 12 6
74 72 71 68 65 62 60 57 56 54 48 44 41 39 38 34 31 30 28 23 22 25 22 17 12 9 6 7 7 8 16 14 12 13 13 11 13 20 15 12 8 13 16 3 11 4 7
77 74 72 71 66 64 60 57 57 54 53 49 45 44 41 36 36 33 28 25 24 24 21 19 13 15 10 9 8 11 11 12 11 15 15 4 7 15 7 12 10 14 15 8 7 11 20
79 76 73 72 68 64 63 59 55 56 53 50 48 45 43 40 40 35 34 27 27 26 20 17 16 12 9 11 9 12 15 14 15 17 4 21 13 9 22 14 11 14 8 2 3 7 14
85 80 76 73 70 65 63 60 57 56 54 50 46 44 43 42 42 37 36 33 29 31 18 20 16 12 7 9 9 13 13 16 15 21 14 15 14 16 16 16 14 15 11 8 18 12 6
88 85 81 77 73 68 64 61 59 58 54 51 47 43 45 45 43 43 39 35 32 30 23 22 13 11 6 7 8 10 15 16 15 23 7 16 8 7 13 15 16 13 8 16 9 6 9
91 87 85 82 76 73 66 63 59 59 56 51 48 44 42 47 47 45 44 38 35 28 23 24 16 13 8 10 10 9 14 15 15 20 20 23 23 23 14 14 16 3 10 16 13 13 11
98 92 88 83 80 77 72 65 63 60 58 52 49 47 48 50 50 49 47 40 39 30 29 22 20 14 12 12 14 13 15 16 14 15 24 24 28 16 10 11 13 13 14 11 14 15 12
103 98 93 87 82 78 75 71 66 63 58 55 53 51 52 53 54 51 44 40 40 35 32 29 21 18 15 13 17 15 16 16 22 26 28 30 12 14 8 14 14 14 16 17 16 15 13
105 101 96 92 86 80 76 74 70 65 63 63 59 55 52 54 54 49 44 44 42 37 37 30 26 23 20 21 19 17 17 15 17 18 21 20 18 24 13 19 14 16 17 19 19 17 22
108 101 99 93 88 84 79 76 73 68 67 65 56 57 56 57 53 49 47 46 46 41 41 32 30 24 23 21 17 18 18 24 22 21 21 24 20 19 16 16 12 16 19 22 23 25 21
86 95 101 98 92 88 83 77 74 72 71 68 68 68 65 55 52 50 48 47 48 45 41 35 31 28 28 27 26 24 25 23 17 22 20 21 18 20 20 16 19 20 19 22 23 24 18
70 80 90 98 95 90 86 81 76 75 74 75 73 69 63 57 53 52 50 50 49 47 44 38 35 34 32 29 27 26 25 21 22 20 21 21 20 21 23 23 25 21 22 19 22 21 23
64 78 83 87 94 93 89 85 80 77 78 78 72 67 61 57 56 53 46 45 49 47 45 38 40 36 35 31 27 25 25 22 22 22 23 24 24 27 25 24 27 23 24 22 22 21 23
51 66 78 85 88 90 93 88 84 83 83 78 67 65 62 60 57 52 43 47 48 47 45 38 38 37 35 27 26 30 25 25 24 23 24 23 24 25 24 26 27 25 22 23 22 23 24
45 64 68 78 87 87 89 91 89 87 83 68 66 65 59 61 56 50 52 50 51 47 38 38 43 39 38 34 29 27 25 23 23 22 21 21 22 23 23 26 28 22 23 23 23 24 27
47 66 67 64 76 90 89 90 91 86 81 75 70 66 61 52 55 59 58 53 52 46 45 38 44 47 45 38 32 26 25 24 23 23 22 22 23 22 23 24 22 22 22 21 23 25 31
44 62 57 56 67 84 93 88 86 88 82 75 73 65 55 61 53 52 57 54 49 49 53 38 47 47 42 38 33 29 24 21 24 21 21 21 21 22 21 22 23 22 20 21 23 27 28
44 51 49 49 54 65 91 91 86 83 78 74 67 60 57 64 55 51 58 54 49 54 47 53 47 48 44 38 35 29 25 22 22 17 20 21 21 21 21 22 21 24 18 23 25 27 27
40 44 48 46 51 65 88 93 86 82 76 73 62 51 64 52 41 55 50 52 55 53 53 48 56 49 45 40 35 28 25 20 19 15 16 21 22 21 23 22 23 20 22 21 23 26 29
35 38 43 49 60 77 96 99 89 77 72 75 54 51 37 19 53 46 57 59 59 58 44 30 44 42 43 41 35 30 26 22 19 17 17 17 17 17 18 20 20 22 23 24 28 32 35

GFSGBSN_500_spd_051.txt.gz
Wind_Speed
54 53 53 52 52 50 48 46 44 42 40 38 35 34 33 31 30 28 24 23 23 21 25 29 31 36 33 30 29 21 20 14 13 8 5 6 7 6 12 14 18 16 15 13 23 20 20
55 54 52 51 52 51 50 49 48 45 42 39 37 34 32 31 30 26 23 23 22 22 25 27 30 34 34 31 25 21 14 10 9 6 7 7 9 9 11 15 12 14 20 23 26 23 23
58 56 56 53 52 52 50 49 47 45 42 38 36 35 34 32 28 25 22 22 21 22 22 26 29 33 33 27 25 21 9 10 7 7 7 8 9 11 15 20 17 17 21 21 22 27 24
63 60 57 56 56 54 51 48 47 45 43 39 37 37 35 31 27 25 23 23 21 20 21 26 28 34 31 26 19 9 7 8 8 7 6 5 8 13 16 15 16 18 15 17 19 23 12
68 66 61 58 57 56 54 52 49 46 43 41 40 38 34 30 26 24 23 23 21 16 19 25 28 31 25 21 14 7 7 8 6 8 6 7 8 11 11 14 11 15 6 3 7 11 13
73 70 65 62 60 57 55 53 51 47 43 42 40 38 34 30 27 25 25 23 19 14 19 24 26 27 22 14 12 8 7 6 7 9 5 4 8 11 12 11 11 16 9 11 8 14 10
75 74 71 66 63 60 57 54 51 49 46 43 40 39 34 29 27 27 26 24 19 15 17 21 26 24 16 9 5 7 7 5 6 10 4 10 13 14 13 8 8 8 15 10 10 6 6
75 74 72 69 66 63 60 56 54 50 48 45 42 39 36 31 28 28 28 25 20 16 17 20 23 20 11 6 5 8 7 3 5 7 4 13 20 8 14 14 9 7 3 12 10 8 3
77 76 75 72 67 65 63 58 56 53 50 47 44 41 38 33 30 30 28 28 22 19 16 21 21 18 11 5 7 11 9 3 5 9 12 10 14 4 11 15 5 2 2 10 14 11 8
75 74 73 73 70 67 66 62 58 56 52 49 46 43 41 36 33 32 32 29 26 21 18 20 18 13 12 8 8 13 12 7 7 9 11 13 8 25 21 14 4 9 1 12 18 8 8
79 75 71 71 71 68 66 65 61 59 57 53 49 46 44 39 37 34 34 34 31 24 22 20 17 13 13 10 12 14 8 10 8 9 8 14 12 17 13 13 2 8 6 3 9 8 11
81 78 75 71 69 68 65 64 63 59 58 56 52 49 46 43 42 38 39 36 31 28 25 24 15 16 12 12 11 17 10 7 10 12 5 5 16 14 10 11 7 6 3 13 11 13 18
86 81 79 76 70 67 65 63 62 59 57 56 54 51 49 48 45 40 40 39 34 34 24 23 18 17 13 11 13 15 11 11 11 9 13 5 16 3 8 2 6 10 10 18 15 12 10
93 88 83 78 75 69 66 63 60 60 59 58 54 55 51 49 47 42 42 41 39 33 30 28 24 18 13 11 14 14 13 16 16 10 14 12 9 10 13 12 11 14 13 20 17 6 15
98 94 89 83 77 74 70 65 61 59 58 58 58 56 51 46 45 45 45 43 38 32 33 28 28 22 14 12 16 9 10 14 17 16 19 17 18 15 22 18 15 14 18 14 8 9 11
105 98 95 89 83 76 72 70 64 60 59 58 56 54 50 47 46 46 47 44 39 36 37 31 31 24 19 13 16 15 11 11 16 18 21 22 25 21 19 15 10 7 13 8 11 12 9
110 104 98 94 89 82 76 72 68 63 60 60 56 55 48 52 48 49 52 47 39 37 36 35 31 28 21 16 15 15 14 13 13 16 17 22 26 23 20 28 16 11 13 14 16 16 13
105 109 101 98 92 87 81 74 71 67 64 63 58 56 55 54 56 54 52 46 42 37 37 37 36 32 26 19 16 18 18 14 15 26 25 25 22 23 9 11 10 12 14 17 18 15 20
75 93 103 99 96 91 85 79 74 71 69 64 59 58 58 55 54 54 53 48 47 39 40 42 38 34 26 26 24 24 21 21 20 27 22 19 22 22 19 11 13 15 17 18 20 24 20
43 74 87 99 100 93 89 84 78 73 72 69 66 65 60 59 56 54 52 50 47 41 41 42 39 36 29 29 29 25 24 22 23 23 21 20 23 20 18 18 19 21 19 18 21 27 23
36 45 80 89 97 96 92 89 83 76 74 74 72 67 63 55 55 57 55 54 49 45 43 43 44 39 31 33 30 26 26 28 24 20 22 24 23 22 21 22 23 26 23 20 22 19 21
30 39 55 87 87 98 97 94 86 81 80 79 69 64 61 57 50 54 57 53 43 41 40 42 42 37 31 36 32 31 30 30 23 21 23 23 23 23 24 24 25 26 24 20 25 22 21
33 38 45 73 93 93 99 93 91 88 87 79 65 63 61 59 53 56 59 48 42 41 43 41 37 36 31 36 31 36 33 29 24 26 25 24 24 27 27 27 28 28 20 25 23 22 23
34 36 41 63 89 99 94 95 93 90 82 70 62 63 61 62 57 55 52 48 41 43 39 41 39 39 34 36 36 36 35 31 29 26 23 25 26 25 24 25 28 23 24 23 22 26 27
34 30 38 58 78 93 98 95 96 88 84 73 69 66 61 58 59 58 52 47 42 38 40 39 37 40 42 35 37 37 31 31 29 25 24 23 23 23 25 25 25 23 25 19 21 26 27
33 28 33 53 70 84 95 96 93 89 84 77 74 65 60 56 53 53 51 52 45 43 39 43 48 40 44 46 41 43 38 34 31 26 23 23 22 25 24 25 24 22 21 19 22 27 24
31 28 37 58 64 70 81 94 90 90 85 80 73 64 59 55 48 51 48 46 46 44 43 46 46 40 39 42 48 45 38 35 33 25 22 24 26 25 24 25 23 23 18 21 23 25 24
26 32 56 62 70 64 74 88 92 89 85 80 70 64 59 54 49 44 44 38 47 45 47 48 44 46 57 49 43 43 40 35 31 25 20 23 25 25 25 23 23 22 22 21 21 21 24
28 49 56 58 51 47 68 85 90 88 82 74 69 63 58 54 44 45 48 43 38 43 48 49 41 42 43 37 38 38 38 35 29 26 23 24 22 22 23 23 23 20 17 15 22 25 27

GFSGBSN_500_spd_054.txt.gz
Wind_Speed
59 57 57 55 53 50 49 48 46 45 43 42 39 37 36 35 32 31 29 25 23 23 21 19 22 28 30 37 39 30 21 19 9 11 6 3 6 6 10 16 21 25 25 27 20 14 17
61 61 59 57 55 53 52 50 48 46 45 44 42 40 38 37 34 31 28 24 23 23 21 19 22 27 29 37 36 26 22 11 8 5 5 6 8 8 11 18 22 25 21 15 16 22 19
66 64 62 58 57 55 53 50 48 46 46 45 43 41 38 37 34 32 29 25 23 23 20 18 22 25 28 34 33 23 17 3 6 7 5 7 7 10 12 16 19 18 14 22 22 22 19
65 67 64 63 60 58 55 55 51 47 45 44 42 39 37 35 34 32 29 26 23 22 20 18 22 24 27 29 28 18 6 4 7 7 8 9 8 8 10 15 16 18 17 18 18 17 20
67 67 66 64 64 61 59 55 53 48 47 44 41 38 37 36 36 32 28 25 23 21 20 17 22 22 24 23 24 17 8 5 6 7 9 5 6 7 8 15 14 16 8 12 14 19 11
71 70 69 69 66 65 63 58 55 52 46 45 43 39 37 37 35 31 28 25 23 21 21 16 20 20 21 21 19 13 10 5 7 7 5 2 0 7 8 13 15 10 8 11 14 14 14
71 71 71 72 70 68 65 63 59 56 51 45 44 40 38 38 35 30 29 25 23 23 22 17 18 19 20 20 16 9 12 5 5 7 1 2 2 7 10 11 14 15 17 7 9 10 10
72 73 72 71 71 71 69 67 63 59 55 50 46 42 39 38 35 31 29 28 25 23 22 19 19 19 19 18 13 11 10 9 2 5 1 5 10 13 7 10 13 20 15 11 10 6 5
74 71 72 72 72 71 69 68 65 60 56 52 49 45 41 38 36 33 31 29 24 28 25 25 21 19 18 17 12 12 11 10 4 4 3 3 8 1 10 14 14 5 2 7 8 4 2
76 75 72 72 71 72 70 66 66 63 60 56 52 48 43 40 38 35 32 31 29 31 29 25 23 17 15 15 14 14 11 11 15 2 4 5 0 7 14 12 5 6 4 6 12 11 5
79 77 75 73 71 70 71 68 65 64 62 59 55 51 47 43 40 39 37 35 33 30 32 26 22 16 13 16 14 12 15 13 14 6 3 3 13 14 18 11 4 8 11 5 10 12 11
88 83 79 76 73 71 69 68 66 67 64 61 59 54 50 48 45 44 40 38 36 34 35 26 21 18 14 16 12 16 15 13 14 6 6 4 7 21 16 13 8 5 7 6 9 15 16
96 90 85 81 78 73 69 67 66 64 64 63 60 56 52 50 50 46 41 41 39 39 31 31 25 20 16 15 12 16 14 16 19 9 12 10 22 17 16 11 11 6 7 12 13 14 13
103 98 91 87 82 78 72 69 66 64 64 63 60 56 54 51 52 48 45 44 44 39 35 34 28 24 20 17 14 14 16 19 21 18 16 15 12 19 12 16 16 12 8 14 22 20 19
107 104 98 93 87 83 77 72 68 65 63 63 61 60 56 53 54 51 48 47 44 39 35 36 34 34 26 18 17 16 15 20 25 21 19 22 20 16 13 13 19 16 14 14 18 18 15
87 100 102 98 94 88 83 76 72 67 64 64 63 60 54 54 54 54 53 47 45 40 40 41 38 38 30 24 19 17 16 20 26 24 22 20 19 18 18 15 15 16 18 13 12 16 14
55 79 96 101 99 93 87 81 76 71 68 65 63 61 58 56 59 59 53 49 46 42 43 42 38 39 30 25 20 18 16 20 25 20 21 28 24 21 18 20 19 21 15 16 17 14 15
47 51 78 94 101 98 92 87 80 76 72 69 66 63 59 64 66 62 55 51 47 43 45 43 40 39 32 26 21 21 20 21 21 25 22 23 25 20 14 17 24 24 17 18 17 15 19
45 43 52 84 94 101 98 92 87 81 76 72 69 66 64 63 60 57 56 55 50 42 45 44 40 39 32 28 26 23 21 25 23 28 24 23 25 24 19 21 16 17 23 23 20 23 23
46 40 41 61 91 100 101 97 92 85 80 76 74 72 70 66 55 52 54 55 53 39 46 45 40 40 34 30 27 27 22 27 25 27 24 27 25 25 19 17 22 24 23 21 23 24 25
50 47 39 41 79 96 103 100 95 90 84 82 81 76 68 63 56 54 56 58 58 42 47 45 44 44 36 33 29 29 26 30 30 28 31 28 29 24 22 21 22 25 26 23 25 25 25
49 46 33 37 50 97 103 103 95 93 89 88 84 74 66 58 55 54 53 52 57 47 46 48 46 41 38 33 31 27 28 27 27 28 31 31 28 26 25 23 25 27 28 25 23 24 26
45 41 28 33 37 80 102 104 100 98 96 91 81 71 66 60 58 58 53 53 55 47 47 40 40 40 39 27 29 28 30 28 27 30 29 27 28 27 26 26 27 30 26 29 29 27 29
45 42 35 27 35 54 95 105 103 100 95 86 76 70 67 64 62 56 53 52 54 48 42 39 40 41 32 29 33 31 32 32 36 35 32 28 28 29 28 28 32 27 27 27 26 26 26
43 39 35 29 33 41 78 101 103 102 95 84 78 72 66 65 60 58 55 51 47 46 46 40 42 42 38 37 36 33 33 37 41 36 32 31 28 28 30 29 28 25 25 24 25 27 27
40 39 33 32 34 39 61 92 99 100 91 85 80 74 66 63 61 59 54 52 49 47 41 44 45 43 41 40 37 39 36 36 40 36 35 32 29 29 29 29 29 23 25 25 23 26 23
38 34 35 36 34 39 55 77 95 97 91 88 83 75 66 59 60 59 56 55 50 42 42 39 40 40 40 37 38 40 38 38 41 36 32 30 30 31 30 30 29 24 24 24 25 19 19
33 34 35 31 30 37 55 69 92 97 91 87 81 74 67 62 59 58 56 54 51 47 41 40 41 43 39 39 41 41 40 42 42 38 32 32 31 31 29 28 29 24 23 23 20 23 23
31 30 28 28 28 43 58 64 88 94 90 87 81 73 66 62 56 52 52 52 46 44 44 39 37 39 40 35 33 45 39 44 40 37 35 35 31 32 28 26 26 26 23 23 21 21 22

GFSGBSN_500_spd_057.txt.gz
Wind_Speed
58 58 56 55 54 53 56 53 49 48 49 47 45 43 40 38 35 34 34 32 30 28 23 23 24 24 27 30 35 39 35 22 9 9 7 5 4 8 9 13 16 14 23 26 22 20 18
62 60 58 57 56 55 53 54 53 51 49 48 45 43 42 40 38 37 34 33 31 29 23 24 25 23 25 28 33 35 33 15 6 7 7 8 8 8 9 12 16 15 25 22 22 21 20
67 65 62 59 57 57 58 54 54 53 51 49 48 46 43 41 40 38 34 33 31 29 23 24 24 23 24 27 30 31 28 9 8 6 7 9 8 10 12 12 15 16 24 25 20 22 23
67 66 68 65 61 59 58 58 56 54 53 51 50 46 43 40 40 37 34 32 31 27 23 25 24 23 23 25 27 28 24 9 9 8 7 9 11 11 10 15 16 14 15 21 17 20 19
68 67 66 66 66 64 60 62 60 57 54 51 51 50 44 39 39 36 33 33 31 26 24 26 24 22 22 23 26 25 21 10 9 13 11 10 8 10 8 15 14 14 11 17 17 16 20
67 67 68 67 66 63 62 62 61 59 57 54 52 49 43 40 37 36 34 34 31 26 25 26 24 22 20 22 25 22 19 9 10 11 11 4 4 4 8 11 15 13 10 14 14 16 20
67 67 67 68 68 65 65 63 61 61 58 57 53 49 48 41 38 36 35 33 32 25 26 27 24 24 19 21 23 21 16 9 10 10 5 6 6 1 6 6 7 14 6 14 15 12 10
70 69 68 67 68 68 66 66 63 61 62 60 56 53 50 46 39 35 35 36 30 25 27 29 26 26 20 20 21 17 14 8 8 6 3 3 4 3 7 10 10 11 6 13 10 15 15
77 72 70 70 69 68 68 66 65 65 63 62 59 56 52 49 43 35 35 36 29 28 28 32 26 27 22 21 18 16 15 10 9 8 4 3 3 4 9 11 17 13 9 8 7 7 10
83 80 76 72 71 70 67 67 66 65 64 63 62 58 57 51 44 39 39 35 32 31 33 31 30 27 22 20 17 13 14 12 12 11 7 6 7 15 13 18 15 6 10 13 11 6 4
92 87 83 77 74 72 69 67 66 65 65 64 61 59 55 50 44 44 41 37 35 32 36 33 32 27 23 20 16 13 16 15 14 13 12 10 10 8 10 15 8 6 8 10 11 9 5
100 94 90 85 79 74 71 70 67 66 65 65 63 58 56 52 48 47 43 41 37 37 39 33 30 28 25 21 16 14 16 15 16 16 15 13 9 10 18 16 10 7 7 8 10 10 10
100 100 96 91 85 80 74 72 70 67 65 64 63 60 55 55 50 50 46 42 42 44 36 36 31 26 28 22 17 14 15 14 15 16 16 12 12 18 17 13 14 15 11 12 12 13 12
78 91 99 96 92 87 81 75 73 69 66 64 64 62 57 54 55 52 50 47 46 42 40 36 34 34 30 26 20 16 15 15 15 21 22 18 20 20 15 14 18 19 16 15 17 14 14
55 65 85 96 96 92 87 81 76 73 69 66 65 62 58 56 58 56 54 52 47 44 43 41 40 36 31 29 24 19 17 16 17 22 22 23 23 26 23 17 19 18 17 18 19 19 19
50 49 60 79 91 95 92 88 81 77 73 69 67 64 58 56 60 59 57 51 49 46 45 44 42 37 37 32 31 21 19 15 18 20 26 27 26 26 31 21 18 16 20 17 17 14 15
56 51 46 54 78 90 95 93 88 82 78 74 70 68 61 59 58 61 55 51 50 47 48 46 47 42 38 36 29 26 22 17 18 21 23 29 31 30 29 22 14 17 18 22 21 21 16
59 55 51 45 54 85 96 98 94 87 84 80 74 71 65 66 66 59 54 53 52 47 50 48 49 44 40 37 32 27 22 19 19 20 24 28 33 32 29 20 17 21 25 25 24 20 21
58 59 56 51 42 54 93 100 99 95 90 85 79 74 72 70 68 56 54 55 54 50 51 50 49 48 45 40 35 28 21 20 20 23 25 28 31 31 29 26 19 17 15 25 27 24 25
62 59 59 57 46 43 63 99 103 100 93 89 84 84 80 77 62 59 56 54 56 47 50 53 53 51 48 44 34 29 24 20 19 21 26 27 28 27 24 20 21 25 23 25 24 27 29
60 58 59 58 49 41 46 84 105 103 97 94 91 88 80 76 64 59 59 58 57 54 54 54 53 52 48 43 37 29 26 21 21 22 26 28 30 27 28 28 23 24 22 26 29 28 27
56 56 56 58 54 46 38 54 98 104 99 99 95 88 81 71 65 61 59 58 57 54 55 56 53 50 48 43 36 27 26 24 22 21 24 28 32 31 30 26 25 26 27 30 32 27 28
54 55 54 58 53 48 42 45 80 104 103 102 95 89 81 75 69 66 59 55 53 55 53 53 50 46 46 39 34 29 31 28 25 24 26 26 27 27 29 31 31 32 26 30 30 31 31
54 54 52 56 55 48 42 47 58 94 106 103 95 88 81 75 71 60 58 58 54 46 56 43 44 46 44 39 37 31 33 34 30 27 28 29 28 30 30 32 37 25 27 28 32 33 32
56 50 52 52 51 42 40 43 50 85 106 102 95 89 82 77 70 65 62 56 51 46 53 51 46 43 43 41 40 40 40 41 34 30 31 32 31 30 34 34 34 30 28 30 30 29 28
51 49 51 49 46 38 32 38 46 80 101 101 95 89 84 77 70 64 62 59 52 49 49 51 48 47 49 48 46 47 44 39 36 34 34 31 31 32 34 35 36 28 30 31 30 32 26
50 49 50 47 42 36 32 35 48 79 94 101 93 88 83 77 70 67 64 60 55 46 48 48 46 47 47 47 49 46 44 41 38 35 34 28 31 36 35 35 36 32 31 32 35 23 25
45 47 46 42 40 35 30 31 45 76 95 99 91 87 83 75 70 66 65 62 54 48 47 48 50 52 50 51 51 45 44 42 35 33 33 29 31 31 31 34 33 29 31 32 27 28 27
43 43 41 39 36 35 30 30 51 85 91 95 90 84 79 75 68 67 65 60 52 50 47 45 50 47 48 49 44 40 40 37 33 34 31 35 34 35 35 33 34 29 26 27 28 28 28

GFSGBSN_500_spd_060.txt.gz
Wind_Speed
61 59 57 57 55 53 52 52 52 53 51 47 46 44 43 43 43 41 38 36 35 33 31 28 28 29 29 27 32 35 37 40 35 17 12 13 9 9 7 11 13 11 16 23 19 18 14
64 63 61 61 61 59 56 54 53 53 49 53 51 45 42 42 43 41 39 40 37 35 31 29 28 29 28 27 30 32 35 37 29 18 14 11 11 11 9 12 11 13 12 19 20 18 19
66 66 66 63 64 62 61 56 54 53 53 50 48 47 45 42 42 39 43 42 38 35 31 29 28 28 27 27 28 31 33 33 25 16 11 11 11 13 12 15 11 12 11 13 20 19 20
64 65 65 65 64 63 64 63 57 55 53 53 49 45 46 44 44 43 44 41 37 36 31 28 28 28 26 26 27 28 31 30 20 16 13 15 15 14 13 15 12 15 12 10 15 18 20
64 64 63 63 64 63 63 63 64 60 57 54 50 49 47 47 45 46 46 40 39 35 31 27 27 28 25 26 25 26 29 27 18 15 16 17 11 13 12 13 12 9 9 10 12 10 8
67 68 65 63 63 64 64 64 63 62 62 58 55 51 49 46 45 45 49 42 36 34 29 27 28 28 24 24 25 25 27 25 15 15 18 12 8 6 8 7 9 8 11 7 8 19 20
73 71 70 68 65 64 64 65 64 62 60 59 57 55 51 50 47 46 43 40 38 34 29 28 28 29 24 26 26 24 24 22 13 11 10 8 11 9 6 3 5 9 6 3 16 8 13
78 74 72 71 70 67 65 65 64 63 62 61 60 56 51 53 48 47 41 40 42 35 29 30 29 28 26 25 26 24 23 19 11 9 7 7 10 5 4 5 4 4 4 8 13 12 14
88 83 79 75 72 70 68 66 64 63 63 62 60 59 54 54 51 48 45 43 38 36 33 30 30 28 27 26 28 24 21 19 13 11 7 9 10 9 8 7 9 9 5 12 11 14 12
94 92 88 83 78 73 70 69 67 64 64 64 62 60 57 56 53 52 49 45 39 37 34 29 33 29 28 25 27 23 21 18 15 13 12 9 9 11 12 11 13 12 8 10 10 7 10
100 96 94 89 86 81 75 72 70 67 63 64 63 62 60 59 53 53 51 48 43 40 36 33 36 31 28 26 27 20 22 18 14 15 16 15 8 8 13 16 14 4 6 9 10 12 11
86 93 97 94 90 87 81 77 73 70 66 62 64 63 62 61 53 54 51 48 44 40 41 35 34 32 29 30 28 26 19 16 15 16 17 16 14 15 15 18 17 7 4 7 11 13 12
55 62 77 87 93 90 88 82 78 73 69 65 62 63 63 60 52 54 52 50 46 42 37 39 33 28 29 30 27 26 19 15 14 13 14 18 16 21 19 23 21 17 10 10 13 14 15
54 50 51 61 77 89 90 89 83 78 73 68 64 64 63 60 56 54 52 52 49 43 42 39 36 34 32 31 28 28 21 16 14 10 21 18 16 19 19 22 21 19 14 14 16 16 17
55 54 48 47 50 71 84 91 89 83 77 72 68 66 63 58 57 56 54 53 47 43 41 43 39 37 37 35 30 30 22 19 14 11 16 23 19 22 22 26 22 18 19 18 20 18 18
59 58 57 52 48 49 72 83 92 88 82 77 73 70 64 58 60 61 60 52 45 43 42 45 42 42 38 32 32 32 27 20 14 12 16 22 23 26 28 26 26 19 20 22 22 22 18
65 61 60 58 54 49 51 80 89 91 87 83 79 74 66 62 64 67 59 55 48 46 47 47 45 43 39 37 35 33 28 25 21 16 13 17 27 27 28 27 29 26 24 24 22 22 23
61 60 58 59 56 51 45 56 88 93 92 89 84 79 70 67 72 67 59 55 52 48 48 50 48 44 42 39 38 36 32 27 24 18 14 16 22 30 30 30 31 31 30 30 28 25 23
61 58 58 59 58 51 49 44 64 92 96 92 89 82 78 75 76 64 58 55 54 51 51 50 50 48 46 43 42 38 30 25 26 19 17 17 20 21 26 31 32 34 29 29 27 23 22
71 61 60 56 60 55 52 46 50 70 96 95 93 91 85 82 70 66 62 56 56 51 55 53 50 51 47 45 44 38 31 30 25 22 20 20 22 16 18 15 19 27 29 28 26 24 21
69 67 61 58 59 58 54 51 45 54 81 97 99 97 88 87 77 66 63 59 57 52 55 53 50 52 49 46 43 38 32 30 26 24 25 24 21 19 21 23 25 26 24 31 32 29 24
56 67 62 59 58 58 56 52 45 48 59 90 100 96 91 82 70 73 69 62 59 53 56 56 54 51 52 47 41 36 33 31 28 27 27 26 23 21 23 26 28 31 27 32 31 30 26
55 67 64 63 61 59 58 54 49 46 54 78 100 96 91 84 81 78 66 58 57 53 53 54 50 45 50 46 39 39 35 36 34 32 29 30 26 22 25 25 31 31 18 25 29 28 27
59 67 66 64 62 59 59 56 51 41 40 59 90 94 92 89 83 72 67 61 58 51 50 49 47 46 50 42 44 42 37 38 37 32 30 28 27 26 28 26 32 18 20 23 27 29 30
56 67 66 62 58 60 59 57 49 43 43 44 71 97 94 91 83 76 71 63 61 53 49 51 47 44 48 46 45 44 42 42 43 38 33 28 28 32 31 27 27 24 20 25 29 28 30
54 62 60 58 57 57 57 57 51 49 44 38 58 87 93 91 85 77 73 68 62 54 53 49 53 46 42 53 52 51 48 47 45 43 35 32 31 33 32 34 31 23 24 28 30 29 26
56 57 56 55 52 53 54 55 52 44 42 40 58 79 91 90 85 80 75 68 64 54 52 47 49 54 48 49 54 55 52 48 46 44 38 35 33 33 32 34 32 27 28 27 31 30 29
57 55 52 48 47 48 50 51 47 40 40 39 56 81 91 90 86 82 78 71 66 55 50 50 50 57 55 54 54 53 53 50 46 44 42 39 32 32 30 32 31 25 26 28 30 32 32
53 49 43 41 46 47 48 43 37 29 34 41 67 77 90 88 86 80 75 70 63 56 49 48 50 53 54 52 53 52 50 46 43 41 40 39 33 32 30 29 29 28 25 26 29 31 30

GFSGBSN_500_spd_063.txt.gz
Wind_Speed
60 60 60 59 58 55 53 53 52 50 48 48 47 46 44 44 45 42 40 37 37 36 32 31 32 31 31 31 32 30 31 35 38 39 25 20 14 13 13 12 10 10 8 12 22 15 14
59 60 60 60 59 60 58 56 56 55 53 49 49 47 47 50 48 42 41 38 37 35 31 34 33 32 31 30 30 30 29 34 36 34 22 17 12 13 13 13 12 9 7 9 13 21 17
57 59 60 61 61 62 62 60 59 57 57 54 51 52 48 48 44 49 44 42 37 35 35 35 32 32 31 29 28 28 27 32 33 28 20 16 13 15 13 12 12 9 9 11 12 15 22
61 60 60 61 61 61 62 61 61 61 58 58 55 51 51 47 48 43 40 39 40 38 36 35 31 32 29 28 27 26 26 30 31 25 17 19 17 16 14 13 10 9 9 11 12 13 12
67 64 64 63 62 61 61 61 60 61 59 59 56 56 50 49 49 43 40 40 42 40 37 35 31 31 29 27 27 25 25 28 29 22 16 20 16 11 12 12 9 6 4 7 9 13 14
73 71 68 66 65 64 62 62 61 58 59 59 58 57 55 50 48 45 43 39 43 40 36 37 31 30 28 27 26 24 24 26 28 20 15 15 12 11 8 7 5 2 7 8 5 6 11
78 76 73 72 69 66 65 65 62 61 59 60 58 59 56 53 52 47 45 45 44 44 38 35 32 31 28 28 26 23 24 25 27 21 14 11 12 15 9 7 12 3 2 2 13 16 15
86 84 81 77 75 71 68 66 65 65 62 59 60 60 58 54 51 50 50 45 46 40 31 32 35 31 31 29 26 24 23 23 24 18 14 9 8 9 8 5 2 6 4 6 12 7 11
92 91 90 86 82 79 74 70 68 67 65 62 60 61 60 56 54 48 45 49 45 44 36 30 38 33 33 30 26 24 23 22 22 17 14 11 6 6 8 7 4 9 3 7 8 10 13
96 97 94 92 90 85 81 77 71 70 67 65 63 61 61 59 57 52 49 47 43 46 41 32 38 35 35 30 26 26 23 21 20 15 13 14 8 8 6 13 6 5 3 7 5 6 10
86 88 90 90 91 89 87 83 78 73 70 67 66 63 62 60 58 55 51 48 46 43 42 35 33 35 33 30 22 23 24 20 18 16 14 14 10 6 8 12 13 8 7 11 11 14 8
65 66 69 73 80 84 87 85 84 79 74 70 67 65 63 61 58 58 54 50 49 44 45 37 32 36 35 31 28 27 27 21 19 17 13 12 12 9 8 8 14 11 7 4 6 9 10
48 48 49 50 53 62 71 78 82 84 79 75 71 67 65 62 55 59 58 54 51 51 41 40 34 32 35 31 31 30 28 21 19 15 11 12 14 15 17 17 14 21 15 10 7 8 9
49 50 52 51 51 47 50 59 70 78 83 79 76 71 67 62 56 60 58 58 56 53 44 41 35 35 33 32 32 30 29 25 20 14 12 12 14 18 17 19 23 26 25 18 13 13 12
54 52 50 49 48 47 46 44 61 73 80 83 81 76 71 64 58 61 60 62 53 52 46 41 43 37 38 34 31 30 29 23 20 17 11 8 14 15 15 17 23 27 27 23 19 18 15
59 60 57 54 52 50 49 45 42 64 79 83 84 82 75 67 62 63 64 62 54 49 46 45 44 44 34 36 34 30 28 24 22 17 12 12 13 18 20 20 23 28 27 24 23 21 19
61 57 58 60 57 54 52 51 43 45 67 81 87 86 78 72 67 69 69 62 57 50 47 46 45 44 45 38 31 29 27 25 25 22 16 13 12 17 19 21 26 28 27 26 24 24 24
59 55 54 54 58 59 55 54 53 48 49 71 86 89 84 78 76 74 69 61 58 49 49 48 46 45 44 41 39 35 30 23 25 25 18 16 16 15 20 21 26 29 28 29 31 29 29
65 60 59 57 55 58 59 58 58 58 54 54 80 87 89 84 83 75 66 66 60 51 49 50 48 48 47 42 39 37 30 30 30 30 24 22 20 16 17 19 20 28 30 30 30 32 32
74 73 68 66 62 56 56 59 61 63 59 53 64 87 92 88 81 72 73 68 61 55 51 53 50 49 48 45 42 37 32 31 29 30 28 29 27 19 12 13 19 22 23 28 33 34 31
68 67 69 71 65 61 56 58 61 63 63 57 59 76 94 92 89 78 74 68 64 57 53 53 53 49 48 46 42 38 34 31 30 31 32 33 29 21 15 17 21 22 22 24 26 27 30
47 54 59 63 65 62 59 61 61 64 65 58 56 63 90 90 81 81 80 73 66 58 53 52 51 49 48 45 44 41 36 33 33 32 34 35 29 24 19 19 20 22 20 22 24 27 31
44 48 54 56 55 64 60 62 61 64 66 59 48 52 77 90 87 87 78 72 65 58 55 52 50 47 50 42 44 42 39 38 36 35 36 35 31 26 24 22 23 23 12 17 22 23 24
46 44 47 54 63 63 66 62 60 63 62 55 40 44 72 91 90 85 78 75 67 59 53 51 50 47 43 40 43 44 41 40 39 38 38 37 35 31 28 26 30 17 16 20 21 20 22
53 50 47 56 57 68 62 62 61 61 60 54 38 35 55 78 88 82 81 78 70 64 54 49 44 44 46 44 44 41 43 44 43 42 40 39 34 31 32 30 28 20 12 18 23 18 20
51 46 47 56 59 63 61 60 60 60 57 50 34 32 45 67 87 82 83 79 72 65 58 53 47 47 51 48 47 50 48 45 42 44 42 44 36 35 34 31 31 18 18 21 25 19 20
47 45 42 53 58 62 60 59 59 58 50 45 36 29 39 57 78 84 85 78 73 66 58 53 46 48 45 44 51 54 50 47 49 42 43 44 39 37 35 32 30 25 20 23 29 20 26
44 46 46 52 60 58 57 60 58 54 49 43 36 30 29 52 71 83 83 80 76 69 59 53 51 48 51 49 50 50 56 55 54 43 41 41 35 37 35 34 33 25 26 26 23 25 26
40 42 53 58 55 50 55 57 56 50 46 42 34 28 23 46 69 80 82 78 75 69 60 54 48 47 46 54 54 50 50 57 54 47 40 40 39 38 34 31 31 29 27 26 27 26 26

GFSGBSN_500_spd_066.txt.gz
Wind_Speed
55 57 58 58 58 59 58 57 56 54 52 51 48 46 46 44 43 41 41 40 41 41 34 32 31 29 31 32 33 32 30 30 31 31 34 33 25 17 11 9 8 6 6 6 8 16 16
54 57 57 58 57 60 57 54 54 54 55 52 49 50 48 46 44 44 40 44 39 42 41 34 33 31 30 33 33 31 30 29 28 29 32 31 24 18 13 11 9 8 7 7 7 8 15
54 53 54 54 55 56 56 57 57 56 54 53 52 51 51 50 47 45 44 41 42 39 41 36 30 31 33 34 32 30 29 28 26 26 28 27 23 19 15 12 10 8 8 10 9 11 11
58 58 58 58 57 56 56 55 55 56 56 56 54 54 52 51 49 49 47 45 45 36 39 41 33 33 31 32 31 28 28 26 24 24 25 25 23 15 10 10 9 9 9 5 13 10 8
63 63 63 63 61 59 59 58 57 56 56 56 56 55 54 52 51 49 47 46 46 37 35 35 33 33 32 32 31 26 27 24 23 22 22 22 17 11 8 5 5 7 7 7 8 9 10
68 69 69 68 65 64 63 62 61 59 57 56 55 55 54 54 52 50 47 47 47 40 36 37 32 31 31 32 30 26 25 23 22 21 19 17 14 12 10 5 0 5 8 9 5 12 7
74 74 74 73 72 71 69 66 64 62 61 60 57 56 54 52 53 52 48 47 47 43 37 38 33 32 33 31 30 26 24 24 22 20 16 14 10 9 8 8 4 4 8 8 7 2 6
82 82 82 82 80 77 75 73 70 66 63 63 62 60 57 52 51 53 50 47 48 46 42 38 37 31 33 31 33 27 25 23 22 19 14 12 8 8 6 6 6 5 4 4 2 1 2
87 88 88 87 87 85 84 81 77 73 69 66 65 63 60 56 52 53 51 50 48 45 47 39 39 33 30 33 31 29 27 24 23 19 14 10 6 8 6 5 6 5 3 7 6 8 6
87 89 89 90 91 88 85 83 83 80 76 70 68 66 63 60 56 55 53 51 49 47 45 38 39 36 34 35 33 32 28 25 23 19 14 11 7 10 10 8 8 6 4 7 3 3 2
80 80 80 81 82 84 86 82 79 80 80 77 71 68 66 62 59 56 54 52 51 48 47 40 39 39 37 36 29 28 28 27 22 19 14 11 8 13 14 6 9 8 9 7 6 8 5
70 68 66 66 68 71 73 75 74 76 74 76 77 72 69 65 62 57 57 56 53 50 51 42 37 37 39 37 34 32 30 27 25 21 14 11 9 13 14 6 5 9 10 6 3 5 8
42 42 41 43 45 47 51 53 58 62 68 72 75 76 73 69 62 60 59 58 55 54 48 47 39 35 32 32 33 34 32 28 25 20 14 11 9 15 15 13 8 10 15 10 9 6 7
48 49 49 50 49 47 45 44 44 47 58 63 70 77 77 73 66 62 61 60 62 55 50 48 42 40 35 33 37 36 35 33 30 22 19 10 10 14 16 18 16 18 20 22 17 14 13
49 50 49 48 46 48 50 50 47 47 47 61 70 74 79 77 71 67 65 66 61 58 54 48 46 39 39 37 38 38 37 30 27 22 18 13 11 11 18 21 22 23 24 25 25 21 19
52 52 52 51 51 49 49 46 48 47 48 47 58 73 78 78 75 71 71 67 63 59 58 50 47 47 40 38 37 35 36 32 30 27 24 17 15 14 16 19 22 20 23 24 25 22 21
49 53 54 53 51 50 51 53 51 48 48 50 48 65 74 78 77 77 80 65 64 64 60 50 47 48 45 42 42 34 32 29 30 28 25 20 17 17 14 14 20 20 20 25 26 24 23
49 51 52 53 56 52 50 53 56 53 51 54 49 51 67 77 82 83 79 65 65 65 62 52 49 50 50 46 42 40 35 27 30 30 27 21 21 18 17 14 18 22 22 26 27 27 28
58 57 56 57 57 58 54 52 57 57 56 53 54 46 56 65 85 84 74 73 71 66 64 54 48 49 51 45 46 43 35 33 32 32 32 26 27 24 21 17 16 17 18 23 27 27 29
65 67 67 63 62 61 58 55 55 61 59 59 58 56 53 61 79 81 77 80 73 70 63 56 50 50 51 48 45 45 40 37 36 34 33 31 31 27 22 17 19 19 19 23 25 31 28
76 76 71 70 68 65 58 57 56 57 62 64 64 61 52 43 75 86 82 79 75 73 63 59 53 52 53 52 46 40 39 40 39 38 38 37 37 28 24 23 23 22 21 23 25 23 28
76 67 68 67 69 74 71 63 59 58 62 66 64 59 56 49 44 76 84 86 81 73 64 59 54 51 51 49 47 46 42 41 42 42 40 38 37 31 30 27 25 26 20 23 23 24 23
71 61 52 51 54 65 69 72 67 64 65 72 63 59 56 52 41 66 88 85 80 73 68 60 53 48 52 48 42 45 44 44 46 46 44 41 40 34 32 29 29 28 18 17 20 23 23
42 43 44 44 47 50 70 68 72 67 64 59 58 60 59 55 55 54 80 85 80 74 69 63 59 54 52 51 36 41 45 44 44 43 44 42 38 35 35 32 40 22 19 22 23 20 21
45 46 46 47 46 48 64 69 61 68 59 59 55 56 54 52 47 43 71 86 81 77 73 65 57 51 45 43 51 38 40 48 49 46 43 41 38 39 40 36 33 27 19 18 22 22 21
54 51 47 46 46 49 61 54 65 63 63 56 54 51 52 46 36 32 65 83 85 79 74 64 58 53 48 48 48 50 46 40 50 46 44 41 38 38 40 40 39 24 19 21 26 23 18
49 60 52 51 48 46 61 56 54 63 57 54 51 49 49 44 35 40 58 83 85 80 71 66 58 54 50 53 53 50 49 47 42 45 46 45 42 42 40 41 39 28 26 23 30 16 27
35 53 55 53 50 43 64 46 54 56 53 52 47 47 44 36 35 37 48 68 86 83 72 66 60 54 47 47 49 52 53 53 49 43 45 44 46 46 44 45 43 27 30 30 23 27 28
30 45 52 57 50 47 51 51 49 51 54 48 48 48 39 35 33 30 50 51 62 83 68 65 54 54 51 50 49 52 51 51 51 54 46 44 39 41 38 41 38 34 33 31 28 28 28

GFSGBSN_500_spd_069.txt.gz
Wind_Speed
53 51 51 52 54 55 54 53 52 53 53 52 50 48 48 46 45 44 40 39 38 37 36 35 33 34 33 33 31 31 31 32 31 30 26 25 27 29 18 11 10 9 10 11 9 12 16
48 49 50 52 53 54 54 55 53 55 55 53 52 50 49 48 45 43 44 41 38 38 36 37 36 36 33 33 32 31 30 30 28 28 23 22 26 27 17 13 9 13 12 13 14 14 13
49 48 49 51 51 51 51 52 54 55 54 53 53 51 48 47 46 45 43 42 42 39 37 38 38 37 33 33 31 31 31 29 27 26 20 19 24 24 17 13 9 8 10 11 12 8 10
52 51 53 53 53 53 52 51 52 52 50 50 51 53 52 50 49 47 46 44 43 42 40 39 38 38 33 37 33 31 29 28 25 24 18 18 22 19 15 10 7 5 8 6 24 17 13
55 56 56 56 56 56 56 55 54 53 51 50 49 49 50 50 49 50 49 47 44 42 39 37 35 38 33 33 31 30 29 28 24 23 17 15 19 14 12 7 6 7 6 10 16 17 14
60 60 60 60 60 59 58 56 57 55 54 54 54 52 50 48 48 48 48 49 48 45 41 38 33 36 36 31 29 27 29 26 24 22 16 12 14 11 8 8 2 10 9 14 9 20 15
64 65 66 66 67 67 66 64 62 61 58 57 55 56 54 51 49 48 48 47 50 49 45 41 37 34 35 32 31 27 27 26 23 22 15 11 12 10 6 8 4 13 11 6 9 17 7
72 72 73 73 74 73 72 72 71 69 67 63 60 58 57 54 52 50 50 49 50 50 48 44 39 34 34 36 33 32 29 25 22 22 15 11 9 8 7 6 3 4 7 3 8 9 10
76 77 78 79 79 80 80 79 78 77 77 73 68 64 62 58 56 54 53 52 50 50 51 45 42 38 34 38 37 34 30 26 24 25 16 11 10 9 9 7 4 3 6 8 6 7 5
78 79 80 81 82 83 83 83 82 81 81 80 78 72 68 64 61 57 56 55 53 51 51 50 42 41 39 39 42 32 29 27 28 23 19 13 12 11 12 10 9 5 8 7 2 2 13
81 81 81 82 82 81 82 84 83 84 83 82 80 76 72 69 66 60 59 56 55 53 50 49 47 43 41 41 35 36 31 32 26 23 23 12 12 10 13 13 11 12 5 4 5 4 4
85 83 79 74 70 69 70 71 72 74 76 78 77 76 72 69 69 66 63 59 57 56 54 48 49 42 43 39 42 39 34 31 29 29 24 20 13 10 11 15 12 10 10 6 6 5 8
75 69 64 62 60 55 52 51 54 57 62 65 68 70 69 67 67 70 69 64 61 61 53 52 49 41 42 38 43 43 40 35 35 29 22 21 14 11 10 16 12 10 11 5 8 10 4
58 56 50 42 39 39 38 36 36 36 41 46 54 60 62 64 69 72 72 70 70 55 57 58 50 45 41 38 41 43 41 42 38 31 26 23 21 12 9 17 17 15 12 10 9 10 8
45 43 43 45 46 46 47 48 48 45 43 40 41 45 59 62 67 72 74 73 69 61 60 58 54 49 44 43 38 39 41 38 34 29 28 27 21 17 14 20 22 18 21 14 21 22 18
43 43 43 44 44 46 47 47 46 46 47 49 47 45 41 52 60 69 75 81 69 64 62 62 58 49 47 43 41 41 40 39 37 35 30 29 25 21 18 21 23 25 19 22 22 17 17
42 44 45 45 45 47 48 48 48 51 48 45 46 47 41 46 48 65 82 72 71 68 64 64 59 48 49 47 41 44 42 38 39 38 36 33 30 27 24 18 19 21 24 21 17 15 15
46 47 49 48 44 43 42 44 47 49 50 50 50 50 48 49 53 62 77 70 71 72 66 67 63 53 51 52 42 44 40 39 36 38 39 35 31 32 22 21 20 20 21 22 23 21 24
48 49 48 49 49 47 43 41 41 48 51 52 53 53 49 50 44 58 68 75 78 74 70 68 65 55 50 49 51 47 38 41 37 40 42 38 44 35 28 26 20 21 18 20 21 22 25
52 55 55 54 53 54 52 51 47 45 51 55 57 58 54 54 50 34 51 73 80 75 73 66 64 58 52 49 51 52 45 45 39 39 35 42 41 37 31 20 21 21 23 23 24 25 22
60 61 61 60 59 60 58 57 58 53 52 59 64 59 56 54 51 40 37 61 75 78 74 72 57 59 51 50 52 54 51 40 39 38 43 42 45 39 33 30 21 22 23 23 23 23 23
65 63 66 68 66 64 65 65 65 61 58 63 66 59 57 56 50 47 46 40 66 77 75 73 70 63 51 51 52 50 51 47 45 42 41 43 41 41 38 36 31 29 27 24 24 23 23
73 76 77 76 76 74 72 72 69 63 65 67 60 60 57 57 51 52 46 34 55 71 77 73 72 56 49 47 51 52 48 43 53 47 45 46 45 43 43 35 34 39 25 27 24 22 23
84 84 81 81 81 78 73 68 65 66 70 68 59 62 61 62 57 44 44 39 39 63 75 74 59 60 49 42 50 41 45 51 52 52 42 47 46 44 42 37 43 37 28 27 25 26 25
49 45 44 46 50 59 65 65 59 67 67 68 60 65 58 58 55 50 45 47 37 53 68 76 70 53 50 41 50 50 46 40 50 57 51 48 44 45 45 40 38 35 33 26 25 27 25
55 49 48 46 44 46 55 63 72 64 69 63 66 61 57 54 52 48 45 45 46 42 65 73 69 62 46 62 50 52 50 41 37 52 53 47 45 46 44 43 44 36 30 25 28 37 18
49 46 45 45 43 43 48 50 59 73 70 60 59 62 55 51 51 48 47 43 43 37 56 67 63 69 61 53 50 48 47 46 44 38 51 53 47 48 45 45 43 37 32 28 36 19 27
32 36 42 49 48 49 49 48 50 56 70 61 57 59 51 49 47 48 48 47 42 41 47 65 57 69 59 56 52 48 47 51 45 51 42 44 53 51 45 45 43 38 30 31 24 31 31
32 38 46 43 54 49 47 45 43 56 63 60 57 54 49 46 42 48 49 44 37 34 42 60 63 62 51 51 54 49 40 55 50 46 40 31 49 48 49 43 41 37 31 33 33 33 34

GFSGBSN_500_spd_072.txt.gz
Wind_Speed
55 55 56 59 60 56 54 51 49 48 48 48 47 46 45 47 45 43 41 40 38 36 35 33 32 33 33 32 34 31 29 28 27 26 26 24 20 24 22 19 10 19 14 14 16 16 15
59 56 52 53 55 60 56 51 51 49 48 48 50 49 49 48 48 46 43 41 39 38 36 32 33 32 30 30 34 29 28 26 27 24 24 22 18 22 19 18 11 15 14 12 14 23 18
48 48 45 47 46 46 45 45 46 49 46 48 48 48 49 49 47 47 44 41 40 40 38 35 34 35 33 27 33 32 28 26 27 24 22 19 17 20 19 18 14 11 10 8 10 20 24
51 46 45 46 45 45 45 45 45 46 46 46 47 46 46 46 46 45 46 45 43 42 42 38 35 35 29 32 32 30 31 27 25 23 22 17 15 17 16 15 13 6 7 18 13 18 18
48 48 48 48 49 49 50 49 49 49 49 48 48 46 46 46 46 45 43 43 45 45 45 44 38 35 27 28 32 29 24 26 24 20 20 16 13 15 15 12 6 14 11 12 24 18 19
50 50 51 51 51 52 53 52 51 52 51 51 50 50 48 48 45 44 44 43 43 43 44 44 42 39 34 27 29 29 26 24 24 20 18 16 13 14 14 9 7 14 9 13 11 19 18
54 54 54 54 54 54 55 55 54 53 54 53 53 53 52 50 48 46 47 47 46 45 42 41 43 40 38 34 29 30 25 25 25 21 18 17 13 11 14 9 7 12 14 4 19 11 13
57 58 58 58 59 60 60 60 61 61 60 60 60 56 56 55 52 50 49 49 50 47 44 40 41 41 37 38 33 32 28 26 25 23 21 19 12 9 11 4 8 8 7 7 8 10 7
62 63 63 63 63 63 64 66 66 66 66 66 66 64 63 61 59 56 54 52 52 51 49 43 41 41 35 40 36 35 31 26 24 29 24 20 13 10 10 7 8 8 3 6 13 14 9
68 70 70 69 70 69 69 70 71 73 73 72 72 71 68 66 65 63 59 56 54 55 52 45 41 41 41 40 39 37 33 28 30 25 25 21 17 11 10 11 13 12 9 8 8 8 8
74 76 76 76 74 73 73 73 75 74 75 74 73 74 72 71 69 66 64 62 58 56 54 47 48 43 43 44 37 36 33 34 29 21 31 16 19 14 12 11 16 10 12 7 8 5 6
80 80 80 80 79 78 77 77 75 75 76 74 73 72 72 70 69 66 63 64 61 59 57 53 52 48 43 42 41 41 42 36 30 30 35 24 22 19 14 14 16 16 14 12 10 8 4
83 83 83 83 82 80 78 74 70 66 63 63 65 66 67 66 64 65 63 64 66 67 56 56 53 49 49 44 41 45 45 43 40 35 31 29 26 22 18 16 16 15 15 13 11 10 4
82 81 79 75 72 69 66 61 56 53 51 48 49 53 57 59 60 61 62 67 71 66 59 57 56 54 53 46 40 44 48 43 43 38 29 31 32 23 19 16 16 15 15 16 13 9 11
67 65 64 61 58 55 53 49 43 37 33 33 33 28 31 39 44 56 61 70 72 62 58 57 56 55 53 47 45 42 47 45 43 44 36 36 28 26 25 21 22 20 23 13 16 21 17
56 54 52 51 49 44 41 38 37 38 39 40 40 40 36 36 34 42 57 68 69 59 61 48 37 56 55 49 45 43 45 47 44 47 38 34 30 31 24 25 27 22 17 22 27 25 18
48 43 39 38 38 39 39 39 40 40 41 44 44 42 37 42 43 45 43 58 63 61 64 57 44 50 57 30 42 44 48 45 43 42 43 35 30 30 28 30 26 28 25 24 23 21 19
35 36 36 35 36 37 39 41 41 42 44 48 49 48 45 42 45 42 34 22 34 61 65 54 60 45 43 44 33 47 47 49 44 33 45 42 39 32 35 30 26 28 28 28 26 19 20
34 34 35 36 37 39 41 44 45 42 40 45 51 49 45 47 46 44 39 33 34 44 61 64 65 53 38 44 46 48 50 47 47 43 39 39 45 35 32 35 37 30 29 22 26 26 28
37 38 40 42 39 39 40 43 44 43 41 44 49 49 48 48 42 46 45 41 42 36 52 63 57 54 47 37 48 46 49 47 47 39 45 43 46 48 42 37 22 31 29 26 23 22 20
42 42 43 45 46 47 45 43 46 47 46 49 50 43 38 42 41 41 43 43 39 30 47 58 63 62 34 31 48 43 35 53 50 37 48 49 48 47 43 38 30 28 26 30 33 29 27
49 51 51 52 53 53 53 53 51 50 50 57 53 47 43 38 39 45 44 39 41 35 29 51 67 54 42 45 34 47 45 45 50 42 46 44 52 46 41 39 36 31 24 26 32 31 26
58 59 59 58 56 55 56 56 54 57 58 64 54 51 53 47 43 43 40 43 38 39 32 39 56 64 58 30 36 32 36 49 52 44 49 53 48 42 46 40 37 46 35 31 32 27 25
62 64 65 65 65 64 64 62 61 60 62 63 59 56 57 55 49 42 48 43 40 37 36 26 50 65 52 30 36 41 40 28 36 42 47 59 50 46 38 44 55 44 43 40 39 33 29
67 69 72 75 78 79 81 79 74 68 65 65 62 62 58 57 53 49 49 44 45 41 42 33 43 58 66 56 42 48 27 40 47 29 49 56 48 47 51 46 48 46 42 37 33 31 30
57 54 53 52 50 50 53 65 75 71 71 68 64 58 56 54 55 52 52 49 46 42 40 33 32 55 60 68 50 41 36 41 32 42 51 53 50 54 36 51 52 43 38 38 33 39 33
47 50 52 54 56 52 51 51 56 68 66 64 65 59 59 59 57 53 51 46 44 43 40 37 27 48 47 59 64 48 36 39 39 25 42 51 55 49 53 47 49 44 36 32 40 35 20
52 52 54 55 55 55 54 53 51 59 70 66 59 63 61 62 59 51 48 44 44 42 38 32 30 40 54 56 51 55 53 35 53 48 30 34 56 57 47 47 54 43 40 41 31 26 32
39 40 37 35 42 48 52 48 48 51 73 63 64 62 63 57 53 44 44 37 36 40 36 33 25 38 42 56 60 52 57 45 39 41 38 32 34 48 59 53 48 37 38 32 30 37 40

GFSGBSN_500_spd_075.txt.gz
Wind_Speed
56 54 54 52 51 51 51 54 59 60 54 49 46 44 43 43 41 40 39 39 37 36 36 33 31 31 28 25 25 24 23 24 25 21 21 21 20 18 20 22 22 15 10 16 15 12 16
55 53 53 53 54 54 55 52 52 51 59 56 51 46 43 44 44 43 42 41 41 40 40 37 33 32 29 20 32 24 25 24 24 24 20 20 18 16 17 19 19 14 8 7 9 12 19
55 55 54 53 51 54 54 52 45 43 47 61 53 48 48 42 40 43 44 42 42 42 41 40 35 34 30 18 33 28 24 23 23 23 22 18 17 14 15 15 14 12 4 4 6 8 19
52 52 49 48 48 50 48 45 36 38 38 35 35 37 34 39 37 36 38 38 37 39 40 41 39 36 27 28 32 26 25 22 22 19 19 18 15 12 14 13 9 6 5 5 4 12 18
50 49 48 45 44 43 38 39 37 40 40 39 39 38 38 40 40 40 40 39 37 37 39 40 40 38 31 28 33 27 26 23 23 19 21 19 14 11 12 11 9 8 5 10 13 15 16
52 49 50 48 44 43 42 42 41 42 41 41 41 41 40 42 42 43 43 42 41 39 41 38 38 38 37 31 30 30 29 25 23 22 21 18 15 10 10 11 8 8 6 10 11 13 13
50 49 50 49 48 47 46 46 45 44 44 45 46 45 45 45 46 45 43 43 44 44 40 38 37 37 36 33 31 30 35 30 26 21 22 20 16 9 12 8 12 7 6 7 10 13 12
52 51 50 50 48 49 49 47 48 47 47 46 46 46 46 45 46 46 49 48 47 47 44 41 40 36 31 36 32 30 35 33 29 21 27 25 10 13 14 11 13 4 5 7 14 11 9
52 51 52 52 51 51 52 51 51 50 50 51 51 50 49 49 49 49 49 50 51 50 48 42 41 40 37 38 35 31 35 33 31 30 27 27 12 17 16 13 10 6 4 11 16 13 11
57 57 58 58 58 57 57 57 57 56 56 56 57 56 55 54 53 54 54 52 52 52 51 45 41 41 42 42 40 31 34 34 35 30 26 30 21 19 19 14 10 10 14 11 15 8 6
61 61 61 62 62 62 62 62 61 62 62 62 61 61 59 58 56 56 55 54 53 52 52 49 49 44 43 44 43 34 34 37 36 27 33 22 22 18 18 12 13 11 17 10 11 10 7
66 66 66 67 66 66 66 67 66 66 66 65 65 65 63 61 59 59 57 56 55 52 54 55 52 51 46 42 45 42 39 38 35 36 37 28 26 26 19 18 15 15 19 13 13 13 10
70 70 70 69 69 70 71 71 70 71 70 69 67 66 65 64 58 59 56 56 57 59 55 51 54 53 50 44 42 46 38 41 42 40 38 28 33 29 24 23 20 19 21 17 18 19 10
70 70 70 71 71 72 72 73 72 69 65 61 59 58 58 58 56 58 59 58 62 55 55 49 51 56 56 50 45 43 45 43 43 43 40 36 37 31 23 24 22 19 21 21 17 18 18
65 67 68 69 71 72 72 70 67 61 56 53 50 49 49 48 45 54 56 61 62 56 54 48 44 36 54 52 52 47 46 44 41 40 42 41 39 27 29 27 25 21 24 14 22 21 18
63 64 66 66 66 65 63 61 56 51 47 44 42 42 41 37 35 37 43 47 42 40 49 52 55 44 49 27 37 45 39 42 45 40 39 39 42 38 31 30 31 28 24 23 24 23 22
60 59 57 56 54 52 49 46 44 41 39 38 38 38 33 37 40 40 26 15 9 15 38 54 53 48 47 52 32 26 37 38 40 39 39 42 47 44 38 38 33 33 32 32 30 30 28
51 50 50 50 50 49 46 42 37 34 29 30 35 34 33 37 38 33 26 30 24 21 26 48 52 53 48 42 37 34 36 41 40 43 44 48 55 45 45 33 34 31 32 35 31 28 28
49 46 43 39 37 35 32 30 29 28 33 37 41 39 37 39 36 34 37 36 30 28 26 21 43 51 57 58 44 35 32 39 44 47 47 47 48 48 43 42 39 40 34 35 36 31 28
33 32 33 34 35 35 33 33 35 36 35 38 39 43 44 42 38 39 38 35 33 28 28 29 22 57 52 56 49 42 30 30 42 47 47 41 43 54 52 45 41 42 34 32 34 41 31
29 29 32 34 36 36 38 38 38 37 37 43 40 43 43 39 38 34 33 30 27 28 30 27 23 64 46 46 45 43 43 37 27 32 43 46 40 52 48 44 39 37 34 33 37 35 34
32 34 35 36 38 40 41 40 40 39 40 47 41 44 44 38 34 28 28 30 30 26 28 25 23 48 60 55 39 38 52 28 40 45 45 45 36 50 56 44 45 34 37 29 29 32 33
34 37 39 41 42 42 42 42 44 45 49 50 44 45 50 42 38 35 30 25 22 24 26 26 25 27 66 61 52 48 41 38 28 33 38 40 40 47 59 57 45 49 39 37 31 31 32
41 43 44 46 47 48 50 50 50 51 54 53 50 50 52 44 41 38 34 32 28 25 25 24 29 26 41 54 61 58 36 30 46 37 27 37 42 41 55 46 58 56 50 41 35 32 27
48 50 52 54 54 55 55 55 55 57 55 52 50 52 50 50 46 43 41 37 36 26 26 29 29 27 37 60 57 52 42 43 24 39 41 45 36 41 49 55 52 53 49 47 44 38 35
54 57 58 58 59 61 61 61 61 59 59 60 55 49 51 55 52 49 45 43 36 33 28 30 28 25 27 65 60 60 43 41 26 23 46 39 39 41 44 57 64 58 49 44 47 47 38
58 59 62 64 65 67 69 69 68 67 66 66 63 58 54 56 55 53 51 45 39 34 32 32 27 29 21 53 66 75 51 31 14 20 30 30 35 40 44 53 52 51 42 50 50 47 37
41 43 44 45 45 45 46 46 47 52 57 61 57 56 55 57 55 54 55 49 42 37 34 34 34 34 36 35 63 72 56 43 23 21 27 27 37 41 46 51 50 42 43 47 44 40 35
44 47 50 51 51 51 51 50 48 47 44 46 64 61 56 56 56 53 56 48 43 37 35 37 36 31 32 31 47 65 70 48 36 27 26 28 26 44 50 48 44 45 37 36 41 47 37

GFSGBSN_500_spd_078.txt.gz
Wind_Speed
55 54 53 52 52 52 52 53 52 53 52 52 55 55 55 50 45 43 41 39 38 38 36 34 32 28 28 22 24 24 20 21 18 20 17 17 17 17 15 17 18 21 21 14 3 4 6
56 52 50 51 52 53 52 52 53 54 53 52 50 50 47 57 52 47 44 42 41 39 37 36 35 31 27 23 30 29 20 23 22 18 20 15 19 17 13 14 15 20 15 8 2 4 8
55 52 53 51 52 52 51 51 51 53 54 54 53 51 50 47 54 51 49 45 44 44 41 40 38 36 30 25 31 28 24 26 24 19 19 18 16 17 14 13 15 14 12 4 4 5 8
55 54 53 54 53 53 50 49 49 49 48 50 51 47 38 41 48 58 53 50 44 44 42 42 40 38 29 30 32 32 27 25 29 20 18 19 15 18 13 13 17 12 9 4 2 7 11
56 55 54 54 53 53 49 43 42 41 42 40 43 38 36 34 30 32 30 30 36 41 34 39 38 37 28 31 32 32 30 24 30 24 20 20 14 17 15 11 16 11 9 7 9 4 8
54 53 52 53 52 50 48 46 42 41 41 38 34 37 34 34 36 33 30 33 36 35 38 34 36 34 31 28 31 33 33 30 30 28 22 21 15 17 15 13 16 15 9 11 9 4 7
51 51 50 49 49 50 47 44 44 44 41 39 37 36 36 34 36 38 35 37 35 37 36 34 35 34 31 28 29 32 33 35 33 29 21 24 17 10 19 15 16 16 10 12 8 5 10
50 51 51 53 51 48 47 46 47 45 44 43 42 40 38 38 40 40 40 41 38 40 39 37 35 32 29 33 33 30 33 35 34 28 29 28 13 13 25 17 16 17 15 12 5 6 10
54 52 52 50 49 48 48 48 47 47 45 44 43 40 40 43 43 38 40 39 40 40 40 33 40 38 33 37 36 30 32 33 34 33 31 29 17 24 26 20 17 16 18 10 4 10 11
54 53 52 50 52 52 50 49 48 49 47 46 46 45 43 43 42 43 43 41 41 42 43 38 37 41 39 40 41 33 34 33 33 33 30 34 24 27 27 23 21 18 22 8 11 11 10
59 58 56 55 55 54 53 54 54 52 50 49 49 48 48 46 48 47 45 44 43 42 44 43 41 40 42 41 41 36 33 39 36 29 34 28 24 25 27 22 25 17 22 16 17 15 13
67 64 62 60 58 58 56 56 56 55 54 53 52 52 52 51 51 50 48 48 45 44 42 44 46 43 40 42 42 43 38 38 36 35 37 36 30 34 28 29 27 25 23 21 17 17 14
72 69 66 64 62 60 60 58 59 57 55 55 55 55 54 52 55 54 53 52 50 47 42 44 46 52 47 42 43 43 39 39 40 39 38 37 34 33 34 30 30 29 25 24 23 21 13
70 69 67 65 64 62 61 60 59 58 58 58 57 58 58 54 56 57 56 56 54 44 44 47 49 50 48 49 45 45 44 44 44 42 41 40 36 35 30 30 29 31 27 24 27 21 19
67 64 64 63 63 62 61 60 58 58 57 58 59 61 58 52 54 56 58 59 50 47 49 50 52 50 50 51 52 51 50 46 45 43 43 40 42 33 31 31 32 32 35 20 27 27 25
60 61 61 60 60 59 58 57 57 57 56 56 57 57 54 50 53 55 57 53 48 48 47 48 49 52 51 50 54 53 51 50 49 45 41 40 41 35 36 35 35 38 30 29 30 33 31
55 57 57 57 57 56 55 56 55 54 52 50 52 54 45 49 50 53 53 44 39 38 42 48 52 53 57 49 51 52 51 50 51 44 40 36 40 40 41 45 41 41 39 36 31 33 31
49 53 54 54 55 55 55 54 52 50 49 48 48 49 41 44 47 45 37 28 29 27 20 28 41 49 54 48 46 44 42 48 54 56 50 44 41 44 44 45 44 43 41 36 36 37 31
45 47 48 50 50 51 51 50 49 47 47 45 45 39 37 42 44 35 28 31 33 29 28 24 23 18 23 60 57 54 43 43 51 54 54 46 48 48 46 47 48 52 47 43 35 36 39
44 45 46 47 48 48 49 48 46 43 39 38 35 33 34 35 35 31 29 32 32 28 26 30 29 26 17 45 60 57 54 41 47 49 54 48 47 51 50 45 47 52 51 47 34 41 40
44 44 44 45 42 40 37 36 35 34 36 40 38 31 31 28 27 29 30 31 28 26 26 29 27 24 22 28 66 56 44 42 40 47 49 45 50 47 43 36 42 55 57 49 43 39 40
29 30 30 31 32 30 30 32 36 37 40 47 42 40 36 33 30 29 30 28 28 26 26 21 26 23 22 29 55 66 54 46 25 42 51 53 50 45 43 36 45 57 57 55 41 40 38
25 27 29 30 31 32 34 35 39 43 50 50 45 40 36 34 33 31 28 26 21 20 27 20 23 26 32 25 55 57 69 65 32 17 43 43 48 45 45 36 46 59 55 56 48 47 37
26 27 28 30 34 36 38 40 43 46 47 46 42 38 38 36 36 31 31 28 23 18 21 24 26 26 23 26 46 63 63 66 64 45 27 48 39 36 41 40 51 53 54 52 49 42 42
30 31 31 33 35 38 40 42 44 47 48 49 43 42 42 40 38 35 35 33 29 27 24 25 23 21 30 29 28 56 69 65 71 51 42 29 45 37 47 42 42 54 58 45 46 48 41
34 35 36 38 40 42 44 45 46 48 49 50 45 45 47 46 41 39 37 36 32 29 27 21 19 24 27 33 24 51 65 51 52 40 32 22 29 38 31 38 40 42 56 55 51 42 40
42 45 47 48 48 48 50 51 52 51 51 52 52 52 52 48 45 46 43 40 38 31 29 27 23 24 27 30 33 30 72 67 62 42 38 19 34 38 37 33 39 38 45 49 57 54 47
48 51 54 57 59 60 59 59 59 57 57 58 54 55 53 49 48 47 47 46 42 37 33 27 28 28 29 31 32 25 45 74 63 58 41 26 23 38 39 39 42 36 36 46 48 51 51
31 34 38 41 44 49 58 64 66 64 62 62 63 58 53 54 52 48 45 47 44 41 39 36 31 26 28 29 30 24 27 50 56 52 26 20 15 21 40 38 35 34 35 41 36 50 48

GFSGBSN_500_spd_081.txt.gz
Wind_Speed
58 59 60 62 60 60 58 58 56 53 52 51 51 49 49 49 50 52 50 51 44 44 42 40 38 36 35 29 23 30 20 23 25 22 23 21 21 20 18 20 17 17 21 21 12 11 11
60 60 61 62 63 61 61 59 56 55 53 52 51 52 51 48 49 51 52 53 52 49 44 42 40 38 36 27 32 32 22 24 28 24 25 23 24 18 14 19 17 18 21 19 13 7 7
63 63 63 63 61 61 57 56 55 54 53 52 50 49 49 51 50 49 50 48 48 55 54 46 43 42 39 28 36 30 28 27 28 27 27 27 24 19 14 15 20 16 16 19 16 4 5
64 63 61 60 60 60 56 53 56 55 55 53 51 49 48 48 48 50 51 51 49 50 53 52 50 45 38 35 39 36 34 30 30 30 27 30 24 20 15 15 19 16 17 16 18 10 5
64 62 62 62 61 63 61 56 54 56 55 54 52 47 43 42 43 44 47 44 48 52 52 58 54 50 41 39 40 38 36 32 33 33 28 30 24 21 18 14 17 19 18 18 20 14 8
55 59 59 58 60 63 62 58 52 53 55 53 49 49 40 39 37 36 34 35 38 44 53 58 56 47 39 33 36 38 38 35 35 34 32 29 25 20 18 14 16 23 20 15 19 24 14
56 54 56 57 57 60 58 54 50 50 49 47 47 39 39 33 35 39 34 30 35 41 48 44 41 38 32 31 32 35 38 38 37 36 33 31 28 14 14 21 22 20 20 16 18 19 17
56 56 54 56 56 56 55 51 48 49 47 45 45 39 38 40 38 35 35 32 34 33 30 34 33 30 25 31 35 34 36 35 35 34 34 36 27 17 23 24 21 20 22 17 18 21 20
62 60 57 55 54 53 53 49 50 49 50 47 43 43 43 42 39 37 34 34 34 35 34 24 30 31 32 37 33 30 36 34 33 35 34 32 26 27 29 28 22 22 23 22 21 23 22
68 67 64 59 56 53 54 53 50 49 49 49 47 45 44 44 40 42 37 36 38 33 36 32 33 35 34 38 40 31 35 31 33 31 30 36 29 29 31 31 24 21 24 27 28 23 21
73 72 71 67 62 59 57 52 53 51 51 49 47 46 44 44 43 43 40 39 36 33 38 35 33 36 38 38 41 37 36 37 34 32 31 30 25 28 32 23 32 18 27 28 31 28 16
76 76 75 73 69 65 61 58 58 56 54 54 51 50 47 48 46 43 43 41 37 36 38 39 38 36 37 38 40 41 35 37 36 36 37 36 30 35 32 28 35 25 32 30 33 30 17
74 74 75 74 73 69 66 63 61 60 56 54 52 52 51 49 49 48 47 43 42 39 36 40 46 43 41 40 39 40 36 37 38 38 39 40 35 33 37 36 36 32 33 34 33 32 13
64 66 69 73 74 70 66 65 64 62 60 60 58 56 54 51 51 49 48 46 44 40 38 44 45 48 47 42 40 42 41 41 41 40 41 41 37 33 33 35 32 34 33 37 33 36 22
49 51 58 64 67 68 65 61 62 61 60 60 59 57 55 55 53 51 51 48 41 40 45 44 47 50 51 48 45 41 42 43 44 44 42 42 45 36 32 33 38 35 40 33 39 38 32
44 44 49 54 58 60 60 59 57 57 57 58 58 58 55 57 54 52 53 47 44 45 48 50 50 49 50 50 50 45 45 46 48 49 50 48 48 38 37 37 39 40 34 39 42 41 36
43 39 43 47 51 53 55 55 55 55 54 55 56 57 52 56 55 55 52 47 46 48 46 50 51 49 51 54 56 54 51 51 52 52 53 54 54 46 39 42 44 45 44 43 41 42 40
44 40 38 41 46 49 52 53 53 52 53 54 54 55 52 53 55 51 48 48 46 45 47 50 49 49 50 56 60 60 59 51 52 54 58 56 56 58 47 43 46 47 45 44 45 47 40
44 41 39 40 41 43 47 49 51 50 51 51 52 50 51 49 53 51 47 44 45 44 44 43 40 41 42 50 62 65 61 53 51 54 58 57 61 58 53 50 54 56 54 52 48 46 45
44 43 40 40 40 42 44 46 47 48 49 50 51 51 50 50 46 46 44 40 39 37 35 35 33 30 27 21 23 54 63 52 46 53 55 55 60 63 61 54 53 54 55 53 50 50 47
38 42 44 41 41 41 43 45 46 48 49 51 52 50 45 46 38 37 37 33 35 31 29 29 34 31 32 28 21 17 55 59 49 51 50 49 46 60 63 58 51 52 52 54 52 48 51
31 35 38 41 43 43 43 44 46 46 46 49 48 45 40 36 33 33 33 33 33 28 27 27 33 29 30 28 26 23 32 63 57 47 46 45 53 54 59 61 56 52 55 51 51 52 53
21 23 27 33 38 41 43 44 44 43 43 42 39 33 35 37 34 34 32 27 25 28 29 31 33 27 32 32 32 32 31 40 63 67 52 41 50 55 60 57 57 53 50 54 57 54 52
22 22 22 23 25 27 31 34 34 34 33 30 35 35 39 35 32 29 27 22 22 25 27 30 33 29 30 33 35 35 30 30 59 67 61 36 14 48 54 56 56 52 45 41 46 52 55
23 23 24 27 30 29 32 34 37 37 40 40 40 39 37 34 33 29 27 22 21 22 23 26 31 29 31 33 33 34 32 31 42 70 60 51 23 12 52 52 50 50 49 36 42 46 53
28 28 28 28 28 32 36 38 37 39 41 43 44 39 40 39 33 31 31 28 23 22 25 24 28 31 31 30 29 32 32 28 31 59 62 61 54 29 14 39 37 39 48 41 43 46 50
32 32 32 33 36 36 37 40 42 43 45 47 47 45 44 41 36 34 32 29 26 24 27 27 28 29 29 29 26 25 27 31 28 46 46 48 53 48 32 25 39 39 39 39 43 46 42
38 39 40 40 39 38 40 43 48 49 50 50 49 47 47 46 40 37 36 32 29 28 29 31 34 32 28 25 22 22 23 25 24 28 49 55 48 47 18 25 38 29 26 40 37 39 40
45 45 46 48 50 50 49 47 46 48 56 57 56 51 50 50 44 40 39 36 31 32 34 31 34 35 33 30 27 22 24 24 28 29 36 51 42 40 42 11 38 34 33 30 26 31 45

GFSGBSN_500_spd_084.txt.gz
Wind_Speed
58 61 61 60 58 58 58 58 57 56 59 60 57 58 57 55 52 51 51 53 50 47 45 45 45 38 39 38 31 40 35 33 31 28 25 25 24 23 24 26 24 17 18 22 22 23 24
57 60 61 61 61 61 61 60 60 61 61 61 60 56 57 55 53 54 53 52 51 49 47 45 43 42 39 38 37 41 36 31 34 31 29 27 28 25 21 25 26 20 19 21 22 21 23
60 62 62 63 63 62 62 62 62 62 61 60 59 55 52 53 54 53 54 54 52 49 48 45 45 45 47 39 39 40 40 36 35 34 31 32 31 25 20 24 26 22 20 22 22 20 24
58 59 61 62 63 65 64 63 61 59 57 55 55 53 50 52 53 52 51 53 53 50 48 45 44 45 42 46 44 42 43 38 35 37 37 36 34 25 21 23 23 23 22 24 21 20 21
58 60 60 61 62 62 61 60 60 58 58 56 56 54 55 52 54 54 52 51 51 50 48 49 48 46 44 45 49 45 43 41 41 40 40 41 35 27 22 23 21 23 23 25 23 20 20
58 59 59 59 58 56 54 54 56 56 56 56 57 58 56 53 51 53 50 49 48 50 49 48 48 48 46 44 43 45 46 45 43 43 45 42 35 30 21 20 16 26 25 24 22 24 23
55 55 56 56 55 55 54 54 51 52 54 54 55 57 54 52 48 49 46 47 44 47 44 44 44 42 43 40 37 41 44 48 44 44 43 41 39 26 18 21 26 31 23 23 18 25 25
58 58 59 59 57 55 54 55 53 52 51 53 57 55 48 46 42 41 40 36 43 45 39 38 36 33 32 35 45 42 39 41 40 39 41 45 40 23 26 26 29 30 24 21 21 23 23
64 64 64 62 61 60 59 59 57 53 52 52 53 47 45 41 44 40 40 38 38 38 42 29 33 24 30 40 36 33 36 36 36 37 37 42 36 31 31 29 31 30 22 25 24 28 27
69 68 67 65 65 65 65 64 62 58 54 53 53 47 47 46 43 41 44 41 38 40 44 33 32 35 31 37 39 34 39 35 33 34 33 38 35 31 34 33 30 30 22 27 28 32 29
69 67 67 69 69 67 67 69 67 63 58 55 52 53 53 48 44 45 45 42 41 34 38 39 36 36 35 33 34 32 37 39 33 28 31 33 26 29 35 26 32 25 30 31 31 33 29
67 66 66 68 69 70 70 69 70 68 64 59 55 54 49 47 47 46 46 45 42 38 40 38 33 33 32 32 35 33 33 37 36 35 35 35 31 32 34 31 35 30 34 35 32 33 29
64 64 65 66 67 68 70 70 71 72 68 64 60 56 52 50 50 47 48 47 44 43 41 40 40 39 36 33 31 30 28 31 37 37 36 38 34 32 34 34 37 34 34 38 34 34 28
62 63 62 61 61 62 62 63 69 72 69 67 64 60 55 51 54 51 51 50 48 43 44 42 42 43 38 34 35 34 32 31 31 34 39 40 38 35 34 33 34 36 37 39 36 33 33
60 60 56 53 51 51 51 55 61 67 67 66 66 62 58 57 55 52 54 51 46 44 46 44 45 45 40 37 35 35 35 34 36 36 37 40 43 36 37 34 35 38 40 35 36 37 38
58 55 53 51 50 49 46 49 54 56 60 62 63 63 59 59 58 58 54 48 47 47 46 45 43 44 42 39 39 38 39 39 40 41 43 41 43 43 41 38 38 41 39 39 43 43 41
53 53 51 50 49 47 43 43 47 49 52 56 58 61 57 58 58 58 53 49 50 49 48 46 44 44 43 44 46 45 45 45 45 45 47 48 47 45 44 43 42 43 44 43 43 43 44
53 51 49 48 48 45 40 38 41 46 50 52 54 56 55 55 57 55 53 53 53 50 49 49 48 46 45 47 49 50 50 49 50 49 49 52 52 52 48 45 46 48 48 45 47 46 43
50 49 47 47 47 43 39 38 39 44 47 49 51 51 53 54 54 54 54 52 51 50 49 49 48 47 47 48 51 53 54 54 53 53 55 54 56 55 53 46 48 51 53 51 51 49 49
48 47 47 47 47 43 39 38 39 41 44 48 50 52 53 52 52 52 51 51 49 48 50 50 49 48 49 51 52 54 56 57 57 56 57 58 58 60 60 56 47 54 50 54 54 55 52
47 48 49 48 45 42 40 39 38 40 44 48 50 50 49 50 46 46 46 47 46 47 48 49 47 45 41 45 48 50 49 48 55 60 58 58 58 59 62 62 54 56 57 55 58 57 56
46 41 38 36 36 38 42 38 37 40 44 49 47 43 43 45 44 45 45 45 43 41 40 38 37 29 35 42 38 30 32 37 45 54 66 64 57 57 60 57 57 55 58 57 59 59 57
26 23 22 25 30 34 39 42 42 42 46 43 41 40 43 42 44 45 41 38 36 33 33 28 29 30 35 30 36 33 36 33 29 35 46 62 56 45 49 49 52 47 55 60 59 62 59
26 26 25 23 21 23 32 39 43 44 42 37 38 39 42 42 43 38 36 35 32 27 26 29 31 31 30 35 33 33 35 36 35 31 26 33 56 48 45 43 48 43 47 45 58 59 58
23 22 22 22 22 24 22 24 34 40 41 41 40 42 42 40 35 34 34 33 32 29 26 24 29 28 34 35 37 37 38 36 33 33 27 28 42 58 54 32 18 37 42 43 45 53 53
23 24 25 25 25 24 25 20 22 25 30 32 33 31 26 21 30 32 39 33 28 24 22 23 24 30 36 37 37 36 35 32 31 31 29 29 34 55 63 62 20 23 29 41 40 45 46
26 28 29 29 28 26 24 28 23 25 29 31 27 25 23 27 24 32 29 24 24 23 21 20 19 32 36 34 35 33 27 22 23 26 27 25 24 39 45 59 44 13 15 39 41 36 47
32 33 33 33 32 32 30 29 31 31 34 36 33 27 24 28 28 26 25 26 25 23 22 19 19 29 33 36 33 27 22 19 21 20 21 18 22 22 38 40 37 30 17 38 34 34 43
34 35 35 35 34 34 35 35 35 37 35 35 36 33 33 35 30 28 28 30 28 27 25 19 23 29 31 30 29 25 22 18 19 20 19 21 16 26 37 27 36 35 21 18 33 20 33

GFSGBSN_500_spd_087.txt.gz
Wind_Speed
54 55 55 55 55 54 55 55 56 56 55 54 56 55 57 57 55 53 54 50 49 50 47 46 48 45 46 43 34 37 37 36 35 34 35 37 35 31 26 25 21 18 20 21 23 26 25
55 56 56 56 55 56 56 57 58 58 57 58 59 61 60 60 60 57 55 53 50 49 49 47 48 47 46 43 41 39 40 38 38 38 38 36 36 35 26 25 24 20 20 21 24 24 23
57 56 58 59 58 58 58 59 60 61 61 61 62 63 63 62 60 58 55 51 51 46 48 49 48 47 46 41 44 41 41 42 41 40 38 38 37 35 28 25 25 23 19 21 26 23 23
58 57 57 56 58 56 57 58 58 60 62 62 62 61 61 61 56 53 50 48 47 46 47 48 49 49 47 42 44 45 45 42 44 42 41 41 40 35 29 29 25 25 21 21 28 21 21
56 56 55 55 56 56 55 56 57 57 57 58 57 57 57 56 55 53 51 50 48 46 46 47 48 47 46 45 42 43 44 48 45 42 42 44 43 37 32 29 28 23 22 24 28 22 22
56 56 55 55 55 55 55 57 56 57 56 57 55 52 52 53 53 53 53 53 50 48 47 48 48 47 44 42 43 44 44 46 47 46 46 46 44 40 36 29 25 24 26 26 24 27 24
56 56 55 56 56 56 55 54 55 54 55 55 52 49 50 48 51 51 51 55 51 49 49 46 46 44 43 37 40 43 45 46 49 51 49 45 48 44 33 31 32 32 30 23 21 31 26
61 61 60 61 61 60 60 59 59 58 57 55 53 52 48 47 48 49 51 49 55 50 47 46 45 45 33 34 38 37 42 41 44 41 50 51 51 37 33 35 35 32 31 21 20 29 28
67 66 66 66 66 65 65 64 63 62 61 59 57 56 53 48 46 48 50 52 50 46 47 39 43 39 33 36 32 33 39 44 38 40 42 46 43 39 35 36 37 32 30 24 25 30 29
71 70 69 69 68 68 67 66 65 65 62 62 61 58 57 52 46 46 48 46 40 41 42 36 38 43 39 36 32 33 43 36 44 37 36 42 36 34 35 36 37 36 26 30 29 32 29
73 71 70 68 67 67 67 67 67 64 62 60 61 61 60 53 47 45 44 44 43 35 44 38 37 39 36 33 34 30 38 39 37 31 30 37 31 30 30 31 35 29 33 34 35 35 30
74 72 70 69 67 66 67 66 65 64 60 61 60 60 60 57 51 46 43 46 40 38 40 37 36 33 34 35 32 31 30 33 33 35 34 33 29 31 31 31 33 34 33 37 35 37 29
69 70 68 67 65 65 64 64 63 62 61 61 61 61 61 60 55 51 49 50 48 43 42 40 39 37 28 26 24 23 24 29 30 32 34 35 33 31 30 31 34 36 33 37 40 40 25
67 67 64 61 61 60 59 58 57 58 59 60 60 60 60 61 57 53 52 52 52 48 44 42 42 39 35 30 31 28 27 27 29 27 30 34 37 37 34 32 31 33 35 39 40 37 31
65 62 60 59 57 56 53 54 55 53 52 52 53 54 56 60 59 56 56 54 51 48 45 44 44 42 39 36 32 32 29 30 27 31 29 34 34 38 38 37 36 34 38 32 37 40 39
61 59 57 55 54 53 51 52 52 49 46 47 47 50 53 56 57 57 58 54 52 52 51 43 44 45 42 39 36 35 34 33 34 33 32 35 33 34 35 39 40 39 38 38 42 41 40
52 54 54 51 50 51 49 50 49 46 46 48 46 47 46 51 54 57 58 56 52 48 45 50 45 43 43 41 39 37 36 35 36 36 38 38 39 34 35 36 40 42 43 42 43 42 41
47 48 51 49 48 49 48 47 44 43 46 46 43 42 40 47 51 53 54 55 54 52 49 46 46 45 45 44 42 40 39 38 38 38 39 40 42 41 39 36 36 42 44 45 48 45 45
43 43 45 45 46 46 44 43 42 44 45 43 38 37 40 45 49 49 52 51 51 50 52 51 48 46 45 44 44 42 42 42 41 41 42 42 42 42 42 39 42 40 43 48 50 50 46
39 39 39 39 40 42 42 41 44 43 43 41 37 38 40 42 44 46 46 45 46 45 46 50 49 47 47 46 46 45 43 44 44 44 44 45 44 46 45 45 42 47 48 49 50 53 51
34 33 34 35 38 41 43 44 44 43 42 42 40 35 35 39 39 39 42 43 42 43 44 46 47 46 46 45 45 45 46 45 45 45 47 48 48 50 52 52 51 47 48 49 51 51 54
30 30 31 35 38 42 44 44 41 41 43 42 37 32 34 34 36 39 40 41 41 41 43 41 42 43 45 46 45 46 46 44 46 48 50 51 53 56 57 56 55 58 53 50 54 55 58
28 30 33 36 31 29 29 32 34 39 43 39 32 32 35 34 35 39 39 37 37 40 40 41 39 43 43 41 46 45 45 46 45 44 43 47 46 48 55 53 55 58 55 54 53 55 58
31 35 28 23 22 22 20 23 30 34 41 38 33 34 35 32 36 37 35 37 37 36 37 36 36 38 35 41 44 44 43 41 39 35 33 32 27 26 32 34 46 51 51 54 52 50 55
28 23 25 23 23 23 21 19 21 28 36 39 37 35 32 30 32 32 34 35 35 35 36 32 30 31 31 35 36 35 33 32 34 34 34 30 29 24 26 29 31 37 37 37 39 42 47
21 23 23 23 21 21 21 22 22 20 25 33 35 35 34 31 28 28 31 30 29 32 32 31 27 28 32 33 31 33 35 34 32 30 31 29 28 28 30 32 32 30 38 27 30 32 38
24 24 23 22 21 20 21 21 21 22 20 19 23 29 32 29 25 27 26 25 29 32 34 31 27 27 33 31 32 34 34 31 27 24 23 23 25 27 29 32 32 35 39 30 24 27 31
23 25 25 24 23 22 20 19 20 19 15 13 11 16 15 20 26 21 25 33 38 40 30 27 23 25 32 38 36 35 29 25 20 16 17 20 23 20 21 21 16 19 36 41 31 18 34
27 28 28 28 27 25 23 20 21 26 23 21 22 22 19 13 18 16 25 35 35 27 21 21 21 26 30 33 33 28 24 22 20 17 17 16 18 17 19 22 12 19 33 46 44 18 31

GFSGBSN_500_spd_090.txt.gz
Wind_Speed
53 53 55 56 57 57 55 54 54 53 53 54 54 53 52 52 52 51 51 51 53 52 49 49 48 46 45 43 36 40 40 41 40 39 38 37 34 33 34 31 31 26 26 23 22 27 21
56 56 57 59 60 60 59 56 55 56 55 55 55 55 55 55 56 55 55 55 54 54 56 54 53 48 46 44 40 42 43 44 41 41 40 38 37 37 34 31 30 29 26 25 25 26 20
60 60 59 59 60 61 60 59 58 58 58 59 58 59 59 59 59 59 59 58 58 59 59 57 54 51 48 44 42 40 42 46 45 43 41 40 40 40 36 31 29 31 27 25 26 28 20
59 58 58 58 59 59 59 58 59 59 59 59 58 58 58 59 59 61 59 59 60 59 55 55 52 49 46 46 44 41 42 43 46 42 44 44 43 42 38 34 30 31 27 25 27 30 23
56 56 56 55 56 57 56 56 55 55 55 55 53 53 54 54 54 56 54 54 56 56 51 50 48 46 45 43 40 41 42 43 45 44 45 46 46 45 42 37 32 30 26 26 33 32 25
54 55 56 57 56 56 56 55 54 54 52 52 51 51 52 51 50 50 49 49 49 50 49 47 47 47 45 42 38 37 40 43 45 45 48 49 49 47 44 40 30 31 30 28 31 36 28
57 58 58 57 58 58 58 57 56 54 54 52 51 51 50 49 48 46 44 45 46 47 47 49 49 48 47 41 38 37 39 41 44 47 46 46 50 49 41 35 36 38 35 30 31 36 31
63 64 65 65 64 63 63 60 60 60 59 57 55 54 53 51 49 47 46 45 44 47 43 49 48 48 47 45 39 36 38 39 41 44 46 47 47 47 44 41 38 42 37 29 32 36 36
70 68 70 70 69 70 68 67 66 64 63 62 59 58 58 56 54 52 50 50 47 44 43 40 46 49 48 44 40 36 38 39 39 41 43 46 45 43 48 43 41 42 38 27 35 39 37
70 70 70 71 72 72 73 73 71 69 66 65 64 62 61 59 58 57 54 53 50 47 44 44 42 48 46 44 42 35 38 37 40 38 39 44 42 39 39 43 42 41 35 34 36 41 37
74 73 72 71 70 69 70 72 71 70 69 66 65 64 63 60 58 57 56 54 51 48 44 42 38 40 38 37 40 36 38 36 36 35 36 43 34 34 36 31 33 36 38 37 40 42 40
78 78 76 73 71 69 68 67 68 68 66 64 62 63 61 60 58 56 55 53 53 48 50 42 37 36 32 30 33 33 33 32 31 35 33 38 36 32 34 31 31 34 38 40 39 41 43
85 84 80 76 73 68 66 63 61 61 60 59 58 58 58 56 55 54 52 53 53 53 49 44 39 38 23 25 25 26 31 31 30 30 33 34 36 32 29 32 31 33 33 34 38 42 40
88 83 81 77 74 68 63 60 56 56 54 53 54 53 54 53 52 51 52 54 56 57 48 46 42 38 32 28 25 23 20 25 27 29 29 35 31 37 32 30 29 30 34 32 36 36 35
83 77 73 70 67 64 60 56 52 52 51 50 48 47 47 49 49 48 52 55 55 54 51 46 42 41 34 30 28 27 30 28 26 27 29 27 36 32 37 37 37 35 37 32 36 41 39
54 60 63 59 57 53 51 50 50 50 50 48 46 44 45 45 44 45 50 53 55 55 50 49 43 43 39 35 33 33 30 31 29 29 27 32 28 31 35 35 37 39 39 35 39 40 38
33 34 43 46 45 44 44 45 47 46 47 46 45 42 43 42 40 42 46 51 55 53 51 52 46 44 42 36 33 35 33 32 32 31 32 31 29 30 30 27 32 40 40 40 40 41 37
18 23 29 34 37 39 40 42 44 43 45 44 43 40 39 39 39 40 41 45 49 50 50 50 45 47 44 42 36 34 37 34 33 35 35 35 35 33 30 30 27 30 37 41 45 44 42
16 21 26 30 33 34 37 39 41 40 42 40 38 37 36 37 36 37 38 41 43 45 47 49 46 46 42 41 38 37 35 34 34 37 36 35 35 36 34 32 36 37 33 35 41 44 46
20 21 24 28 30 32 33 35 37 36 36 37 36 35 34 35 34 32 32 35 40 41 44 46 44 45 41 39 40 36 36 37 37 37 38 35 36 34 33 35 36 38 39 38 39 40 44
23 24 25 27 29 31 31 32 33 34 36 36 35 33 33 34 27 26 28 32 35 37 38 41 42 40 41 41 42 41 37 35 35 36 37 37 37 36 35 34 37 37 39 40 43 44 46
26 24 24 25 27 28 28 30 32 35 36 36 35 35 33 29 26 26 29 30 31 34 35 37 36 37 38 39 41 39 39 40 39 38 39 38 38 38 38 37 37 39 39 42 43 44 49
25 25 26 25 25 26 27 30 32 34 37 38 37 35 31 28 27 28 27 25 27 31 33 34 32 34 34 33 36 38 40 38 35 38 38 38 38 38 39 39 40 39 40 43 42 45 50
27 26 25 25 27 29 26 21 19 23 28 30 30 29 28 26 27 26 26 25 27 30 28 31 31 33 32 33 34 35 37 38 38 39 38 37 37 38 36 36 38 36 40 46 45 47 52
27 26 26 29 27 21 20 19 19 19 19 22 23 26 28 25 25 27 28 26 25 26 27 27 28 28 28 30 32 34 36 39 39 39 38 34 34 31 31 31 31 29 28 39 44 41 51
32 30 25 19 20 19 18 18 19 20 18 15 18 25 30 28 24 24 28 27 27 26 26 24 25 26 28 29 32 33 35 37 38 35 30 27 27 27 29 27 28 28 29 29 28 35 30
17 17 17 19 19 19 19 20 21 22 22 16 9 19 29 26 23 26 27 26 25 25 21 21 24 28 29 30 32 32 34 35 30 24 22 22 24 27 28 28 24 27 30 33 29 34 36
16 17 18 19 19 19 18 18 20 19 21 19 10 15 21 24 22 25 25 25 27 27 25 23 27 29 30 30 28 28 28 24 22 20 19 21 23 25 26 27 23 22 28 25 28 36 37
18 19 20 21 22 22 19 17 18 18 16 14 14 15 15 21 25 28 28 30 30 28 29 33 33 26 31 29 30 30 28 24 21 21 21 20 19 22 23 22 18 19 18 18 21 26 32

GFSGBSN_500_spd_093.txt.gz
Wind_Speed
51 51 51 53 53 54 56 55 55 55 56 56 56 55 54 52 51 51 52 49 49 48 48 48 48 47 47 46 40 43 41 39 41 40 39 38 37 39 36 35 33 29 27 28 30 31 30
51 52 54 55 57 57 59 60 59 59 59 59 57 58 58 55 53 53 52 50 51 50 51 52 51 50 49 50 46 44 42 41 41 43 42 42 40 41 42 36 36 31 30 27 28 31 32
51 52 53 57 58 58 60 61 62 62 61 61 59 57 59 58 57 56 56 56 56 56 55 56 55 55 53 46 48 43 43 44 43 44 46 44 43 44 40 39 39 34 32 28 27 29 31
51 53 54 55 58 58 58 59 61 61 60 60 60 58 59 60 59 58 57 57 57 56 55 56 57 59 57 51 49 45 44 45 45 44 46 47 46 44 44 42 41 36 36 29 25 32 30
51 51 51 52 53 55 57 56 55 58 57 55 55 56 55 58 58 57 55 56 55 55 53 56 57 58 57 50 47 43 43 44 48 48 46 46 47 46 46 47 43 39 35 30 28 33 32
51 53 54 55 54 56 56 56 57 56 58 55 54 53 52 51 53 52 50 48 50 51 52 53 56 55 57 55 45 42 44 45 46 48 49 48 47 47 45 49 46 32 33 34 30 25 38
56 58 59 60 61 61 61 62 59 60 60 57 55 55 53 51 50 49 46 45 47 46 46 46 48 47 44 47 45 45 45 45 45 46 47 47 47 46 46 45 41 35 37 38 29 29 42
64 64 66 65 65 67 65 65 66 65 66 61 60 58 57 54 54 52 50 48 46 47 47 41 41 44 41 45 46 46 46 45 43 42 43 47 47 45 43 44 46 42 41 42 35 32 44
65 67 68 68 67 68 67 67 66 66 67 67 65 63 60 60 58 56 55 52 51 49 48 43 40 41 41 43 44 45 48 47 44 41 42 44 43 43 45 42 42 46 44 43 35 35 47
66 67 68 70 70 72 71 71 70 68 65 64 66 67 65 63 63 60 58 56 55 53 52 48 45 42 41 41 43 47 46 48 44 40 39 43 41 45 43 43 40 42 41 47 44 43 44
68 69 70 72 73 75 76 76 74 71 68 64 62 62 64 65 64 61 58 58 56 55 52 51 48 44 41 41 38 42 42 49 45 38 39 38 39 40 40 33 35 37 35 44 40 45 45
68 69 72 77 81 85 87 84 81 77 70 65 61 58 57 58 59 59 58 59 59 54 54 54 50 46 41 39 35 38 37 40 37 36 37 37 41 40 40 33 33 34 33 38 41 41 47
70 75 80 86 88 86 85 82 79 75 68 63 59 55 54 51 53 52 53 54 53 54 53 49 52 47 42 40 35 35 29 37 36 36 38 33 40 35 31 35 33 35 31 35 36 35 43
73 77 85 85 82 81 79 73 69 65 62 59 55 51 49 47 46 46 47 47 50 51 50 51 51 48 41 39 35 24 30 25 33 33 30 32 36 36 30 32 32 29 31 32 31 22 22
73 80 78 77 74 64 58 55 58 53 51 50 49 47 45 43 43 43 44 46 44 43 47 53 49 45 43 41 37 28 22 25 25 26 30 31 31 36 35 36 35 33 37 31 31 19 22
72 70 67 64 52 40 36 40 40 42 44 43 42 42 40 42 42 43 43 40 41 46 49 49 45 43 36 40 35 36 33 35 32 26 26 27 25 25 30 34 40 36 34 34 34 35 34
68 57 56 46 28 23 26 31 33 36 38 38 39 40 39 41 43 43 40 39 41 45 45 45 43 47 45 46 37 37 32 32 32 34 30 26 23 26 25 26 31 36 41 39 35 33 24
57 47 42 32 19 16 21 26 29 32 34 34 36 36 37 38 40 39 37 38 40 41 40 41 44 45 44 46 39 38 38 41 38 33 34 31 29 29 26 26 26 28 34 36 39 33 26
49 39 34 24 18 16 20 25 27 29 31 33 33 33 33 36 36 36 36 36 38 36 37 38 43 47 47 45 44 41 41 38 38 37 35 31 34 29 28 29 28 29 31 31 38 39 35
44 36 31 24 20 18 20 23 25 28 29 31 32 31 31 33 33 33 33 33 33 33 34 40 44 49 45 45 47 46 44 39 38 40 34 32 32 30 25 27 36 35 29 34 33 32 34
40 35 32 28 24 21 22 23 24 27 28 30 31 29 30 32 33 31 29 26 26 27 29 35 40 42 41 43 43 43 41 40 36 39 33 33 35 31 28 31 32 31 33 36 35 35 36
35 32 30 27 26 24 23 23 24 26 29 30 30 29 30 31 30 28 26 23 18 21 26 25 33 35 37 39 40 38 34 37 37 39 34 31 30 30 30 28 30 32 32 34 36 39 41
30 27 26 24 23 23 23 23 24 27 28 29 29 30 31 24 28 26 20 21 22 21 23 28 20 31 33 35 39 40 37 38 37 34 31 30 31 29 28 28 32 31 27 30 32 34 37
30 27 26 26 25 24 23 23 25 28 29 29 26 28 30 27 25 24 22 18 20 21 21 23 27 25 25 31 32 32 36 35 35 34 33 30 31 31 30 30 29 28 28 28 29 31 32
28 27 25 24 24 24 24 27 30 24 17 12 15 21 20 22 23 26 26 23 19 22 23 18 19 25 24 26 28 30 30 30 29 33 33 33 32 30 29 30 27 27 29 28 28 26 31
28 27 26 25 25 27 29 24 22 19 15 12 11 17 22 23 27 26 27 27 21 18 20 22 23 23 21 20 25 28 26 27 28 29 30 31 32 31 29 26 24 23 28 24 25 27 27
24 25 26 26 25 20 19 20 18 17 15 14 11 11 19 25 25 25 25 26 27 22 16 18 18 18 21 23 26 26 25 16 16 23 23 24 24 24 22 24 24 21 22 23 25 27 30
16 14 15 16 18 19 18 17 18 19 19 19 14 14 11 16 23 24 26 26 26 27 23 18 17 21 23 24 23 20 24 24 27 20 15 16 19 20 20 24 22 21 20 22 24 27 32
12 14 15 16 18 18 18 19 19 16 16 16 15 13 14 16 21 26 25 27 27 29 29 28 21 24 22 21 17 16 13 21 22 19 19 19 19 18 19 21 23 20 20 23 24 22 27

GFSGBSN_500_spd_096.txt.gz
Wind_Speed
54 55 53 51 53 52 52 53 53 52 54 55 54 55 55 54 54 53 53 53 53 52 50 51 53 52 49 46 39 46 36 38 36 36 36 38 38 38 40 37 38 38 27 29 33 33 30
52 52 54 54 53 54 54 53 54 54 55 57 57 59 58 58 58 56 55 54 54 53 51 50 50 50 48 46 44 42 42 40 40 38 37 38 40 40 43 42 40 37 37 31 33 32 32
50 51 51 51 52 53 55 55 55 56 55 56 59 58 57 58 59 57 58 55 54 52 53 53 52 51 49 45 46 44 43 43 40 40 39 38 41 44 44 44 40 42 40 34 33 31 32
45 45 46 47 49 49 51 52 53 53 55 54 55 56 58 54 55 56 55 56 54 51 51 52 53 54 51 47 45 46 45 43 43 41 38 39 43 45 46 45 47 45 41 39 31 33 32
43 44 45 47 48 48 50 50 51 52 53 53 53 53 54 53 54 53 50 50 52 51 50 50 49 52 54 49 50 45 47 44 42 41 38 40 45 46 45 49 49 48 44 39 32 29 31
43 46 48 51 53 54 54 54 55 56 57 57 58 56 55 55 55 53 51 50 50 50 49 45 46 51 52 51 48 44 43 42 41 42 40 41 44 45 50 52 51 46 43 39 37 28 31
47 50 53 55 57 60 61 63 63 64 63 63 64 61 60 59 59 58 54 52 52 51 49 43 43 40 42 45 50 43 36 39 40 44 40 40 43 47 50 51 47 46 44 42 36 27 19
52 53 56 59 60 60 60 63 64 64 66 68 67 67 66 65 64 62 59 57 54 54 52 46 39 44 36 40 48 35 39 43 38 39 41 45 44 45 50 50 49 47 44 42 41 40 37
56 57 58 59 60 62 63 63 65 65 65 66 66 66 63 62 66 66 63 61 57 56 55 50 44 41 41 42 40 36 39 38 36 38 43 45 42 46 47 48 48 46 45 41 43 44 41
57 58 59 62 64 65 67 68 69 69 69 70 72 69 66 61 60 58 62 62 60 59 57 54 51 45 42 41 42 38 35 36 38 39 43 45 44 45 45 48 42 45 39 38 39 44 46
56 59 62 65 66 67 68 70 70 72 75 78 79 78 75 71 64 57 57 55 57 57 54 49 56 49 44 42 42 42 37 37 36 38 42 42 44 44 46 45 38 40 31 33 36 37 45
59 61 63 65 67 68 69 70 75 77 82 83 84 81 77 72 69 60 54 50 49 50 54 49 53 52 47 42 40 40 35 35 35 39 43 45 45 42 42 40 38 33 27 35 33 32 41
62 62 64 67 69 71 71 75 80 88 79 74 73 71 67 60 55 54 49 47 46 48 43 39 37 48 49 46 44 39 35 35 34 36 41 41 46 44 43 39 32 34 34 32 31 36 38
64 66 67 69 70 71 74 76 81 77 78 74 65 60 54 48 46 45 44 44 46 41 38 32 27 31 39 43 43 38 36 37 34 35 38 43 40 37 43 35 29 34 33 30 31 27 27
67 68 70 69 69 70 73 69 69 72 51 37 39 38 38 41 43 42 44 45 38 33 35 35 35 32 39 37 41 37 34 37 27 37 38 39 39 33 36 40 32 29 33 30 32 22 17
68 71 70 69 67 68 63 60 60 41 19 30 28 32 34 37 40 42 44 36 34 35 42 43 41 36 25 19 32 33 30 31 37 30 27 32 13 23 36 30 32 34 23 27 30 35 33
68 70 68 66 63 62 51 49 41 22 25 21 23 26 29 31 36 39 37 33 33 34 41 36 36 37 32 29 29 23 28 30 41 34 24 24 23 14 22 28 26 32 40 34 26 29 32
68 68 68 63 61 54 42 36 25 14 13 16 19 21 22 26 30 33 32 32 33 35 36 37 36 35 35 34 41 34 36 39 43 38 37 35 27 25 10 21 27 29 28 35 38 31 28
67 68 65 63 61 45 35 27 23 16 15 18 20 21 19 21 22 26 28 29 31 33 34 38 37 35 33 39 42 37 43 47 44 38 41 32 30 29 28 22 16 21 18 22 32 35 36
68 68 69 66 49 38 31 24 21 18 17 21 21 20 21 23 23 21 20 25 28 31 32 36 37 37 37 44 47 49 44 46 42 43 40 37 33 30 25 25 31 28 28 30 28 27 30
67 75 58 40 35 32 29 26 23 21 20 21 24 21 18 19 23 22 22 22 17 23 29 33 35 36 38 40 47 49 46 49 45 44 42 41 39 32 29 30 29 29 29 27 28 29 30
69 51 32 29 30 27 26 24 23 23 23 23 22 22 25 23 20 18 20 23 21 17 17 22 28 29 33 48 46 51 48 48 48 46 44 38 42 34 31 31 29 28 26 27 31 35 36
41 25 24 27 27 24 22 21 21 22 22 21 18 21 25 21 16 20 15 15 20 21 20 15 16 12 20 20 32 43 47 52 45 46 47 41 37 31 31 28 27 26 23 27 27 30 34
29 26 26 26 26 25 23 22 22 23 20 19 19 24 26 22 26 16 18 17 16 19 22 19 21 13 14 27 33 38 42 40 37 35 39 32 29 30 23 25 28 22 22 26 26 25 27
33 31 29 27 26 26 26 24 22 22 20 19 22 23 27 25 29 26 21 22 22 21 19 23 17 21 18 16 22 28 32 34 32 32 32 31 28 27 27 25 25 24 22 24 24 26 27
30 27 27 27 26 26 23 23 23 23 23 19 17 17 22 19 21 25 19 25 24 19 17 19 18 19 23 19 18 16 21 29 32 32 32 33 31 28 25 25 22 22 24 22 21 24 25
34 32 31 32 32 30 25 24 25 24 19 18 16 15 15 19 23 26 23 23 26 22 18 21 20 20 23 21 21 15 19 15 14 22 26 24 26 26 25 27 23 20 26 18 22 26 27
22 19 19 18 21 24 24 22 19 18 18 17 14 15 10 7 25 28 29 29 32 26 21 19 18 18 22 21 20 12 21 21 19 12 12 18 22 25 22 23 21 21 25 25 24 23 24
17 14 13 13 12 15 19 19 17 16 17 17 16 15 15 12 16 23 27 28 29 30 29 24 26 15 17 21 16 16 13 21 25 20 17 12 14 13 16 15 17 20 23 24 26 24 23

GFSGBSN_500_spd_099.txt.gz
Wind_Speed
52 53 54 53 51 51 51 52 52 53 54 55 53 52 54 54 54 53 52 53 53 52 51 51 50 50 50 48 45 49 44 39 37 38 38 35 35 33 34 31 34 37 35 34 31 32 33
52 51 50 49 49 49 51 51 50 51 52 53 54 55 55 55 55 56 56 54 53 53 53 54 52 53 53 50 48 47 47 42 41 38 38 37 35 36 36 35 36 34 39 37 35 33 31
52 50 48 48 47 47 48 49 49 49 51 52 53 54 53 54 55 55 56 56 53 53 52 52 52 50 51 45 48 45 45 43 42 41 38 36 34 38 37 38 37 38 40 41 35 31 33
44 44 41 41 41 41 42 43 45 45 45 47 47 47 49 49 50 50 51 52 51 52 50 51 52 53 50 44 47 44 46 41 41 40 39 37 35 37 40 38 38 39 41 41 33 33 30
31 32 34 35 36 38 41 42 44 46 46 48 50 50 51 52 52 52 50 49 49 53 50 51 50 53 50 45 47 44 42 40 39 39 36 36 35 37 38 37 39 40 39 38 36 33 31
29 33 35 37 39 42 46 48 50 52 53 54 55 56 57 57 58 58 56 53 51 52 51 48 46 50 49 46 41 42 42 39 38 36 37 37 35 36 39 42 41 37 39 40 40 33 32
33 37 39 41 44 46 49 52 55 56 57 59 61 61 62 62 62 62 62 61 60 57 56 50 47 44 46 46 48 40 37 38 38 37 34 34 41 44 37 36 34 39 42 42 43 40 39
37 40 43 46 48 51 53 54 56 58 61 62 61 63 63 63 63 65 67 66 67 65 62 56 49 49 40 44 50 34 37 38 34 34 33 37 42 32 33 35 39 42 46 46 45 42 38
40 43 45 48 50 52 54 56 58 60 61 63 63 64 64 63 61 62 63 64 66 65 68 63 55 55 45 47 47 32 38 34 34 32 34 34 32 31 35 37 41 42 45 47 46 43 46
43 44 46 48 50 53 55 58 60 61 62 63 63 64 66 66 67 68 70 69 66 64 67 64 63 57 52 48 48 42 35 37 37 34 30 33 35 33 36 38 41 42 42 42 43 47 50
46 47 48 50 53 56 58 61 62 62 63 65 67 67 67 69 68 72 76 73 70 68 67 59 59 60 54 50 48 42 39 40 36 33 35 34 32 35 37 39 41 44 41 39 43 47 48
49 51 52 53 56 59 61 61 63 66 68 68 70 70 72 74 75 71 67 62 57 57 61 53 50 51 52 45 43 45 39 37 35 36 36 35 33 35 37 39 39 39 41 41 35 44 46
52 53 55 59 61 61 62 64 67 69 69 72 74 74 77 79 69 66 55 50 48 53 47 40 34 36 45 45 41 41 40 36 34 33 32 31 33 33 36 40 42 43 37 41 38 44 43
55 57 60 62 62 62 63 66 69 69 71 73 72 78 75 73 62 49 41 44 49 41 31 21 32 25 26 19 27 33 37 37 32 32 32 35 38 36 38 42 43 44 38 41 40 39 30
57 59 61 61 62 62 65 68 69 71 71 69 70 67 57 38 27 31 41 46 37 26 29 40 36 32 32 22 23 20 25 30 32 31 34 34 36 36 33 36 44 42 43 37 29 28 25
59 59 60 60 61 63 67 68 70 69 64 59 54 47 18 12 16 24 32 35 28 30 35 38 35 37 38 39 36 27 26 24 29 30 32 32 31 30 31 36 39 33 31 32 32 31 34
58 59 59 59 62 66 67 70 69 66 55 45 35 10 10 8 12 17 24 27 28 27 31 34 38 37 35 42 36 28 33 30 29 35 33 29 32 27 31 31 36 34 39 37 33 31 33
57 57 57 60 63 65 70 71 69 48 36 31 18 8 6 7 11 18 19 21 25 27 32 35 35 44 42 37 34 38 26 32 37 40 40 32 27 30 27 29 27 27 35 34 29 29 29
55 54 57 60 63 68 72 64 39 30 27 22 17 10 10 9 16 13 17 18 21 23 26 33 38 39 43 43 39 38 31 33 40 24 35 33 27 33 30 24 27 28 24 25 44 39 31
53 53 56 58 63 68 59 33 26 24 23 18 15 12 12 14 10 13 12 8 14 19 22 28 35 35 36 34 41 44 32 27 44 36 24 36 34 34 36 29 20 31 33 29 30 34 35
50 53 54 59 61 50 32 25 23 23 23 20 16 13 13 14 13 15 16 12 2 12 15 23 27 28 29 32 38 43 43 43 43 45 33 30 32 39 33 34 29 23 34 31 32 27 27
49 49 54 57 43 33 27 23 22 22 24 22 18 17 18 19 14 12 14 13 17 13 13 11 20 25 27 28 31 39 47 51 51 48 47 42 37 39 35 27 29 26 25 29 26 19 25
46 48 52 47 35 29 24 22 21 20 20 18 14 17 20 19 23 21 17 10 10 21 21 16 11 16 22 27 31 35 39 48 49 54 44 41 39 37 37 31 27 32 25 25 28 31 31
43 49 49 38 35 31 27 23 21 21 19 16 15 17 18 16 20 22 22 19 16 15 14 17 16 14 17 15 13 16 23 36 41 52 49 43 41 34 30 40 33 21 29 32 31 33 34
43 47 42 36 33 30 27 24 23 23 21 17 17 17 19 18 21 23 22 23 23 18 18 19 17 13 17 12 13 20 18 24 32 42 40 37 34 36 37 33 24 28 31 28 27 28 28
45 44 36 32 30 27 26 25 22 21 20 18 19 21 25 21 22 29 29 24 23 22 17 15 23 18 23 10 11 13 15 15 21 25 29 29 27 30 29 30 26 26 28 26 26 26 26
43 38 33 33 31 27 28 24 20 21 20 20 22 23 19 15 21 28 31 28 25 23 19 18 19 17 15 16 9 15 15 11 13 17 22 22 25 25 26 27 28 24 23 24 25 25 25
39 31 27 24 22 21 22 26 26 23 21 21 21 20 16 11 21 26 28 32 26 27 24 20 20 20 17 15 17 16 20 18 14 9 14 20 22 24 34 31 25 28 25 23 22 25 28
33 27 21 18 20 18 15 18 17 18 17 19 20 18 16 11 16 21 25 28 25 29 21 21 21 20 18 14 17 16 22 18 10 6 16 16 12 12 19 18 18 27 30 27 27 30 30

GFSGBSN_500_spd_102.txt.gz
Wind_Speed
54 53 54 53 55 56 55 54 53 51 50 48 49 48 50 51 53 55 54 54 55 54 53 54 54 52 49 48 42 46 43 44 41 42 42 41 40 41 38 35 35 34 28 31 30 31 27
55 54 53 54 54 53 51 50 49 46 45 44 47 47 47 48 49 51 51 52 54 55 55 56 56 55 54 52 48 49 47 46 44 45 45 44 40 42 43 40 39 33 32 31 32 31 26
55 56 58 55 50 49 45 42 40 40 41 41 42 42 44 46 47 47 49 49 48 52 53 53 55 54 54 46 50 50 47 46 45 44 42 42 43 45 43 42 41 38 31 29 29 30 29
56 57 54 49 41 33 29 29 31 32 34 36 38 39 41 43 45 46 47 46 47 49 48 47 50 51 52 44 48 46 49 45 44 45 45 45 45 45 45 43 41 39 34 29 29 29 29
58 54 46 31 25 25 28 30 32 35 36 39 41 43 44 46 47 49 49 50 50 50 50 50 49 49 46 43 43 43 44 44 43 44 46 45 47 46 45 43 42 40 36 29 28 28 30
42 29 22 22 24 26 29 34 38 40 42 43 45 46 48 49 51 55 53 54 55 54 52 53 52 52 48 45 41 39 39 43 45 43 44 46 45 45 44 43 41 37 32 31 32 31 35
22 22 23 26 29 32 35 39 41 42 44 46 47 49 51 54 56 58 59 60 62 62 58 54 55 54 50 50 46 42 43 41 40 41 41 44 46 47 43 38 37 37 36 35 34 35 37
22 25 28 31 33 35 37 39 42 45 46 49 50 53 54 57 58 59 61 64 65 67 65 60 57 57 50 47 52 43 39 39 39 39 41 43 46 42 39 41 38 36 36 34 35 36 39
27 32 34 34 36 38 40 43 45 48 51 52 54 56 58 58 59 60 60 62 65 68 72 66 59 61 54 50 55 47 44 42 41 42 40 39 37 36 39 39 39 38 37 34 36 36 39
33 34 36 37 39 41 43 47 49 51 55 56 58 60 62 62 63 63 64 63 65 68 73 67 68 63 61 55 56 53 43 47 44 40 38 41 38 37 37 36 38 34 37 38 38 39 41
36 37 38 41 42 44 48 50 53 55 57 59 61 63 64 63 62 65 66 65 64 66 74 60 60 62 61 54 48 50 50 50 48 44 42 42 38 35 35 33 37 33 37 38 38 40 42
38 40 41 43 46 48 51 53 55 57 59 60 60 62 62 64 64 69 66 67 71 73 75 62 53 53 50 45 39 42 46 50 48 47 45 45 41 39 38 38 39 38 38 39 41 43 45
41 42 44 46 48 51 53 56 58 59 60 60 63 65 68 69 70 74 72 76 71 69 59 45 41 42 41 35 33 34 40 46 47 48 48 42 39 36 37 37 36 36 39 41 43 44 42
43 44 46 48 51 53 55 58 59 59 60 63 65 68 73 75 77 76 67 63 42 41 31 23 39 41 39 35 31 33 40 46 43 42 43 42 41 40 39 39 36 32 35 40 40 38 32
45 47 49 51 53 54 56 57 58 59 62 64 67 72 74 61 52 52 40 25 24 15 22 35 32 24 30 34 35 34 35 40 40 40 42 41 42 39 37 35 34 34 40 38 36 38 35
48 49 51 52 53 54 55 55 57 59 63 67 70 59 41 36 30 20 8 15 9 19 21 28 39 33 31 28 16 32 33 37 40 39 42 42 41 38 34 33 33 36 32 37 39 40 37
50 51 51 52 52 53 53 54 56 60 65 67 56 26 27 21 12 8 4 3 16 23 23 25 29 34 34 14 29 23 29 26 32 34 35 37 35 32 29 31 32 35 39 39 38 37 35
51 51 50 51 52 51 51 53 56 61 61 54 20 20 19 11 6 8 7 5 13 13 20 25 25 32 33 26 30 31 32 26 26 30 30 37 33 33 27 27 27 34 37 38 42 39 34
50 50 49 50 48 48 50 51 56 56 48 26 14 17 14 12 10 10 8 9 10 11 17 22 29 29 35 30 37 41 42 36 34 37 23 41 34 32 26 30 31 42 36 38 42 37 36
50 48 48 47 45 46 46 51 52 45 35 17 14 15 13 15 18 12 10 8 7 8 15 21 26 27 32 39 24 30 41 45 35 41 39 38 37 39 36 33 35 35 42 41 42 38 34
46 46 45 43 44 43 46 49 43 38 31 20 18 17 15 16 15 14 12 9 12 5 11 14 22 25 29 35 41 36 38 38 36 32 36 24 39 35 32 34 35 33 37 43 45 43 38
45 44 42 41 41 40 46 41 36 33 26 19 18 19 20 17 17 10 14 13 14 11 10 7 12 19 23 28 38 48 46 42 39 38 29 31 24 32 31 32 32 29 36 34 38 30 26
43 41 40 39 38 41 43 38 34 31 26 19 17 19 20 18 25 22 17 14 14 18 16 14 10 13 19 22 26 30 33 34 40 46 43 36 21 25 28 32 30 30 25 24 28 30 28
41 40 38 36 36 41 39 35 31 30 25 19 17 17 17 18 24 30 26 22 16 13 19 21 18 12 14 17 22 24 26 30 36 35 38 41 41 27 28 29 31 31 29 25 27 27 31
40 39 36 33 37 39 37 31 28 27 24 22 20 18 18 15 20 20 26 28 23 19 15 17 19 14 12 10 16 19 23 29 30 36 35 37 37 36 33 34 32 28 30 30 29 30 28
39 35 32 33 37 37 33 33 31 27 23 21 22 20 18 16 17 21 22 24 25 27 24 18 19 15 13 15 11 10 12 13 19 30 37 37 36 42 44 40 35 28 36 29 27 28 27
36 33 31 34 36 33 31 28 28 27 22 19 20 20 18 18 20 22 26 27 26 26 25 19 18 16 10 10 13 8 11 11 6 4 12 27 33 35 33 32 31 30 31 24 30 30 29
34 32 31 33 32 31 26 24 23 24 23 14 20 21 19 14 18 21 22 28 30 28 24 19 18 16 13 10 9 10 15 13 11 12 11 14 19 25 26 27 27 31 25 28 28 29 27
34 31 31 32 30 26 23 21 19 21 23 21 19 16 14 12 14 15 15 23 29 29 23 25 20 16 15 13 12 15 15 15 10 7 10 21 20 19 17 14 22 27 24 26 25 25 25

GFSGBSN_500_spd_105.txt.gz
Wind_Speed
54 54 56 55 54 54 55 57 58 59 57 57 58 55 52 51 48 51 52 55 56 56 56 54 51 50 50 49 46 50 45 42 43 42 43 43 43 42 40 40 42 43 38 37 35 35 36
49 51 51 52 54 57 57 58 58 57 52 50 46 47 45 44 43 45 46 46 50 53 53 53 53 54 51 49 49 50 50 46 45 43 43 44 44 44 48 44 45 43 43 39 41 38 34
51 54 52 51 53 56 56 59 60 55 46 40 36 34 35 37 38 40 40 42 43 49 50 52 51 51 51 43 49 49 49 50 50 46 44 45 44 46 48 46 44 46 45 44 44 39 31
55 55 54 52 51 51 52 56 51 44 31 27 28 30 33 35 38 39 40 42 43 44 46 46 48 51 50 41 45 48 50 47 47 48 45 45 46 49 48 46 46 47 47 46 45 40 32
54 54 53 49 48 48 48 41 37 29 26 28 31 33 35 37 39 41 40 42 44 43 45 47 48 49 46 45 43 44 44 45 47 49 47 46 49 49 48 50 48 47 47 45 44 39 36
54 48 45 42 40 34 29 24 25 26 29 31 35 38 37 40 42 46 46 46 46 47 46 48 47 47 47 49 47 43 45 45 46 48 49 48 50 49 50 51 49 45 44 46 45 41 40
41 41 37 35 28 23 22 25 29 32 34 36 38 40 42 43 45 49 49 48 50 51 49 51 52 52 48 51 53 48 47 47 48 47 47 47 50 51 50 45 44 46 47 46 44 45 43
39 37 32 26 23 24 29 31 32 35 37 39 41 44 46 48 50 52 54 55 57 58 54 52 54 54 53 50 54 47 48 48 48 48 46 48 47 47 47 46 47 49 49 47 46 44 45
38 32 24 24 28 31 33 34 36 40 41 44 46 48 50 51 54 56 57 58 61 62 66 57 55 57 57 60 59 50 50 50 49 48 48 48 43 46 48 47 48 48 47 47 44 42 44
31 26 27 28 31 33 35 39 40 43 44 47 50 52 53 54 57 59 61 63 63 66 71 64 65 62 60 62 66 59 46 54 53 51 49 47 43 45 44 42 46 47 45 46 46 50 49
29 28 29 32 35 38 39 41 43 45 47 50 53 55 57 61 62 64 63 65 66 69 76 63 59 66 65 58 57 58 52 54 59 53 54 50 47 44 44 37 42 39 41 42 45 48 48
31 30 33 37 37 38 40 42 44 48 50 52 55 57 60 62 64 65 65 67 69 71 79 70 61 66 69 65 58 53 54 48 51 56 57 51 53 47 44 43 41 43 44 45 47 47 47
31 35 36 38 38 40 42 43 46 50 52 54 57 59 60 63 64 68 70 74 78 79 68 61 58 56 54 52 48 45 44 40 46 53 58 55 54 52 50 48 45 45 45 46 47 49 45
36 37 38 39 41 42 44 46 49 52 54 55 56 57 60 63 65 72 76 66 57 52 35 21 33 28 40 34 30 37 40 38 41 42 51 58 54 52 50 48 47 48 47 47 48 47 43
39 39 41 42 43 45 46 48 51 53 54 55 55 57 60 65 68 59 43 41 38 6 2 13 20 21 25 25 31 35 34 40 44 42 42 49 54 53 51 48 49 45 48 40 43 44 44
41 42 43 43 44 46 47 49 52 53 53 53 53 57 61 60 44 32 24 16 3 5 12 13 11 13 20 23 25 35 32 37 42 46 44 44 49 50 49 50 49 49 39 40 42 44 42
43 44 44 44 45 46 47 49 50 52 51 51 53 57 56 37 26 19 11 5 9 20 19 14 11 7 22 30 19 20 22 38 38 42 48 45 47 46 47 47 45 45 43 44 43 41 39
45 46 45 45 47 46 47 47 49 49 49 49 51 51 39 24 21 15 11 11 12 11 20 16 20 14 17 30 12 15 6 17 44 41 37 44 45 45 42 39 41 41 40 42 44 42 40
47 46 46 47 47 45 45 46 46 46 46 48 47 41 30 22 19 17 18 14 11 8 11 13 16 18 20 27 25 8 11 10 16 10 20 35 39 38 36 34 37 38 40 39 41 38 40
47 49 47 46 45 43 42 43 43 43 44 45 39 34 29 23 19 17 17 14 12 8 9 13 16 27 23 19 26 26 8 20 21 19 13 22 26 37 35 33 29 30 35 36 39 43 44
49 48 46 45 43 42 42 40 41 41 42 38 34 30 27 27 22 19 17 17 13 12 10 13 16 17 26 26 27 29 27 7 7 29 22 16 28 22 36 37 34 27 29 36 39 42 43
47 46 44 43 41 40 37 37 37 39 40 33 31 29 28 26 23 21 21 20 16 15 13 14 13 15 22 24 25 30 32 28 16 20 28 28 23 22 37 34 36 33 21 34 40 40 36
45 44 42 41 39 37 35 35 35 38 37 29 30 28 24 22 23 23 23 18 16 18 17 16 10 11 14 20 22 28 35 35 25 27 29 36 25 16 8 23 13 21 37 25 36 39 41
44 42 40 38 37 35 34 33 35 37 33 29 28 27 22 19 20 24 28 27 17 18 17 21 16 11 12 16 19 25 33 35 34 33 33 35 35 19 13 18 19 13 22 20 29 32 19
44 41 39 37 36 34 33 31 34 34 31 29 29 26 24 22 21 22 25 30 25 21 19 18 22 21 18 14 15 20 21 22 26 27 30 31 27 35 28 14 16 12 18 22 21 21 24
44 41 39 36 34 32 30 31 33 32 30 28 28 26 23 23 21 21 19 21 26 29 25 21 19 21 18 9 9 13 19 23 25 27 30 28 27 29 32 29 21 19 18 22 18 22 18
43 40 37 34 32 30 30 31 30 30 29 25 26 24 21 19 19 20 20 21 21 23 29 28 24 18 15 10 8 11 11 16 17 16 18 25 28 32 27 33 30 27 25 23 23 25 20
44 39 35 33 31 29 30 29 28 28 28 23 25 20 18 16 18 21 23 21 24 25 25 25 22 18 15 9 6 10 11 14 16 13 4 13 21 28 27 29 28 30 29 28 28 30 24
44 40 36 33 31 30 30 27 26 27 26 19 20 19 15 11 15 19 18 19 23 28 26 25 21 18 18 15 10 9 10 12 16 10 5 13 19 20 26 21 20 25 27 27 25 27 24

GFSGBSN_500_spd_108.txt.gz
Wind_Speed
49 50 50 50 51 52 55 57 58 59 59 58 56 56 56 57 58 59 58 56 57 55 54 54 54 54 51 51 49 51 49 47 45 44 44 45 45 44 43 39 40 39 37 37 37 39 42
54 52 52 53 53 55 57 58 59 60 58 53 49 49 51 56 57 54 51 50 50 53 52 51 50 51 53 47 47 49 48 47 47 46 46 45 45 45 45 45 44 41 40 39 38 42 43
55 54 54 54 53 55 58 59 56 55 52 50 50 51 53 52 52 50 40 38 40 44 45 46 47 48 47 44 45 44 46 45 45 45 46 47 48 48 47 46 46 45 44 44 44 43 43
55 55 55 51 53 53 55 55 53 50 49 48 48 51 51 48 37 38 35 35 37 36 37 40 43 44 46 43 43 44 43 42 45 47 45 47 47 48 48 48 48 49 48 46 44 43 43
52 51 53 54 53 53 50 47 44 44 43 44 38 38 35 34 34 33 36 36 38 37 38 39 41 42 43 43 42 42 42 43 43 44 46 46 48 48 49 51 52 51 50 46 42 45 46
49 49 51 52 50 47 41 38 40 39 37 35 27 29 32 35 37 37 37 40 40 39 40 40 43 45 44 47 46 43 46 46 46 46 47 49 49 49 48 53 52 50 47 46 45 46 47
49 49 50 48 42 36 36 35 37 32 30 31 32 34 36 39 41 43 43 45 47 46 43 45 45 43 44 47 48 42 45 46 49 50 50 49 49 48 48 48 48 49 49 49 49 50 52
48 47 46 43 36 35 35 33 31 30 32 34 37 39 41 44 46 47 49 50 51 52 45 44 49 49 50 53 49 43 44 50 48 49 51 53 50 45 47 48 51 53 53 51 50 50 51
47 43 40 36 36 34 31 30 32 33 35 37 40 42 44 46 48 51 52 54 57 60 61 52 55 53 54 56 55 54 50 48 52 48 51 56 48 48 48 48 49 50 51 52 50 47 45
43 38 36 36 37 33 31 32 33 35 37 40 42 44 45 48 51 52 55 58 62 65 67 62 67 68 63 62 61 61 60 54 53 56 51 53 49 53 52 48 50 50 47 48 47 46 47
38 36 37 38 36 33 32 33 36 39 39 41 43 46 48 50 52 55 58 62 65 65 69 68 72 72 73 72 69 62 61 60 58 54 57 52 54 54 53 44 45 43 43 42 44 46 48
37 38 39 38 36 35 34 36 38 39 40 42 45 47 49 52 55 59 62 66 67 70 80 74 74 74 75 72 70 68 63 59 59 53 57 57 59 61 53 51 46 43 42 43 45 45 50
39 40 40 39 35 35 36 37 38 39 42 44 47 49 51 53 56 60 62 65 68 71 73 70 67 61 56 56 54 58 58 53 53 54 51 52 57 60 59 56 52 49 46 44 46 48 46
43 42 39 38 36 37 38 38 40 41 43 45 48 50 51 54 57 59 61 66 68 66 59 55 45 30 31 30 32 33 29 33 39 46 49 56 58 57 61 59 56 50 48 44 44 46 45
45 41 40 39 38 39 39 40 42 43 44 46 49 50 52 53 55 58 61 64 58 51 45 24 21 18 15 15 14 22 29 26 33 34 44 49 56 56 58 56 52 52 53 43 41 42 45
45 44 42 40 39 41 41 42 42 43 44 47 49 49 51 51 54 56 58 49 39 34 20 20 21 10 9 14 11 6 20 29 32 34 36 40 46 44 51 56 55 52 48 46 43 46 48
49 46 41 40 41 42 42 43 43 43 45 46 47 48 48 50 51 52 46 37 30 27 24 25 19 18 7 16 19 6 13 3 23 30 27 31 37 31 34 46 50 51 52 51 47 45 45
48 45 41 40 42 42 43 44 43 44 45 45 45 45 47 47 47 45 35 31 24 23 24 20 21 18 7 7 20 20 5 10 21 30 30 30 38 34 32 34 41 46 48 45 47 44 45
48 44 42 42 42 43 44 43 44 44 44 42 42 44 44 44 41 36 31 29 25 22 21 16 14 24 24 21 14 16 4 10 12 12 24 33 31 37 31 34 36 39 41 42 43 43 44
45 42 44 42 42 44 45 44 43 43 41 39 39 42 43 40 36 31 29 29 25 21 19 15 12 17 21 23 24 17 22 11 14 10 9 9 26 31 34 34 34 37 37 36 37 41 42
45 46 46 44 46 45 45 44 42 41 39 37 37 39 40 35 33 30 28 28 24 20 18 14 14 16 23 20 24 27 26 28 8 8 4 5 4 7 16 34 34 30 32 34 35 37 40
48 46 46 46 44 44 42 41 42 39 37 36 36 38 37 32 30 28 28 27 23 23 20 17 14 12 22 20 19 17 23 26 23 10 1 3 3 2 15 29 30 35 26 28 32 34 37
50 48 46 44 43 41 39 38 38 37 34 34 35 37 33 31 29 26 25 24 24 22 26 20 17 13 17 18 15 16 16 19 23 24 22 14 8 8 7 18 32 34 39 23 25 26 28
49 46 43 42 40 39 38 37 36 34 33 33 35 35 32 27 27 26 26 24 24 25 20 22 18 17 15 17 14 15 13 15 14 25 24 18 19 16 16 5 21 29 32 29 30 29 31
50 48 44 42 40 38 36 35 34 33 31 33 33 33 30 26 24 25 27 25 21 24 22 20 19 20 21 21 20 16 14 12 11 14 18 18 23 23 18 14 6 16 12 9 23 15 28
51 49 46 43 40 38 36 34 33 32 30 32 32 31 29 27 21 24 25 24 20 20 23 23 22 17 19 23 22 13 10 11 10 11 12 14 18 23 21 22 12 14 11 8 6 10 6
53 48 45 43 40 38 35 33 32 31 31 31 31 29 28 25 21 22 24 21 18 16 18 21 28 25 14 13 11 11 9 9 11 11 13 17 20 23 19 28 21 10 10 8 8 7 9
54 49 44 42 39 37 35 32 30 30 31 30 29 28 27 19 20 21 19 20 22 25 23 23 20 22 20 13 10 4 8 9 11 11 13 18 18 15 20 29 26 22 16 15 11 10 14
56 50 45 42 39 36 34 31 30 30 29 28 26 26 17 15 15 18 18 20 21 23 21 23 19 16 15 13 17 3 5 6 10 14 10 2 13 15 14 21 21 23 19 17 15 16 18

GFSGBSN_500_spd_111.txt.gz
Wind_Speed
44 42 40 40 42 44 44 45 48 48 50 52 51 53 54 57 54 49 47 45 47 46 47 48 50 55 55 51 48 52 53 51 48 47 46 46 46 45 45 44 44 44 42 42 43 41 42
45 42 42 43 44 47 48 49 49 51 53 53 54 53 52 52 49 45 45 46 45 50 50 52 52 50 50 45 43 45 48 47 48 48 47 45 47 48 46 46 46 46 44 42 41 41 41
46 44 45 46 48 50 50 47 50 51 53 54 53 49 45 43 42 40 41 43 44 46 48 48 48 43 42 39 41 40 42 40 42 44 44 44 45 48 48 48 48 47 46 47 45 44 42
47 48 47 48 49 50 48 49 50 52 50 51 48 42 40 36 37 39 38 40 39 39 35 38 45 40 36 33 34 39 40 40 41 45 42 45 45 47 48 47 48 48 49 48 48 46 43
50 51 50 49 49 47 47 49 49 49 48 47 44 40 37 38 37 36 30 28 29 30 32 35 33 30 35 42 43 38 39 41 43 45 46 46 48 47 47 48 49 51 50 50 49 46 46
52 51 50 49 49 48 48 48 46 44 43 39 37 37 38 37 37 32 31 33 35 36 36 37 37 37 39 41 41 42 46 41 43 46 47 48 47 47 47 51 50 50 49 49 49 50 48
50 50 49 48 47 47 46 45 42 40 36 35 36 37 39 37 36 34 35 38 40 40 39 39 41 41 42 42 42 43 45 46 48 46 48 50 50 44 48 47 46 48 49 49 50 53 53
50 48 46 46 46 45 45 43 37 36 36 35 36 37 37 37 36 39 41 42 44 44 41 42 44 47 48 48 48 52 50 49 47 47 48 53 53 47 49 49 48 49 49 47 51 51 53
49 47 46 46 45 44 42 38 35 35 36 35 36 37 36 37 39 42 45 45 46 47 48 49 52 52 55 55 54 56 55 53 53 51 52 52 43 51 52 52 51 49 49 48 49 49 48
46 47 48 44 43 41 38 36 36 36 35 35 36 36 38 38 40 44 45 46 48 50 52 56 59 62 62 63 62 63 63 60 59 59 58 58 46 51 53 52 52 51 48 48 47 47 46
48 49 47 43 43 41 38 38 37 37 36 35 37 36 37 39 42 45 47 48 49 52 54 60 62 63 66 70 72 66 60 62 61 59 62 57 57 54 54 47 52 49 48 46 46 46 46
49 48 44 42 41 40 39 40 38 38 36 37 37 36 38 40 44 46 48 49 52 53 57 61 63 67 68 68 67 70 70 59 56 59 58 59 56 57 52 56 52 49 52 51 48 47 50
46 44 43 42 41 40 42 40 39 39 37 38 38 37 39 40 44 46 48 52 54 55 59 61 64 66 62 59 51 45 43 42 42 45 51 54 57 54 51 56 56 54 54 51 48 50 50
46 43 43 42 43 43 43 41 42 38 38 38 38 38 40 41 45 47 49 51 53 57 58 61 61 54 44 38 20 18 21 14 12 23 27 44 49 54 52 53 57 56 53 53 50 50 46
46 43 43 44 46 45 42 44 40 38 37 39 39 39 40 42 45 47 48 51 53 55 56 54 48 43 22 21 15 8 21 11 15 15 27 29 35 47 51 51 54 56 56 50 45 42 44
46 44 46 48 48 45 43 44 40 38 37 40 40 39 40 43 46 47 46 48 50 52 46 41 40 35 18 16 21 24 20 10 8 26 28 22 24 33 43 48 50 51 48 46 44 44 46
47 47 50 48 48 43 47 44 39 37 38 39 39 39 40 42 45 44 43 45 46 45 38 35 32 29 19 18 16 13 17 11 8 12 14 27 26 23 26 31 40 46 50 51 46 43 43
49 50 51 47 46 48 48 44 39 37 38 38 39 39 40 42 43 41 42 41 41 37 34 30 26 24 22 24 17 17 14 10 9 5 16 6 14 20 22 20 19 33 37 34 45 45 44
49 51 51 51 50 51 48 44 39 38 38 38 38 38 39 41 40 39 39 39 36 32 30 27 25 23 20 18 25 21 17 16 14 11 8 13 21 18 22 27 24 19 27 38 37 38 39
47 48 49 49 48 49 47 45 41 37 35 37 37 38 39 39 37 37 37 36 34 31 27 24 21 21 22 16 18 22 21 15 5 10 13 12 2 21 22 29 29 29 17 22 33 38 37
45 45 47 50 50 51 49 43 38 35 34 35 36 37 38 36 35 36 34 33 30 27 25 22 21 21 24 18 11 19 22 21 16 9 9 12 11 14 27 27 29 27 25 24 20 24 31
48 46 46 46 47 43 38 38 37 36 32 35 35 34 35 34 34 34 33 30 27 23 22 24 21 21 23 21 15 13 19 23 19 15 8 8 8 12 12 29 30 27 23 19 24 27 27
47 44 43 42 41 39 36 36 34 34 32 33 35 34 33 33 34 34 33 30 24 21 23 21 21 21 22 21 14 12 13 10 16 17 17 13 7 7 9 5 22 23 25 23 21 25 26
50 48 45 43 42 39 37 35 35 33 33 33 32 31 30 31 33 32 32 31 24 23 19 21 19 15 18 20 18 11 12 8 8 13 11 11 10 9 11 5 6 18 22 24 27 28 26
54 50 46 44 42 39 37 35 34 33 31 30 30 30 30 31 33 31 31 28 23 22 19 16 21 16 14 17 22 21 18 11 4 5 5 9 11 10 9 5 6 15 19 17 18 11 19
58 53 50 47 44 41 38 36 34 32 29 28 29 29 29 32 29 30 30 28 22 19 19 17 17 18 16 12 16 16 17 9 5 4 4 2 4 9 15 8 6 9 21 18 17 16 8
62 57 52 48 46 42 39 36 34 32 29 28 29 29 30 31 29 30 29 24 20 19 16 16 13 15 20 16 12 5 8 6 6 5 5 4 5 8 16 13 8 9 9 11 15 15 12
61 58 54 50 46 41 38 35 33 31 29 28 29 28 30 28 29 26 20 22 19 17 16 18 19 18 14 15 13 8 4 4 6 5 7 8 7 8 12 15 11 17 10 6 9 11 14
57 55 52 48 45 42 38 35 32 31 29 28 29 29 28 25 20 16 18 17 14 14 16 20 19 18 14 12 11 12 8 8 10 12 12 7 5 9 13 17 14 19 17 8 8 8 6

GFSGBSN_500_spd_114.txt.gz
Wind_Speed
45 45 43 41 39 36 35 34 34 35 34 34 37 39 41 43 47 47 48 48 48 45 44 42 40 41 44 46 48 49 48 47 48 49 49 49 49 48 49 50 49 48 49 49 48 47 47
47 47 48 45 41 38 38 37 38 38 38 39 39 41 41 44 46 48 45 43 40 41 40 38 36 39 40 44 43 46 46 46 44 45 46 48 49 50 51 49 50 51 51 50 48 47 45
51 48 46 43 41 39 41 39 41 40 40 38 39 41 42 45 42 41 38 38 38 42 36 33 34 38 37 39 39 44 44 38 40 42 42 44 47 50 53 53 52 51 52 50 50 50 45
50 50 48 46 44 42 45 43 43 44 42 40 40 42 43 40 37 37 34 36 37 38 36 33 33 35 34 33 31 37 41 34 34 38 40 43 43 47 50 53 52 53 53 52 53 52 50
53 53 51 49 49 46 47 46 43 42 43 40 42 42 41 36 32 29 31 33 35 36 34 35 33 35 38 38 36 35 34 35 43 40 41 40 45 48 47 50 52 53 55 55 54 54 49
56 53 52 50 49 48 45 45 43 41 43 43 42 39 36 32 28 29 31 33 35 36 36 36 35 38 39 39 38 38 37 38 38 39 43 44 46 47 48 51 53 53 54 52 51 53 55
57 54 49 44 44 45 46 44 42 44 43 41 39 36 33 30 30 30 31 33 35 36 39 40 41 41 42 40 42 44 44 44 44 42 44 44 49 46 47 50 46 52 52 53 52 56 56
54 50 48 46 46 45 45 42 43 43 41 39 37 34 32 31 31 32 33 35 36 38 40 41 40 39 41 43 45 48 48 49 47 48 48 47 47 39 51 50 50 51 51 48 53 54 57
50 49 48 47 46 43 40 42 44 42 38 36 35 33 33 33 33 33 35 36 39 41 41 41 42 45 48 49 51 54 55 56 55 54 54 54 42 48 48 52 53 52 51 52 52 52 54
52 52 50 45 42 42 42 44 43 40 37 35 36 35 36 35 35 35 36 38 40 42 43 44 45 48 52 55 59 60 61 62 62 61 59 56 54 55 54 51 50 54 53 56 54 50 49
50 47 45 44 43 43 45 44 41 38 38 37 37 36 37 37 36 35 37 39 39 41 44 44 46 48 53 58 62 66 66 65 62 62 61 55 57 62 59 50 53 49 52 54 53 52 49
49 47 45 43 43 46 46 43 40 38 38 38 37 38 39 37 34 36 38 38 40 41 45 47 48 51 55 58 60 64 64 60 61 59 55 58 56 61 59 58 58 53 53 50 51 52 55
49 45 45 44 45 45 44 40 39 39 38 39 39 41 40 36 36 37 37 38 42 41 43 47 51 53 57 60 61 57 44 18 24 22 22 35 50 55 60 60 57 57 56 54 52 55 54
46 46 43 45 45 44 43 40 40 40 41 41 40 42 39 36 35 36 37 38 40 42 42 47 51 53 55 56 49 33 7 8 15 24 16 25 23 38 54 61 56 58 56 55 55 52 51
47 44 44 45 45 45 44 42 42 43 43 42 42 41 38 36 36 36 37 38 40 41 43 47 49 51 48 43 38 13 17 25 17 15 16 15 13 12 27 48 52 51 52 50 37 27 31
49 47 46 46 46 47 45 43 45 45 43 42 42 41 37 35 35 35 36 38 40 41 44 46 49 46 42 34 28 19 21 23 17 21 10 10 16 6 11 26 38 43 44 41 38 41 48
50 48 48 47 48 47 46 46 47 44 44 44 40 40 36 35 34 34 36 38 39 41 42 43 44 37 32 30 26 19 13 19 23 20 9 11 17 11 12 14 15 35 43 37 35 41 33
49 49 49 49 48 47 48 48 45 44 44 43 41 40 37 35 33 33 35 36 37 39 40 41 36 29 26 27 22 16 16 26 28 15 3 8 2 19 15 15 18 18 23 27 35 40 44
46 48 47 46 46 45 47 44 44 45 45 41 41 41 36 33 32 32 34 34 36 37 38 38 31 26 22 23 23 12 19 20 22 14 13 10 3 9 9 18 19 22 28 27 29 28 33
46 43 43 44 43 43 44 43 42 41 38 40 41 39 33 31 30 31 33 33 35 36 35 32 26 23 20 18 20 15 20 18 23 14 9 9 7 6 12 11 23 19 13 21 35 32 33
39 39 38 37 37 39 39 39 39 39 38 41 39 35 30 27 29 30 31 33 34 34 31 28 24 22 21 17 14 16 15 15 22 23 12 12 8 7 17 20 20 21 12 14 19 26 30
39 39 38 38 39 39 40 40 38 39 41 40 37 28 25 27 29 30 30 31 33 31 30 26 24 21 22 19 13 8 10 21 15 18 16 14 9 11 5 26 22 21 20 11 7 17 21
42 40 40 39 38 39 39 37 37 36 33 30 25 23 25 27 28 28 29 31 32 29 28 26 24 19 20 20 14 11 7 6 13 10 9 8 12 12 14 10 17 22 21 15 10 14 14
46 45 44 41 40 41 42 38 35 29 23 22 22 25 27 27 27 28 29 31 32 30 26 26 24 18 17 18 15 12 8 6 6 5 9 5 6 10 12 11 13 17 20 18 16 14 16
47 45 44 41 37 35 34 31 28 24 23 25 26 26 25 25 26 28 29 30 32 30 26 23 24 19 16 15 12 12 12 7 4 6 5 2 2 4 8 9 7 16 18 16 18 19 19
52 49 47 43 37 37 34 32 30 28 26 26 25 25 24 25 26 29 29 31 30 29 23 22 20 17 15 15 10 7 8 10 5 8 8 8 4 4 4 4 2 9 21 16 14 13 12
59 55 53 49 45 42 39 37 34 31 29 27 26 25 24 26 27 28 29 29 30 21 21 20 17 14 11 13 12 6 4 6 8 7 10 11 6 4 3 4 7 4 28 24 19 14 10
62 60 58 52 49 45 42 39 36 34 30 27 27 25 25 27 28 27 28 28 18 18 16 14 16 16 14 11 14 11 7 5 6 8 11 8 5 8 9 7 9 7 9 20 21 18 10
58 56 58 56 51 48 44 39 35 32 29 27 27 25 25 27 27 25 26 17 13 13 13 16 15 16 17 14 15 14 12 9 8 11 11 11 6 7 10 13 11 11 12 13 24 15 10

GFSGBSN_500_spd_117.txt.gz
Wind_Speed
40 39 39 40 42 41 38 39 40 38 34 36 36 35 34 35 36 35 36 37 40 40 42 41 39 39 40 41 43 45 46 44 46 48 49 48 51 54 55 54 53 54 54 53 53 53 54
48 44 41 42 41 39 38 38 35 36 36 35 36 36 38 36 35 35 35 37 40 39 37 36 36 37 37 39 39 42 42 42 44 47 47 48 48 53 54 55 56 56 55 57 56 56 54
50 49 47 41 42 42 42 40 37 35 37 39 39 38 38 37 36 36 37 38 37 34 33 35 35 35 35 35 37 37 36 36 37 43 44 44 48 48 53 53 54 57 57 57 56 56 55
53 51 49 44 41 41 40 42 42 40 40 40 39 38 37 37 38 38 37 35 33 31 30 33 34 32 34 36 36 35 36 35 35 34 36 37 41 49 43 53 53 55 58 58 54 57 57
51 48 47 48 43 43 44 44 44 43 40 39 39 38 38 39 41 40 35 32 31 28 29 30 32 33 36 37 37 38 38 37 37 38 39 39 41 40 38 44 49 54 59 56 56 52 55
54 51 46 45 45 45 48 45 44 41 41 39 37 38 38 42 41 38 34 31 28 27 28 30 31 34 34 37 39 40 41 42 41 39 42 43 41 41 43 42 50 42 49 51 50 50 51
55 48 47 47 46 47 46 45 42 40 39 39 38 38 40 42 37 36 32 28 30 29 31 32 31 34 38 39 39 40 40 41 44 47 46 46 46 44 44 46 42 49 50 49 51 37 41
55 56 50 49 48 45 43 43 42 41 41 39 39 40 42 38 37 33 29 29 31 32 32 32 35 36 38 39 40 41 42 45 49 49 52 53 51 47 47 47 47 51 50 52 46 47 48
54 54 53 53 47 41 40 43 43 42 39 38 40 42 39 36 35 31 30 31 32 33 34 36 38 38 39 42 44 46 48 51 53 55 57 58 52 54 54 51 50 51 53 45 52 47 39
61 56 54 49 45 41 43 44 42 39 39 40 42 41 37 35 33 32 32 32 34 35 36 39 37 39 41 43 47 50 53 56 59 61 63 60 59 63 57 55 50 56 49 51 53 54 53
58 54 49 45 43 44 44 39 38 38 38 43 41 38 35 34 33 33 33 34 36 35 34 41 40 41 43 46 48 52 56 59 62 63 65 62 61 62 63 58 55 54 51 50 48 45 56
49 49 49 48 47 44 42 40 38 39 41 43 39 35 35 33 34 34 34 36 35 36 39 40 41 42 43 46 49 52 56 60 63 63 59 59 57 56 62 63 58 55 56 51 52 44 43
49 52 52 51 47 43 42 40 39 42 42 40 37 35 35 34 35 34 36 37 35 37 36 40 41 41 43 46 49 54 55 56 54 45 35 37 32 31 33 52 57 58 58 47 38 40 51
50 51 49 48 45 42 40 41 40 43 41 39 37 37 36 35 36 36 37 36 36 35 36 38 40 42 44 47 49 52 56 46 29 25 27 33 12 16 17 35 41 46 42 43 44 40 53
47 48 48 47 44 42 43 43 42 42 42 41 39 39 37 37 38 37 37 36 36 35 36 36 39 41 45 47 49 51 48 29 27 20 26 25 12 14 20 21 28 34 45 39 39 32 29
49 47 45 46 45 44 43 42 42 42 43 40 41 41 39 38 39 37 36 36 36 34 34 35 38 41 42 45 47 48 40 23 25 24 27 19 14 13 13 23 22 29 35 37 44 40 30
47 45 43 44 45 44 45 45 43 43 41 41 43 42 39 38 37 36 35 35 34 32 32 34 38 39 40 43 45 38 29 19 21 22 26 15 16 15 15 5 10 16 33 37 32 39 35
47 47 46 47 48 47 48 46 44 43 41 43 43 39 37 37 36 35 34 34 33 31 31 34 36 37 40 42 40 28 21 18 24 26 23 11 12 10 2 1 9 16 17 31 36 33 37
47 49 48 48 48 48 48 42 39 39 42 42 39 37 37 35 33 33 33 32 30 30 31 35 35 36 40 40 35 25 20 18 24 28 18 9 5 14 8 11 9 15 20 26 31 29 35
49 49 48 47 44 43 43 39 38 39 39 36 36 36 34 32 30 31 30 28 28 28 31 33 33 36 39 35 26 24 24 17 22 24 25 8 4 7 12 13 6 14 17 30 27 31 30
40 40 40 40 40 39 37 34 33 32 33 31 33 32 31 30 29 29 27 26 27 28 30 30 32 36 37 32 22 21 21 15 20 24 22 3 3 13 18 11 10 7 1 19 38 35 36
36 36 34 32 31 32 30 31 30 29 30 31 30 30 30 29 27 25 24 26 26 28 29 30 33 36 34 28 22 16 18 14 15 21 19 12 6 4 15 12 16 11 10 2 14 38 37
33 32 33 32 33 32 31 31 31 30 31 31 31 28 27 25 23 21 23 25 26 27 27 31 35 35 28 25 23 17 15 14 13 13 11 12 8 5 4 9 13 12 11 7 4 7 33
37 36 34 33 33 32 32 30 28 28 28 26 25 24 23 20 18 21 23 24 24 25 29 33 35 33 24 23 21 17 13 13 10 5 7 6 4 7 7 12 10 8 11 13 7 4 11
40 38 35 34 33 33 32 31 29 28 26 25 23 21 18 18 21 23 22 23 24 27 30 33 35 26 20 21 20 16 12 8 8 8 8 2 4 2 7 6 8 6 14 13 12 10 11
44 43 42 38 36 32 30 30 28 25 22 20 17 17 19 21 21 22 21 22 26 29 29 32 29 24 22 18 14 10 9 10 10 11 12 13 7 7 4 3 1 2 16 12 16 11 14
50 46 44 41 37 35 33 31 27 24 20 21 21 22 21 21 20 21 23 26 26 26 28 28 24 22 18 14 10 12 12 10 12 12 12 14 8 6 5 3 2 5 15 15 15 13 20
56 52 49 46 44 39 36 33 30 27 25 24 25 23 22 22 22 24 26 27 25 24 24 23 20 18 15 13 10 16 17 14 13 12 15 16 12 11 12 9 9 5 15 24 20 11 8
59 54 53 52 49 45 41 37 34 31 29 27 26 25 25 25 25 26 27 27 24 22 23 21 19 17 16 13 18 17 21 17 13 14 14 15 16 14 14 14 10 8 6 24 24 18 1

GFSGBSN_500_spd_120.txt.gz
Wind_Speed
48 47 47 43 45 43 41 38 37 36 37 37 36 36 37 39 39 39 37 36 36 37 36 36 37 39 39 40 39 39 40 41 43 43 42 41 43 43 46 51 55 56 56 59 60 58 56
52 49 47 45 47 48 46 44 41 36 35 35 32 33 35 36 37 38 38 37 37 37 39 38 37 38 34 36 37 35 37 39 40 43 43 43 44 44 48 49 53 55 58 59 62 62 60
55 53 51 50 50 50 49 45 44 43 40 38 36 36 36 38 37 36 36 38 37 38 39 39 37 34 33 33 32 32 34 35 38 41 42 43 46 48 48 49 51 55 61 61 61 60 61
49 52 48 52 50 51 49 44 44 41 39 38 38 37 38 38 37 37 35 37 39 39 37 36 34 33 32 30 31 32 33 34 37 39 40 41 44 48 42 42 42 45 57 64 63 61 61
53 49 49 52 49 47 46 41 43 41 41 40 41 41 40 38 36 34 40 40 40 38 36 35 35 35 33 30 31 33 33 34 35 37 39 43 46 45 45 45 45 39 44 43 59 57 52
54 55 53 49 54 52 51 45 40 40 41 41 39 39 37 38 38 39 40 41 39 36 36 37 35 35 32 33 33 34 33 34 35 36 39 42 43 46 44 46 47 46 47 46 45 49 50
52 56 54 57 55 51 48 43 43 40 39 39 40 40 36 38 38 39 40 41 37 35 36 35 34 33 34 33 34 35 35 35 37 39 42 45 45 48 49 51 51 52 51 49 46 38 40
59 63 64 58 59 52 58 50 44 40 38 37 38 37 37 39 38 39 40 39 38 37 35 32 33 34 33 34 35 37 37 38 40 41 44 46 47 55 59 60 57 54 55 53 49 43 43
61 52 53 59 56 46 48 49 46 42 40 38 37 38 39 36 38 40 39 37 38 37 36 35 33 32 33 34 36 36 37 40 44 46 47 49 51 58 61 62 64 61 54 53 52 44 37
67 50 58 65 57 53 45 49 45 41 39 38 39 39 37 38 38 38 37 36 37 34 33 37 34 31 34 36 39 40 41 44 46 50 53 56 59 64 66 66 66 69 55 52 53 46 41
75 56 52 52 56 47 48 48 45 42 41 42 40 36 36 37 39 37 35 35 35 31 31 36 35 33 37 38 40 43 44 47 49 53 58 58 63 65 65 63 62 65 56 53 54 53 32
54 58 59 52 50 43 46 50 48 45 44 40 37 35 36 37 37 35 34 34 32 29 34 33 33 35 36 38 40 42 44 48 51 57 59 62 60 44 48 48 47 53 52 52 56 51 39
50 63 62 50 42 40 46 49 50 47 42 39 37 34 36 36 34 35 33 32 30 31 31 36 34 34 35 39 40 42 44 48 54 60 63 58 36 35 31 40 34 36 36 53 49 46 49
59 67 57 43 38 42 49 48 50 46 42 39 36 36 36 34 34 34 34 31 30 33 34 33 34 34 35 38 40 42 45 48 52 56 56 45 26 28 28 30 31 29 33 40 38 34 46
68 56 47 44 41 45 50 48 48 46 40 39 38 37 36 35 35 35 34 32 35 33 33 32 33 34 35 38 38 42 45 48 52 49 47 36 16 16 23 25 29 27 32 33 33 30 33
55 45 41 45 44 44 46 45 46 45 41 40 38 36 37 38 36 35 33 33 34 31 32 31 32 32 34 36 37 41 44 46 46 42 37 23 17 16 23 24 25 18 12 27 32 35 35
46 44 46 46 46 45 45 46 47 45 41 41 38 37 39 38 38 34 33 35 30 30 30 30 30 31 33 35 37 39 42 42 40 41 25 22 29 13 22 15 12 18 9 16 24 37 30
43 42 44 46 47 47 43 45 46 46 43 42 40 39 38 37 36 33 32 29 31 31 29 28 28 30 32 33 35 39 40 39 37 36 17 22 27 18 15 11 6 10 15 16 23 28 35
42 39 40 44 45 41 42 43 44 45 44 44 42 40 38 37 34 31 29 29 27 27 27 26 27 29 30 33 35 37 40 36 35 30 23 17 23 19 11 14 17 15 16 14 28 25 23
33 35 39 41 40 41 41 41 42 44 45 42 39 37 34 32 30 28 27 26 26 25 25 25 27 28 30 33 35 36 39 36 32 28 23 21 16 21 21 22 15 6 8 18 27 29 25
35 37 34 34 37 39 39 39 39 39 39 37 34 32 30 28 26 25 25 25 23 23 22 24 26 27 30 33 35 37 37 34 27 24 23 21 16 22 18 20 14 19 16 19 27 27 27
27 28 30 31 32 35 36 35 33 33 32 31 28 30 27 28 24 25 23 23 22 21 22 25 25 27 29 32 36 37 35 30 22 18 22 19 13 16 11 16 11 9 11 4 26 31 13
27 29 30 30 28 31 31 30 28 28 28 27 26 25 26 26 22 22 22 22 20 20 21 22 25 28 30 33 35 34 29 22 20 17 14 10 13 17 5 8 5 4 5 9 12 32 27
28 27 28 30 29 28 29 29 27 24 25 25 24 24 24 22 21 21 22 21 20 20 20 22 25 28 31 33 34 32 23 18 16 11 10 4 10 15 6 7 2 6 6 8 6 8 27
29 28 29 28 29 29 28 28 28 28 27 25 24 24 24 19 20 21 20 19 19 19 20 24 26 28 30 32 31 26 16 6 3 2 7 12 7 11 8 5 4 11 8 6 7 4 5
36 33 30 29 29 31 31 30 29 27 25 24 23 23 22 21 23 18 17 19 20 20 22 24 25 28 29 26 25 19 10 8 8 8 12 14 11 12 10 8 10 5 7 12 12 10 8
41 38 37 34 31 30 28 27 27 26 26 25 24 23 21 20 18 19 20 19 20 22 23 26 25 27 25 22 21 12 9 10 12 13 14 14 14 13 9 9 10 5 5 9 12 11 9
44 43 42 40 38 36 33 30 27 24 23 23 24 21 19 20 20 21 22 21 21 22 25 26 27 27 22 21 15 7 11 16 16 15 14 15 17 16 7 12 14 8 3 13 16 7 9
48 46 44 42 40 38 35 32 30 26 23 23 22 21 24 23 22 22 23 22 22 25 27 26 27 25 24 20 14 14 18 19 20 17 14 16 19 18 15 15 16 8 6 13 25 18 8